[[{"header":{"parameterUnit":"m.s-1","parameterCategory":1,"la1":31.0,"la2":29.5877,"lo1":-88.7671,"lo2":-86.6584,"dy":0.0162,"dx":0.0185,"nx":115,"ny":88,"refTime":"2024-06-19T12:00:00:Z","depth":0,"parameterNumber":2,"parameterNumberName":"U-component_of_WINDS"},"data":[0.0,0.0,0.0,0.0,0.0,0.0,0.0,0.0,0.0,0.0,0.0,0.0,0.0,0.0,0.0,0.0,0.0,0.0,0.0,0.0,0.0,0.0,0.0,0.0,0.0,0.0,0.0,0.0,0.0,0.0,0.0,0.0,0.0,0.0,0.0,0.0,0.0,0.0,0.0,0.0,0.0,0.0,0.0,0.0,0.0,0.0,0.0,0.0,0.0,0.0,0.0,0.0,0.0,0.0,0.0,0.0,0.0,0.0,0.0,0.0,0.0,0.0,0.0,0.0,0.0,0.0,0.0,0.0,0.0,0.0,0.0,0.0,0.0,0.0,0.0,0.0,0.0,0.0,0.0,0.0,0.0,0.0,0.0,0.0,0.0,0.0,0.0,0.0,0.0,0.0,0.0,0.0,0.0,0.0,0.0,0.0,0.0,0.0,0.0,0.0,0.0,0.0,0.0,0.0,0.0,0.0,0.0,0.0,0.0,0.0,0.0,0.0,0.0,0.0,0.0,0.0,0.0,0.0,0.0,0.0,0.0,0.0,0.0,0.0,0.0,0.0,0.0,0.0,0.0,0.0,0.0,0.0,0.0,0.0,0.0,0.0,0.0,0.0,0.0,0.0,0.0,0.0,0.0,0.0,0.0,0.0,0.0,0.0,0.0,0.0,0.0,0.0,0.0,0.0,0.0,0.0,0.0,0.0,0.0,0.0,0.0,0.0,0.0,0.0,0.0,0.0,0.0,0.0,0.0,0.0,0.0,0.0,0.0,0.0,0.0,0.0,0.0,0.0,0.0,0.0,0.0,0.0,0.0,0.0,0.0,0.0,0.0,0.0,0.0,0.0,0.0,0.0,0.0,0.0,0.0,0.0,0.0,0.0,0.0,0.0,0.0,0.0,0.0,0.0,0.0,0.0,0.0,0.0,0.0,0.0,0.0,0.0,0.0,0.0,0.0,0.0,0.0,0.0,0.0,0.0,0.0,0.0,0.0,0.0,0.0,0.0,0.0,0.0,0.0,0.0,0.0,0.0,0.0,0.0,0.0,0.0,0.0,0.0,0.0,0.0,0.0,0.0,0.0,0.0,0.0,0.0,0.0,0.0,0.0,0.0,0.0,0.0,0.0,0.0,0.0,0.0,0.0,0.0,0.0,0.0,0.0,0.0,0.0,0.0,0.0,0.0,0.0,0.0,0.0,0.0,0.0,0.0,0.0,0.0,0.0,0.0,0.0,0.0,0.0,0.0,0.0,0.0,0.0,0.0,0.0,0.0,0.0,0.0,0.0,0.0,0.0,0.0,0.0,0.0,0.0,0.0,0.0,0.0,0.0,0.0,0.0,0.0,0.0,0.0,0.0,0.0,0.0,0.0,0.0,0.0,0.0,0.0,0.0,0.0,0.0,0.0,0.0,0.0,0.0,0.0,0.0,0.0,0.0,0.0,0.0,0.0,0.0,0.0,0.0,0.0,0.0,0.0,0.0,0.0,0.0,0.0,0.0,0.0,0.0,0.0,0.0,0.0,0.0,0.0,0.0,0.0,0.0,0.0,0.0,0.0,0.0,0.0,0.0,0.0,0.0,0.0,0.0,0.0,0.0,0.0,0.0,0.0,0.0,0.0,0.0,0.0,0.0,0.0,0.0,0.0,0.0,0.0,0.0,0.0,0.0,0.0,0.0,0.0,0.0,0.0,0.0,0.0,0.0,0.0,0.0,0.0,0.0,0.0,0.0,0.0,0.0,0.0,0.0,0.0,0.0,0.0,0.0,0.0,0.0,0.0,0.0,0.0,0.0,0.0,0.0,0.0,0.0,0.0,0.0,0.0,0.0,0.0,0.0,0.0,0.0,0.0,0.0,0.0,0.0,0.0,0.0,0.0,0.0,0.0,0.0,0.0,0.0,0.0,0.0,0.0,0.0,0.0,0.0,0.0,0.0,0.0,0.0,0.0,0.0,0.0,0.0,0.0,0.0,0.0,0.0,0.0,0.0,0.0,0.0,0.0,0.0,0.0,0.0,0.0,0.0,0.0,0.0,0.0,0.0,0.0,0.0,0.0,0.0,0.0,0.0,0.0,0.0,0.0,0.0,0.0,0.0,0.0,0.0,0.0,0.0,0.0,0.0,0.0,0.0,0.0,0.0,0.0,0.0,0.0,0.0,0.0,0.0,0.0,0.0,0.0,0.0,0.0,0.0,0.0,0.0,0.0,0.0,0.0,0.0,0.0,0.0,0.0,0.0,0.0,0.0,0.0,0.0,0.0,0.0,0.0,0.0,0.0,0.0,0.0,0.0,0.0,0.0,0.0,0.0,0.0,0.0,0.0,0.0,0.0,0.0,0.0,0.0,0.0,0.0,0.0,0.0,0.0,0.0,0.0,0.0,0.0,0.0,0.0,0.0,0.0,0.0,0.0,0.0,0.0,0.0,0.0,0.0,0.0,0.0,0.0,0.0,0.0,0.0,0.0,0.0,0.0,0.0,0.0,0.0,0.0,0.0,0.0,0.0,0.0,0.0,0.0,0.0,0.0,0.0,0.0,0.0,0.0,0.0,0.0,0.0,0.0,0.0,0.0,0.0,0.0,0.0,0.0,0.0,0.0,0.0,0.0,0.0,0.0,0.0,0.0,0.0,0.0,0.0,0.0,0.0,0.0,0.0,0.0,0.0,0.0,0.0,0.0,0.0,0.0,0.0,0.0,0.0,0.0,0.0,0.0,0.0,0.0,0.0,0.0,0.0,0.0,0.0,0.0,0.0,0.0,0.0,0.0,0.0,0.0,0.0,0.0,0.0,0.0,0.0,0.0,0.0,0.0,0.0,0.0,0.0,0.0,0.0,0.0,0.0,0.0,0.0,0.0,0.0,0.0,0.0,0.0,0.0,0.0,0.0,0.0,0.0,0.0,0.0,0.0,0.0,0.0,0.0,0.0,0.0,0.0,0.0,0.0,0.0,0.0,0.0,0.0,0.0,0.0,0.0,0.0,0.0,0.0,0.0,0.0,0.0,0.0,0.0,0.0,0.0,0.0,0.0,0.0,0.0,0.0,0.0,0.0,0.0,0.0,0.0,0.0,0.0,0.0,0.0,0.0,0.0,0.0,0.0,0.0,0.0,0.0,0.0,0.0,0.0,0.0,0.0,0.0,0.0,0.0,0.0,0.0,0.0,0.0,0.0,0.0,0.0,0.0,0.0,0.0,0.0,0.0,0.0,0.0,0.0,0.0,0.0,0.0,0.0,0.0,0.0,0.0,0.0,0.0,0.0,0.0,0.0,0.0,0.0,0.0,0.0,0.0,0.0,0.0,0.0,0.0,0.0,0.0,0.0,0.0,0.0,0.0,0.0,0.0,0.0,0.0,0.0,0.0,0.0,0.0,0.0,0.0,0.0,0.0,0.0,0.0,0.0,0.0,0.0,0.0,0.0,0.0,0.0,0.0,0.0,0.0,0.0,0.0,0.0,0.0,0.0,0.0,0.0,0.0,0.0,0.0,0.0,0.0,0.0,0.0,0.0,0.0,0.0,0.0,0.0,0.0,0.0,0.0,0.0,0.0,0.0,0.0,0.0,0.0,0.0,0.0,0.0,0.0,0.0,0.0,0.0,0.0,0.0,0.0,0.0,0.0,0.0,0.0,0.0,0.0,0.0,0.0,0.0,0.0,0.0,0.0,0.0,0.0,0.0,0.0,0.0,0.0,0.0,0.0,0.0,0.0,0.0,0.0,0.0,0.0,0.0,0.0,0.0,0.0,0.0,0.0,0.0,0.0,0.0,0.0,0.0,0.0,0.0,0.0,0.0,0.0,0.0,0.0,0.0,0.0,0.0,0.0,0.0,0.0,0.0,0.0,0.0,0.0,0.0,0.0,0.0,0.0,0.0,0.0,0.0,0.0,0.0,0.0,0.0,0.0,0.0,0.0,0.0,0.0,0.0,0.0,0.0,0.0,0.0,0.0,0.0,0.0,0.0,0.0,0.0,0.0,0.0,0.0,0.0,0.0,0.0,0.0,0.0,0.0,0.0,0.0,0.0,0.0,0.0,0.0,0.0,0.0,0.0,0.0,0.0,0.0,0.0,0.0,0.0,0.0,0.0,0.0,0.0,0.0,0.0,0.0,0.0,0.0,0.0,0.0,0.0,0.0,0.0,0.0,0.0,0.0,0.0,0.0,0.0,0.0,0.0,0.0,0.0,0.0,0.0,0.0,0.0,0.0,0.0,0.0,0.0,0.0,0.0,0.0,0.0,0.0,0.0,0.0,0.0,0.0,0.0,0.0,0.0,0.0,0.0,0.0,0.0,0.0,-2.0049,0.0,0.0,0.0,0.0,0.0,0.0,0.0,0.0,0.0,0.0,0.0,0.0,0.0,0.0,0.0,0.0,0.0,0.0,0.0,0.0,0.0,0.0,0.0,0.0,0.0,0.0,0.0,0.0,0.0,0.0,0.0,0.0,0.0,0.0,0.0,0.0,0.0,0.0,0.0,0.0,0.0,0.0,0.0,0.0,0.0,0.0,0.0,0.0,0.0,0.0,0.0,0.0,0.0,0.0,0.0,0.0,0.0,0.0,0.0,0.0,0.0,0.0,0.0,0.0,0.0,0.0,0.0,0.0,0.0,0.0,0.0,0.0,0.0,0.0,0.0,0.0,0.0,0.0,0.0,0.0,0.0,0.0,0.0,0.0,0.0,0.0,0.0,0.0,0.0,0.0,0.0,0.0,0.0,0.0,0.0,0.0,0.0,0.0,0.0,0.0,0.0,0.0,0.0,0.0,0.0,0.0,0.0,0.0,0.0,0.0,-2.1023,-2.091,-2.0766,-2.0461,-1.9985,0.0,0.0,0.0,0.0,0.0,0.0,0.0,0.0,0.0,0.0,0.0,0.0,0.0,0.0,0.0,0.0,0.0,0.0,0.0,0.0,0.0,0.0,0.0,0.0,0.0,0.0,0.0,0.0,0.0,0.0,0.0,0.0,0.0,0.0,0.0,0.0,0.0,0.0,0.0,0.0,0.0,0.0,0.0,0.0,0.0,0.0,0.0,0.0,0.0,0.0,0.0,0.0,0.0,0.0,0.0,0.0,0.0,0.0,0.0,0.0,0.0,0.0,0.0,0.0,0.0,0.0,0.0,0.0,0.0,0.0,0.0,0.0,0.0,0.0,0.0,0.0,0.0,0.0,0.0,0.0,0.0,0.0,0.0,0.0,0.0,0.0,0.0,0.0,0.0,0.0,0.0,0.0,0.0,0.0,0.0,0.0,0.0,0.0,0.0,0.0,0.0,0.0,0.0,0.0,0.0,0.0,0.0,0.0,0.0,0.0,0.0,0.0,-2.1298,-2.1034,-2.0224,0.0,0.0,0.0,0.0,0.0,0.0,0.0,0.0,0.0,0.0,0.0,0.0,0.0,0.0,0.0,0.0,0.0,0.0,0.0,0.0,0.0,0.0,0.0,0.0,0.0,0.0,0.0,0.0,0.0,0.0,0.0,0.0,0.0,0.0,0.0,0.0,0.0,0.0,0.0,0.0,0.0,0.0,0.0,0.0,0.0,0.0,0.0,0.0,0.0,0.0,0.0,0.0,0.0,0.0,0.0,0.0,0.0,0.0,0.0,0.0,0.0,0.0,0.0,0.0,0.0,0.0,0.0,0.0,0.0,0.0,0.0,0.0,0.0,0.0,0.0,0.0,0.0,0.0,0.0,0.0,0.0,0.0,0.0,0.0,0.0,0.0,0.0,0.0,0.0,0.0,0.0,0.0,0.0,0.0,0.0,0.0,0.0,0.0,0.0,0.0,0.0,0.0,0.0,0.0,0.0,0.0,0.0,0.0,0.0,0.0,-2.0877,-2.2531,-2.2432,0.0,-2.1364,0.0,0.0,0.0,0.0,0.0,0.0,0.0,0.0,0.0,0.0,0.0,0.0,0.0,0.0,0.0,0.0,0.0,0.0,0.0,0.0,0.0,0.0,0.0,0.0,0.0,0.0,0.0,0.0,0.0,0.0,0.0,0.0,0.0,0.0,0.0,0.0,0.0,0.0,0.0,0.0,0.0,0.0,0.0,0.0,0.0,0.0,0.0,0.0,0.0,0.0,0.0,0.0,0.0,0.0,0.0,0.0,0.0,0.0,0.0,0.0,0.0,0.0,0.0,0.0,0.0,0.0,0.0,0.0,0.0,0.0,0.0,0.0,0.0,0.0,0.0,0.0,0.0,0.0,0.0,0.0,0.0,0.0,0.0,0.0,0.0,0.0,0.0,0.0,0.0,0.0,0.0,0.0,0.0,0.0,0.0,0.0,0.0,0.0,0.0,0.0,0.0,0.0,0.0,0.0,0.0,0.0,0.0,0.0,0.0,0.0,-2.1972,-2.2259,-2.1812,-2.1347,0.0,0.0,0.0,0.0,0.0,0.0,0.0,0.0,0.0,0.0,0.0,0.0,0.0,0.0,0.0,0.0,0.0,0.0,0.0,0.0,0.0,0.0,0.0,0.0,0.0,0.0,0.0,0.0,0.0,0.0,0.0,0.0,0.0,0.0,0.0,0.0,0.0,0.0,0.0,0.0,0.0,0.0,0.0,0.0,0.0,0.0,0.0,0.0,0.0,0.0,0.0,0.0,0.0,0.0,0.0,0.0,0.0,0.0,0.0,0.0,0.0,0.0,0.0,0.0,0.0,0.0,0.0,0.0,0.0,0.0,0.0,0.0,0.0,0.0,0.0,0.0,0.0,0.0,0.0,0.0,0.0,0.0,0.0,0.0,0.0,0.0,0.0,0.0,0.0,0.0,0.0,0.0,0.0,0.0,0.0,0.0,0.0,0.0,0.0,0.0,0.0,0.0,0.0,0.0,0.0,0.0,0.0,0.0,0.0,0.0,-2.2188,0.0,-2.258,-2.1854,-2.1087,-2.0329,0.0,0.0,0.0,0.0,0.0,0.0,0.0,0.0,0.0,0.0,0.0,0.0,0.0,0.0,0.0,0.0,0.0,0.0,0.0,0.0,0.0,0.0,0.0,0.0,0.0,0.0,0.0,0.0,0.0,0.0,0.0,0.0,0.0,0.0,0.0,0.0,0.0,0.0,0.0,0.0,0.0,0.0,0.0,0.0,0.0,0.0,0.0,0.0,0.0,0.0,0.0,0.0,0.0,0.0,0.0,0.0,0.0,0.0,0.0,0.0,0.0,0.0,0.0,0.0,0.0,0.0,0.0,0.0,0.0,0.0,0.0,0.0,0.0,0.0,0.0,0.0,0.0,0.0,0.0,0.0,0.0,0.0,0.0,0.0,0.0,0.0,0.0,0.0,0.0,0.0,0.0,0.0,0.0,0.0,0.0,0.0,0.0,0.0,0.0,0.0,0.0,0.0,0.0,0.0,0.0,0.0,0.0,0.0,0.0,-2.2928,-2.2798,-2.4291,-2.3362,-2.1846,0.0,0.0,0.0,0.0,0.0,0.0,0.0,0.0,0.0,0.0,0.0,0.0,0.0,0.0,0.0,0.0,0.0,0.0,0.0,0.0,0.0,0.0,0.0,0.0,0.0,0.0,0.0,0.0,0.0,0.0,0.0,0.0,0.0,0.0,0.0,0.0,0.0,0.0,0.0,0.0,0.0,0.0,0.0,0.0,0.0,0.0,0.0,0.0,0.0,0.0,0.0,0.0,0.0,0.0,0.0,0.0,0.0,0.0,0.0,0.0,0.0,0.0,0.0,0.0,0.0,0.0,0.0,0.0,0.0,0.0,0.0,0.0,0.0,0.0,0.0,0.0,0.0,0.0,0.0,0.0,0.0,0.0,0.0,0.0,0.0,0.0,0.0,0.0,0.0,0.0,0.0,0.0,0.0,0.0,0.0,0.0,0.0,0.0,0.0,0.0,0.0,0.0,0.0,0.0,0.0,0.0,0.0,0.0,0.0,-2.1357,-2.1533,-2.2972,-2.5527,-2.2358,-2.0482,0.0,0.0,0.0,0.0,0.0,0.0,0.0,0.0,0.0,0.0,0.0,0.0,0.0,0.0,0.0,0.0,0.0,0.0,0.0,0.0,0.0,0.0,0.0,0.0,0.0,0.0,0.0,0.0,0.0,0.0,0.0,0.0,0.0,0.0,0.0,0.0,0.0,0.0,0.0,0.0,0.0,0.0,0.0,0.0,0.0,0.0,0.0,0.0,0.0,0.0,0.0,0.0,0.0,0.0,0.0,0.0,0.0,0.0,0.0,0.0,0.0,0.0,0.0,0.0,0.0,0.0,0.0,0.0,0.0,0.0,0.0,0.0,0.0,0.0,0.0,0.0,0.0,0.0,0.0,0.0,0.0,0.0,0.0,0.0,0.0,0.0,0.0,0.0,0.0,0.0,0.0,0.0,0.0,0.0,0.0,0.0,0.0,0.0,0.0,0.0,0.0,0.0,0.0,0.0,0.0,0.0,0.0,0.0,0.0,-2.0906,0.0,-2.396,0.0,-2.2198,-2.0155,0.0,0.0,0.0,0.0,0.0,0.0,0.0,0.0,0.0,0.0,0.0,0.0,0.0,0.0,0.0,0.0,0.0,0.0,0.0,0.0,0.0,0.0,0.0,0.0,0.0,0.0,0.0,0.0,0.0,0.0,0.0,0.0,0.0,0.0,0.0,0.0,0.0,0.0,0.0,0.0,0.0,0.0,0.0,0.0,0.0,0.0,0.0,0.0,0.0,0.0,0.0,0.0,0.0,0.0,0.0,0.0,0.0,0.0,0.0,0.0,0.0,0.0,0.0,0.0,0.0,0.0,0.0,0.0,0.0,0.0,0.0,0.0,0.0,0.0,0.0,0.0,0.0,0.0,0.0,0.0,0.0,0.0,0.0,0.0,0.0,0.0,0.0,0.0,0.0,0.0,0.0,0.0,0.0,0.0,0.0,0.0,0.0,0.0,0.0,0.0,0.0,0.0,0.0,0.0,0.0,0.0,0.0,0.0,-2.0683,-2.3711,-2.5614,-2.5701,-2.4031,-2.3142,-2.1048,0.0,0.0,0.0,0.0,0.0,0.0,0.0,0.0,0.0,0.0,0.0,0.0,0.0,0.0,0.0,0.0,0.0,0.0,0.0,0.0,0.0,0.0,0.0,0.0,0.0,0.0,0.0,0.0,0.0,0.0,0.0,0.0,0.0,0.0,0.0,0.0,0.0,0.0,0.0,0.0,0.0,0.0,0.0,0.0,0.0,0.0,0.0,0.0,0.0,0.0,0.0,0.0,0.0,0.0,0.0,0.0,0.0,0.0,0.0,0.0,0.0,0.0,0.0,0.0,0.0,0.0,0.0,0.0,0.0,0.0,0.0,0.0,0.0,0.0,0.0,0.0,0.0,0.0,0.0,0.0,0.0,0.0,0.0,0.0,0.0,0.0,0.0,0.0,0.0,0.0,0.0,0.0,0.0,0.0,0.0,0.0,0.0,0.0,0.0,0.0,0.0,0.0,0.0,0.0,0.0,0.0,0.0,0.0,0.0,-2.1946,-2.3813,-2.5164,-2.5759,-2.2686,-2.1249,0.0,0.0,0.0,0.0,0.0,0.0,0.0,0.0,0.0,0.0,0.0,0.0,0.0,0.0,0.0,0.0,0.0,0.0,0.0,0.0,0.0,0.0,0.0,0.0,0.0,0.0,0.0,0.0,0.0,0.0,0.0,0.0,0.0,0.0,0.0,0.0,0.0,0.0,0.0,0.0,0.0,0.0,0.0,0.0,0.0,0.0,0.0,0.0,0.0,0.0,0.0,0.0,0.0,0.0,0.0,0.0,0.0,0.0,0.0,0.0,0.0,0.0,0.0,0.0,0.0,0.0,0.0,0.0,0.0,0.0,0.0,0.0,0.0,0.0,0.0,0.0,0.0,0.0,0.0,0.0,0.0,0.0,0.0,0.0,0.0,0.0,0.0,0.0,0.0,0.0,0.0,0.0,0.0,0.0,0.0,0.0,0.0,0.0,0.0,0.0,0.0,0.0,0.0,0.0,0.0,0.0,0.0,0.0,0.0,-2.3296,-2.528,-2.653,-2.6779,-2.3586,-2.2026,-2.2396,0.0,0.0,0.0,0.0,0.0,0.0,0.0,0.0,0.0,0.0,0.0,0.0,0.0,0.0,0.0,0.0,0.0,0.0,0.0,0.0,0.0,0.0,0.0,0.0,0.0,0.0,0.0,0.0,0.0,0.0,0.0,0.0,0.0,0.0,0.0,0.0,0.0,0.0,0.0,0.0,0.0,0.0,0.0,0.0,0.0,0.0,0.0,0.0,0.0,0.0,0.0,0.0,0.0,0.0,0.0,0.0,0.0,0.0,0.0,0.0,0.0,0.0,0.0,0.0,0.0,0.0,0.0,0.0,0.0,0.0,0.0,0.0,0.0,0.0,0.0,0.0,0.0,0.0,0.0,0.0,0.0,0.0,0.0,0.0,0.0,0.0,0.0,0.0,0.0,0.0,0.0,0.0,0.0,0.0,0.0,0.0,0.0,0.0,0.0,0.0,0.0,0.0,0.0,0.0,0.0,0.0,0.0,0.0,-2.6907,-2.9435,-2.9566,-2.7171,-2.5622,-2.3461,0.0,0.0,0.0,0.0,0.0,0.0,0.0,0.0,0.0,0.0,0.0,0.0,0.0,0.0,0.0,0.0,0.0,0.0,0.0,0.0,0.0,0.0,0.0,0.0,0.0,0.0,0.0,0.0,0.0,0.0,0.0,0.0,0.0,0.0,0.0,0.0,0.0,0.0,0.0,0.0,0.0,0.0,0.0,0.0,0.0,0.0,0.0,0.0,0.0,0.0,0.0,0.0,0.0,0.0,0.0,0.0,0.0,0.0,0.0,0.0,0.0,0.0,0.0,0.0,0.0,0.0,0.0,0.0,0.0,0.0,0.0,0.0,0.0,0.0,0.0,0.0,0.0,0.0,0.0,0.0,0.0,0.0,0.0,0.0,0.0,0.0,0.0,0.0,0.0,0.0,0.0,0.0,0.0,0.0,0.0,0.0,0.0,0.0,0.0,0.0,0.0,0.0,0.0,0.0,0.0,0.0,0.0,0.0,0.0,-2.8202,-3.1179,-3.1963,-3.0277,-2.72,-2.5139,0.0,0.0,0.0,0.0,0.0,0.0,0.0,0.0,0.0,0.0,0.0,0.0,0.0,0.0,0.0,0.0,0.0,0.0,0.0,0.0,0.0,0.0,0.0,0.0,0.0,0.0,0.0,0.0,0.0,0.0,0.0,0.0,0.0,0.0,0.0,0.0,0.0,0.0,0.0,0.0,0.0,0.0,0.0,0.0,0.0,0.0,0.0,0.0,0.0,0.0,0.0,0.0,0.0,0.0,0.0,0.0,0.0,0.0,0.0,0.0,0.0,0.0,0.0,0.0,0.0,0.0,0.0,0.0,0.0,0.0,0.0,0.0,0.0,0.0,0.0,0.0,0.0,0.0,0.0,0.0,0.0,0.0,0.0,0.0,0.0,0.0,0.0,0.0,0.0,0.0,0.0,0.0,0.0,0.0,0.0,0.0,0.0,0.0,0.0,0.0,0.0,0.0,0.0,0.0,0.0,0.0,0.0,0.0,-2.7665,-2.9842,-3.2483,-3.3369,-3.2367,-2.9392,-2.7067,0.0,0.0,0.0,0.0,0.0,0.0,0.0,0.0,0.0,0.0,0.0,0.0,0.0,0.0,0.0,0.0,0.0,0.0,0.0,0.0,0.0,0.0,0.0,0.0,0.0,0.0,0.0,0.0,0.0,0.0,0.0,0.0,0.0,0.0,0.0,0.0,0.0,0.0,0.0,0.0,0.0,0.0,0.0,0.0,0.0,0.0,0.0,0.0,0.0,0.0,0.0,0.0,0.0,0.0,0.0,0.0,0.0,0.0,0.0,0.0,0.0,0.0,0.0,0.0,0.0,0.0,0.0,0.0,0.0,0.0,0.0,0.0,0.0,0.0,0.0,0.0,0.0,0.0,0.0,0.0,0.0,0.0,0.0,0.0,0.0,0.0,0.0,0.0,0.0,0.0,0.0,0.0,0.0,0.0,0.0,0.0,0.0,0.0,0.0,0.0,0.0,0.0,0.0,0.0,0.0,0.0,0.0,0.0,-2.9029,-3.1467,-3.3412,-3.4138,-3.3561,-3.1658,-2.8883,0.0,0.0,0.0,0.0,0.0,0.0,0.0,0.0,0.0,0.0,0.0,0.0,0.0,0.0,0.0,0.0,0.0,0.0,0.0,0.0,0.0,0.0,0.0,0.0,0.0,0.0,0.0,0.0,0.0,0.0,0.0,0.0,0.0,0.0,0.0,0.0,0.0,0.0,0.0,0.0,0.0,0.0,0.0,0.0,0.0,0.0,0.0,0.0,0.0,0.0,0.0,0.0,0.0,0.0,0.0,0.0,0.0,0.0,0.0,0.0,0.0,0.0,0.0,0.0,0.0,0.0,0.0,0.0,0.0,0.0,0.0,0.0,0.0,0.0,0.0,0.0,0.0,0.0,0.0,0.0,0.0,0.0,0.0,0.0,0.0,0.0,0.0,0.0,0.0,0.0,0.0,0.0,0.0,0.0,0.0,0.0,0.0,0.0,0.0,0.0,0.0,0.0,0.0,0.0,0.0,0.0,0.0,0.0,-2.9464,-3.1451,-3.3412,-3.4356,-3.4196,-3.1876,-2.929,0.0,0.0,0.0,0.0,0.0,0.0,0.0,0.0,0.0,0.0,0.0,0.0,0.0,0.0,0.0,0.0,0.0,0.0,0.0,0.0,0.0,0.0,0.0,0.0,0.0,0.0,0.0,0.0,0.0,0.0,0.0,0.0,0.0,0.0,0.0,0.0,0.0,0.0,0.0,0.0,0.0,0.0,0.0,0.0,0.0,0.0,0.0,0.0,-1.6065,0.0,0.0,0.0,0.0,0.0,0.0,0.0,0.0,0.0,0.0,0.0,0.0,0.0,0.0,0.0,0.0,0.0,0.0,0.0,0.0,0.0,0.0,0.0,0.0,0.0,0.0,0.0,0.0,0.0,0.0,0.0,0.0,0.0,0.0,0.0,0.0,0.0,0.0,0.0,0.0,0.0,0.0,0.0,0.0,0.0,0.0,0.0,0.0,0.0,0.0,0.0,0.0,0.0,0.0,0.0,0.0,0.0,0.0,0.0,-3.0525,-3.2396,-3.3732,-3.438,-3.4341,-3.2513,-3.0001,0.0,0.0,0.0,0.0,0.0,0.0,0.0,0.0,0.0,0.0,0.0,0.0,0.0,0.0,0.0,0.0,0.0,0.0,0.0,0.0,0.0,0.0,0.0,0.0,0.0,0.0,0.0,0.0,0.0,0.0,0.0,0.0,0.0,0.0,0.0,0.0,0.0,0.0,0.0,0.0,0.0,0.0,0.0,0.0,0.0,0.0,0.0,0.0,0.0,0.0,0.0,0.0,0.0,0.0,0.0,0.0,0.0,0.0,0.0,0.0,0.0,0.0,0.0,0.0,0.0,0.0,0.0,0.0,0.0,0.0,0.0,0.0,0.0,0.0,0.0,0.0,0.0,0.0,0.0,0.0,0.0,0.0,0.0,0.0,0.0,0.0,0.0,0.0,0.0,0.0,0.0,0.0,0.0,0.0,0.0,0.0,0.0,0.0,0.0,0.0,0.0,0.0,0.0,0.0,0.0,0.0,0.0,-2.8985,-3.1397,-3.3547,-3.4138,-3.438,-3.4399,-3.3148,-3.0713,-2.698,0.0,0.0,0.0,0.0,0.0,0.0,0.0,0.0,0.0,0.0,0.0,0.0,0.0,0.0,0.0,0.0,0.0,0.0,0.0,0.0,0.0,0.0,0.0,0.0,0.0,0.0,0.0,0.0,0.0,0.0,0.0,0.0,0.0,0.0,0.0,0.0,0.0,0.0,-1.4819,-1.5716,0.0,0.0,0.0,0.0,0.0,0.0,0.0,0.0,-1.6151,0.0,0.0,0.0,0.0,0.0,0.0,0.0,0.0,0.0,0.0,0.0,0.0,0.0,0.0,0.0,0.0,0.0,0.0,0.0,0.0,0.0,0.0,0.0,0.0,0.0,0.0,0.0,0.0,0.0,0.0,0.0,0.0,0.0,0.0,0.0,0.0,0.0,0.0,0.0,0.0,0.0,0.0,0.0,0.0,0.0,0.0,0.0,0.0,0.0,0.0,0.0,0.0,0.0,0.0,0.0,0.0,-2.887,-2.9,-3.0728,-3.4153,-3.4356,-3.438,-3.4385,-3.318,-3.0713,-2.7023,0.0,0.0,0.0,0.0,0.0,0.0,0.0,0.0,0.0,0.0,0.0,0.0,0.0,0.0,0.0,0.0,0.0,0.0,0.0,0.0,0.0,0.0,0.0,0.0,0.0,0.0,0.0,0.0,0.0,0.0,0.0,0.0,0.0,0.0,0.0,0.0,0.0,0.0,0.0,-1.8181,-1.871,0.0,0.0,0.0,0.0,0.0,0.0,0.0,0.0,-1.6775,0.0,0.0,0.0,0.0,0.0,0.0,0.0,0.0,0.0,0.0,0.0,0.0,0.0,0.0,0.0,0.0,0.0,0.0,0.0,0.0,0.0,0.0,0.0,0.0,0.0,0.0,0.0,0.0,0.0,0.0,0.0,0.0,0.0,0.0,0.0,0.0,0.0,0.0,0.0,0.0,0.0,0.0,0.0,0.0,0.0,0.0,0.0,0.0,0.0,0.0,0.0,0.0,0.0,0.0,0.0,-2.8013,-2.9798,-3.1888,-3.4279,-3.438,-3.438,-3.4356,-3.2191,-2.9682,0.0,0.0,0.0,0.0,0.0,0.0,0.0,0.0,0.0,0.0,0.0,0.0,0.0,0.0,0.0,0.0,0.0,0.0,0.0,0.0,0.0,0.0,0.0,0.0,0.0,0.0,0.0,0.0,0.0,0.0,0.0,0.0,0.0,0.0,0.0,0.0,0.0,0.0,0.0,0.0,-1.8722,-1.9326,-1.908,0.0,0.0,0.0,0.0,0.0,0.0,-1.8662,-1.7712,0.0,0.0,0.0,0.0,0.0,0.0,0.0,0.0,0.0,0.0,0.0,0.0,0.0,0.0,0.0,0.0,0.0,0.0,0.0,0.0,0.0,0.0,0.0,0.0,0.0,0.0,0.0,0.0,0.0,0.0,0.0,0.0,0.0,0.0,0.0,0.0,0.0,0.0,0.0,0.0,0.0,0.0,0.0,0.0,0.0,0.0,0.0,0.0,0.0,0.0,0.0,0.0,0.0,0.0,0.0,-2.6849,-3.0161,-3.2745,-3.4312,-3.438,-3.438,-3.4322,-3.1509,-2.8971,0.0,0.0,0.0,0.0,0.0,0.0,0.0,0.0,0.0,0.0,0.0,0.0,0.0,0.0,0.0,0.0,0.0,0.0,0.0,0.0,0.0,0.0,0.0,0.0,0.0,0.0,0.0,0.0,0.0,0.0,0.0,0.0,0.0,0.0,0.0,0.0,0.0,0.0,0.0,0.0,0.0,-2.0009,-2.0538,-1.9588,0.0,0.0,0.0,0.0,-2.1019,-2.0165,0.0,0.0,0.0,0.0,0.0,0.0,0.0,0.0,0.0,0.0,0.0,0.0,0.0,0.0,0.0,0.0,0.0,0.0,0.0,0.0,0.0,0.0,0.0,0.0,0.0,0.0,0.0,0.0,0.0,0.0,0.0,0.0,0.0,0.0,0.0,0.0,0.0,0.0,0.0,0.0,0.0,0.0,0.0,0.0,0.0,0.0,0.0,0.0,0.0,0.0,0.0,0.0,0.0,0.0,0.0,0.0,-2.6747,-2.8884,-3.1379,-3.4206,-3.438,-3.438,-3.4351,-3.2365,-2.9871,0.0,0.0,0.0,0.0,0.0,0.0,0.0,0.0,0.0,0.0,0.0,0.0,0.0,0.0,0.0,0.0,0.0,0.0,0.0,0.0,0.0,0.0,0.0,0.0,0.0,0.0,0.0,0.0,0.0,0.0,0.0,0.0,0.0,0.0,0.0,0.0,0.0,0.0,0.0,0.0,0.0,-2.2053,-2.0762,-2.0851,-2.1079,0.0,0.0,-2.2125,-2.3264,-2.3288,0.0,0.0,0.0,0.0,0.0,0.0,0.0,0.0,0.0,0.0,0.0,0.0,0.0,0.0,0.0,0.0,0.0,0.0,0.0,0.0,0.0,0.0,0.0,0.0,0.0,0.0,0.0,0.0,0.0,0.0,0.0,0.0,0.0,0.0,0.0,0.0,0.0,0.0,0.0,0.0,0.0,0.0,0.0,0.0,0.0,0.0,0.0,0.0,0.0,0.0,0.0,0.0,0.0,0.0,0.0,-2.4297,-2.6779,-2.974,-3.2278,-3.4327,-3.438,-3.438,-3.4366,-3.1496,-2.8799,0.0,0.0,0.0,0.0,0.0,0.0,0.0,0.0,0.0,0.0,0.0,0.0,0.0,0.0,0.0,0.0,0.0,0.0,0.0,0.0,0.0,0.0,0.0,0.0,0.0,0.0,0.0,0.0,0.0,0.0,0.0,0.0,0.0,0.0,0.0,0.0,0.0,0.0,0.0,0.0,0.0,0.0,-2.2847,-2.2787,0.0,0.0,0.0,-2.3481,-2.4482,0.0,0.0,0.0,0.0,0.0,0.0,0.0,0.0,0.0,0.0,0.0,0.0,0.0,0.0,0.0,0.0,0.0,0.0,0.0,0.0,0.0,0.0,0.0,0.0,0.0,0.0,0.0,0.0,0.0,0.0,0.0,0.0,0.0,0.0,0.0,0.0,0.0,0.0,0.0,0.0,0.0,0.0,0.0,0.0,0.0,0.0,0.0,0.0,0.0,0.0,0.0,0.0,0.0,0.0,0.0,0.0,0.0,-2.6808,-3.0568,-3.309,-3.4337,-3.438,-3.438,-3.4322,-3.0988,0.0,0.0,0.0,0.0,0.0,0.0,0.0,0.0,0.0,0.0,0.0,0.0,0.0,0.0,0.0,0.0,0.0,0.0,0.0,0.0,0.0,0.0,0.0,0.0,0.0,0.0,0.0,-1.0281,0.0,0.0,0.0,0.0,0.0,0.0,0.0,0.0,0.0,0.0,0.0,0.0,0.0,0.0,-2.3508,-2.4398,-2.4422,-2.4687,0.0,0.0,-2.4831,-2.5553,-2.53,-2.4097,0.0,0.0,0.0,0.0,0.0,0.0,0.0,0.0,0.0,0.0,0.0,0.0,0.0,0.0,0.0,0.0,0.0,0.0,0.0,0.0,0.0,0.0,0.0,0.0,0.0,0.0,0.0,0.0,0.0,0.0,0.0,0.0,0.0,0.0,0.0,0.0,0.0,0.0,0.0,0.0,0.0,0.0,0.0,0.0,0.0,0.0,0.0,0.0,0.0,0.0,0.0,0.0,0.0,0.0,0.0,-2.6864,-3.0568,-3.3137,-3.4356,-3.438,-3.438,-3.437,-3.183,-2.9088,0.0,0.0,0.0,0.0,0.0,0.0,0.0,0.0,0.0,0.0,0.0,0.0,0.0,0.0,0.0,0.0,0.0,0.0,0.0,0.0,0.0,0.0,0.0,0.0,0.0,0.0,0.0,0.0,0.0,0.0,0.0,0.0,0.0,0.0,0.0,0.0,0.0,0.0,0.0,0.0,0.0,-2.3917,-2.4458,-2.5336,-2.6154,0.0,0.0,-2.6705,-2.6777,-2.7584,-2.6971,-2.34,0.0,0.0,0.0,0.0,0.0,0.0,0.0,0.0,0.0,0.0,0.0,0.0,0.0,0.0,0.0,0.0,0.0,0.0,0.0,0.0,0.0,0.0,0.0,0.0,0.0,0.0,0.0,0.0,0.0,0.0,0.0,0.0,0.0,0.0,0.0,0.0,0.0,0.0,0.0,0.0,0.0,0.0,0.0,0.0,0.0,0.0,0.0,0.0,0.0,0.0,0.0,0.0,0.0,-2.4849,-2.6794,-3.0568,-3.3104,-3.4308,-3.438,-3.438,-3.438,-3.2295,-2.9766,0.0,0.0,0.0,0.0,0.0,0.0,0.0,0.0,0.0,0.0,0.0,0.0,0.0,0.0,0.0,0.0,0.0,0.0,0.0,0.0,0.0,0.0,0.0,0.0,0.0,0.0,0.0,0.0,-1.3553,-1.4024,-1.4838,0.0,0.0,0.0,0.0,0.0,0.0,0.0,0.0,0.0,0.0,-2.5143,-2.6322,-2.6801,0.0,0.0,-2.7633,-2.7486,-2.7849,-2.7654,-2.6681,-2.4314,-2.3388,0.0,0.0,0.0,0.0,0.0,0.0,0.0,0.0,0.0,0.0,0.0,0.0,0.0,0.0,0.0,0.0,0.0,0.0,0.0,0.0,0.0,0.0,0.0,0.0,0.0,0.0,0.0,0.0,0.0,0.0,0.0,0.0,0.0,0.0,0.0,0.0,0.0,0.0,0.0,0.0,0.0,0.0,0.0,0.0,0.0,0.0,0.0,0.0,0.0,0.0,0.0,0.0,-2.5125,-2.7055,-3.0858,-3.3325,-3.4351,-3.438,-3.438,-3.4322,-3.2527,-3.0198,0.0,0.0,0.0,0.0,0.0,0.0,0.0,0.0,0.0,0.0,0.0,0.0,0.0,0.0,0.0,0.0,0.0,0.0,0.0,0.0,0.0,0.0,0.0,0.0,0.0,0.0,0.0,0.0,-1.4642,-1.5007,-1.5708,0.0,0.0,0.0,0.0,0.0,0.0,0.0,0.0,0.0,0.0,-2.6069,-2.7474,-2.781,-2.805,-2.8462,-2.8198,-2.8089,-2.8462,-2.7885,-2.6825,-2.524,0.0,0.0,0.0,0.0,0.0,0.0,0.0,0.0,0.0,0.0,0.0,0.0,0.0,0.0,0.0,0.0,0.0,0.0,0.0,0.0,0.0,0.0,0.0,0.0,0.0,0.0,0.0,0.0,0.0,0.0,0.0,0.0,0.0,0.0,0.0,0.0,0.0,0.0,0.0,0.0,0.0,0.0,0.0,0.0,0.0,0.0,0.0,0.0,0.0,0.0,0.0,0.0,0.0,-2.5807,-2.771,-3.1482,-3.3746,-3.4351,-3.438,-3.438,-3.4337,-3.2542,-3.04,-2.8011,0.0,0.0,0.0,0.0,0.0,0.0,0.0,0.0,0.0,0.0,0.0,0.0,0.0,0.0,0.0,0.0,0.0,0.0,0.0,0.0,0.0,0.0,0.0,0.0,0.0,0.0,-1.4893,-1.5444,-1.5756,0.0,0.0,0.0,0.0,0.0,0.0,0.0,0.0,0.0,0.0,-2.5107,-2.6478,-2.7546,-2.8122,-2.8486,-2.851,-2.8486,-2.8486,-2.851,-2.8462,-2.7933,0.0,0.0,0.0,0.0,0.0,0.0,0.0,0.0,0.0,0.0,0.0,0.0,0.0,0.0,0.0,0.0,0.0,0.0,0.0,0.0,0.0,0.0,0.0,0.0,0.0,0.0,0.0,-2.2715,-2.1359,0.0,0.0,0.0,0.0,0.0,0.0,0.0,0.0,0.0,0.0,0.0,-2.7779,-2.884,0.0,0.0,0.0,0.0,0.0,0.0,0.0,0.0,0.0,0.0,0.0,0.0,-2.6431,-2.8405,-3.1729,-3.3808,-3.4385,-3.438,-3.438,-3.4399,-3.3383,-3.1108,-2.7499,0.0,0.0,0.0,0.0,0.0,0.0,0.0,0.0,0.0,0.0,0.0,0.0,0.0,0.0,0.0,0.0,0.0,0.0,0.0,0.0,0.0,0.0,0.0,0.0,0.0,-1.4782,0.0,0.0,0.0,0.0,0.0,0.0,0.0,0.0,0.0,0.0,0.0,-2.3364,-2.5095,-2.6394,-2.744,-2.815,-2.8402,-2.851,0.0,0.0,0.0,0.0,0.0,0.0,0.0,0.0,0.0,0.0,0.0,0.0,0.0,0.0,-2.572,-2.1957,-2.0513,-1.9832,-1.9689,0.0,0.0,0.0,0.0,0.0,0.0,0.0,0.0,0.0,0.0,0.0,0.0,0.0,0.0,0.0,0.0,-2.4346,0.0,0.0,0.0,0.0,0.0,0.0,0.0,0.0,-2.9813,-3.0917,-3.0727,-3.1774,-3.1467,0.0,-3.0016,-2.8275,0.0,0.0,0.0,0.0,0.0,0.0,0.0,0.0,-2.7418,-2.9363,-3.2312,-3.4008,-3.4385,-3.438,-3.438,-3.4351,-3.3354,-3.1147,-2.7711,-2.4866,-2.2442,0.0,0.0,0.0,0.0,0.0,0.0,0.0,0.0,0.0,0.0,0.0,0.0,0.0,0.0,0.0,0.0,0.0,0.0,0.0,0.0,0.0,0.0,0.0,-1.542,0.0,0.0,0.0,0.0,0.0,0.0,0.0,0.0,0.0,-2.1735,-2.3408,-2.5155,-2.6731,-2.7536,-2.8146,-2.8703,0.0,0.0,0.0,0.0,0.0,0.0,0.0,-2.8546,-2.8546,-2.8507,-2.8486,-2.8294,-2.8991,-2.9292,-2.8426,0.0,0.0,-2.4165,-2.2453,-2.1569,-2.1429,-2.1308,-2.1019,-2.0349,-2.0889,-2.124,0.0,0.0,0.0,0.0,0.0,0.0,0.0,0.0,-2.7782,-2.7956,0.0,-2.7215,0.0,0.0,0.0,0.0,0.0,0.0,0.0,0.0,-3.359,-3.5038,-3.4486,-3.5072,-3.5038,-3.4486,-3.4356,-3.3064,-3.0583,-2.7561,0.0,0.0,0.0,0.0,0.0,0.0,-2.8739,-3.067,-3.3108,-3.438,-3.438,-3.438,-3.438,-3.4337,-3.2539,-3.0606,-2.8659,-2.6398,-2.4128,-2.1774,-1.8963,0.0,0.0,0.0,0.0,0.0,0.0,0.0,0.0,0.0,0.0,0.0,0.0,0.0,0.0,0.0,0.0,0.0,0.0,0.0,0.0,-1.5247,0.0,0.0,0.0,0.0,0.0,0.0,0.0,0.0,0.0,0.0,-2.4047,-2.524,-2.6755,-2.8318,0.0,0.0,0.0,0.0,-2.9316,-2.9328,-2.9749,-3.0074,-3.0074,-3.0062,-3.0062,-3.0062,0.0,0.0,-2.946,-2.9797,-2.9977,-2.9448,-2.9122,-2.8784,-2.8518,-2.6718,-2.5329,-2.5033,-2.4085,-2.3475,-2.3313,-2.3564,-2.416,-3.4008,0.0,0.0,0.0,0.0,-3.1264,-3.2077,-3.3572,-3.3314,-3.2135,-3.0393,-3.0204,0.0,0.0,0.0,0.0,0.0,0.0,-3.1683,-3.3079,-3.4646,-3.5488,-3.5778,-3.5952,-3.5938,-3.5749,-3.5299,-3.4506,-3.3296,-3.1963,-2.9174,-2.5052,0.0,0.0,0.0,0.0,-3.0495,-3.1961,-3.3587,-3.438,-3.438,-3.438,-3.438,-3.438,-3.252,-3.1247,-3.0651,-2.778,-2.5367,-2.3573,-2.1071,0.0,0.0,0.0,0.0,0.0,0.0,0.0,0.0,0.0,0.0,0.0,0.0,0.0,0.0,0.0,0.0,0.0,0.0,0.0,-1.5824,-1.6199,-1.6979,0.0,0.0,0.0,0.0,0.0,0.0,0.0,0.0,0.0,-2.7079,-2.7524,-2.8126,0.0,0.0,-2.9544,-2.934,-2.9617,-2.9857,-2.9857,0.0,0.0,0.0,-3.0086,-3.0086,-3.0086,-3.0398,-3.0711,-3.0995,-3.1151,-3.1079,-3.0506,-3.0372,-3.0167,-2.9618,-2.7558,-2.5666,-2.4791,-2.4341,-2.4112,-2.4088,-2.4268,-2.4424,-3.8376,-3.5227,-3.4066,-3.4302,-3.5299,-3.4936,-3.5633,-3.7027,-3.6402,-3.5386,-3.4138,-3.363,-3.2222,-3.0191,-2.9697,0.0,0.0,0.0,-3.3819,-3.5198,-3.5836,-3.633,-3.6678,-3.6693,-3.6707,-3.6678,-3.6054,-3.5532,-3.5154,-3.453,-3.2443,-2.8941,0.0,0.0,-2.8695,-3.0176,-3.1584,-3.2875,-3.3891,-3.438,-3.438,-3.438,-3.4148,-3.3575,-3.2482,-3.1492,-3.0619,-2.8822,-2.6789,-2.4673,-2.2924,-2.0687,0.0,0.0,0.0,0.0,0.0,0.0,0.0,0.0,0.0,0.0,0.0,-1.3836,-1.2487,0.0,0.0,0.0,-1.5293,-1.6412,-1.7748,-1.8458,0.0,0.0,0.0,0.0,0.0,0.0,0.0,-2.6394,-2.7524,-2.8498,-2.9328,-2.9436,-2.9569,-2.9881,-3.0013,-3.005,-2.9941,0.0,-3.0398,-3.0398,-3.0579,-3.0754,-3.0711,-3.0754,-3.0711,-3.0711,-3.1007,-3.132,-3.1633,-3.1705,-3.1597,-3.132,-3.1235,-3.0854,-2.977,-2.8121,-2.6729,-2.5745,-2.5049,-2.4678,-2.4678,-2.4805,-2.4941,-4.1889,-4.1163,-3.9334,-3.8478,-3.8347,-3.8347,-3.8347,-3.8304,-3.7767,-3.781,-3.8188,-3.7056,-3.617,-3.5479,-3.4273,0.0,0.0,-3.529,-3.5836,-3.6489,-3.7099,-3.7375,-3.7375,-3.7375,-3.7375,-3.736,-3.6707,-3.6388,-3.6344,-3.577,-3.4854,-3.3634,-3.1862,-3.1177,-3.1569,-3.17,-3.2338,-3.3561,-3.4124,-3.438,-3.438,-3.438,-3.3777,-3.243,-3.2305,-3.1375,-2.9504,-2.9256,-2.7956,-2.5249,-2.4355,-2.2273,-1.8678,0.0,0.0,0.0,0.0,0.0,0.0,0.0,0.0,0.0,0.0,0.0,0.0,0.0,0.0,0.0,-1.7567,0.0,-1.9904,-2.1373,0.0,0.0,0.0,-2.3664,-2.4748,-2.6177,-2.7474,-2.8522,0.0,0.0,0.0,0.0,-3.0983,-3.0939,-3.0561,-3.0374,-3.0819,-3.0891,-3.0995,-3.0983,-3.138,-3.1693,-3.1609,-3.1621,-3.1609,-3.1609,-3.1705,-3.1681,-3.1705,-3.1705,-3.1705,-3.1681,-3.1617,-3.108,-2.9269,-2.8789,-2.8361,-2.7488,-2.6172,-2.5165,-2.5137,-2.541,-2.5596,-4.3442,-4.321,-4.2266,-4.1004,-3.9654,-3.9639,-3.9654,-3.9639,-3.9494,-3.9262,-3.8942,-3.8638,-3.7897,-3.6794,-3.5996,-3.5996,-3.6635,-3.678,-3.7186,-3.7738,-3.7912,-3.7984,-3.7999,-3.7999,-3.7999,-3.7941,-3.736,-3.707,-3.7041,-3.6402,-3.5691,-3.4956,-3.4477,-3.3605,-3.2367,-3.3206,-3.3844,-3.4182,-3.4327,-3.438,-3.438,-3.438,-3.4008,-3.3225,-3.1307,-3.0275,-3.0252,-2.7471,-2.5858,-2.5654,-2.3812,-2.2117,-2.0779,-1.815,0.0,0.0,0.0,0.0,0.0,0.0,0.0,0.0,0.0,-1.8169,-1.507,0.0,-1.9001,0.0,-2.0298,-2.1356,-2.1596,-2.2361,0.0,0.0,-2.5276,-2.6105,-2.7945,-2.8498,-2.8991,-2.9629,-3.029,-3.0778,-3.0855,-3.1271,-3.1524,-3.1512,-3.1416,-3.1235,-3.0983,-3.1271,-3.1512,-3.1536,-3.1645,-3.1705,-3.1753,-3.1705,-3.1729,-3.1705,-3.1717,-3.1705,-3.1717,-3.1705,-3.1705,-3.1661,-3.1048,-3.0678,-3.0892,-2.9189,-2.7974,-2.812,-2.6878,-2.5576,-2.5576,-2.5615,-2.5684,-4.4385,-4.4327,-4.3703,-4.2818,-4.1787,-4.1221,-4.0989,-4.0974,-4.067,-4.035,-4.0017,-3.9726,-3.9218,-3.8551,-3.8159,-3.8043,-3.8159,-3.8159,-3.8159,-3.8202,-3.8202,-3.8202,-3.8202,-3.8202,-3.8202,-3.8188,-3.7868,-3.7709,-3.7665,-3.707,-3.6577,-3.6214,-3.5683,-3.4869,-3.3848,-3.4211,-3.438,-3.438,-3.438,-3.438,-3.438,-3.438,-3.3978,-3.3064,-3.1667,-3.0506,-2.9727,-2.7919,-2.6378,-2.513,-2.4105,-2.2799,-2.1209,-1.9308,-1.8262,0.0,0.0,0.0,0.0,0.0,0.0,0.0,0.0,0.0,0.0,0.0,-2.0976,0.0,-2.2642,0.0,-2.3917,-2.5059,-2.6262,-2.7404,-2.7729,-2.8438,-2.9857,-3.0001,-3.0194,-3.0723,-3.1264,-3.1601,-3.1613,-3.2058,-3.244,-3.2382,-3.2394,-3.2235,-3.1697,-3.1705,-3.1862,-3.2343,-3.219,-3.2175,-3.2379,-3.2235,-3.209,-3.2066,-3.1886,-3.1777,-3.203,-3.2078,-3.2118,-3.2322,-3.195,-3.1561,-3.1664,-3.0522,-2.9372,-2.9098,-2.8149,-2.6772,-2.5869,-2.584,-2.6016,-4.501,-4.4951,-4.4356,-4.411,-4.4023,-4.2832,-4.2295,-4.2165,-4.1512,-4.1221,-4.1192,-4.051,-4.022,-4.022,-4.0133,-3.9813,-3.932,-3.932,-3.8957,-3.8347,-3.8318,-3.8275,-3.8202,-3.8202,-3.8202,-3.8202,-3.8202,-3.8202,-3.8188,-3.7665,-3.7389,-3.7259,-3.6206,-3.5566,-3.5378,-3.4806,-3.4486,-3.438,-3.438,-3.438,-3.438,-3.438,-3.3804,-3.2568,-3.233,-3.1125,-2.8753,-2.8923,-2.7632,-2.4575,-2.4731,-2.377,-2.1277,-2.0476,-2.0059,0.0,-1.9481,0.0,0.0,0.0,0.0,0.0,0.0,0.0,0.0,-2.233,-2.2955,-2.334,-2.4867,-2.5985,-2.637,-2.8222,-2.94,-2.9412,-2.9869,-3.0374,-3.0862,-3.097,-3.1199,-3.1657,-3.2154,-3.2503,-3.2478,-3.2959,-3.3284,-3.3224,-3.32,-3.308,-3.2755,-3.2262,-3.2262,-3.3188,-3.2899,-3.2743,-3.3056,-3.2863,-3.2599,-3.2551,-3.2307,-3.209,-3.2515,-3.2599,-3.2743,-3.314,-3.3014,-3.2746,-3.2099,-3.178,-3.1196,-3.031,-2.9236,-2.7979,-2.6655,-2.632,-2.6445,-4.5706,-4.5634,-4.498,-4.4719,-4.4647,-4.3935,-4.3311,-4.2774,-4.2165,-4.1903,-4.186,-4.1207,-4.0902,-4.0873,-4.0336,-4.0031,-3.9929,-3.9929,-3.9596,-3.903,-3.9015,-3.871,-3.8217,-3.8202,-3.8202,-3.8202,-3.8202,-3.8202,-3.8202,-3.8086,-3.7781,-3.7317,-3.707,-3.6417,-3.545,0.0,0.0,0.0,-3.438,-3.438,-3.438,-3.438,-3.3804,-3.2524,-3.1486,0.0,-2.8742,-2.7297,-2.6206,-2.5504,-2.4675,0.0,0.0,0.0,0.0,0.0,0.0,0.0,0.0,0.0,0.0,0.0,-2.3592,-2.3244,-2.283,-2.4735,-2.5889,-2.56,-2.7344,-2.8402,-2.8102,-2.9184,-2.9941,-2.9953,-3.041,-3.0771,-3.0922,-3.1284,-3.1609,-3.1705,-3.2211,-3.2503,-3.2563,-3.2959,-3.3308,-3.3344,-3.3296,-3.3428,-3.367,-3.3272,-3.3056,-3.3248,-3.3212,-3.3188,-3.3272,-3.3224,-3.3128,-3.3104,-3.308,-3.3008,-3.3092,-3.314,-3.314,-3.3332,-3.2653,-3.2382,-3.2876,-3.172,-3.0745,-3.0193,-2.9381,-2.8464,-2.8111,-2.7412,-2.6894,-4.588,0.0,-4.5518,-4.5387,0.0,-4.4705,-4.424,-4.3863,-4.2934,-4.2368,-4.2078,-4.1744,-4.1584,-4.1584,-4.1236,-4.0902,-4.0583,-4.0583,-4.0249,-3.9639,-3.9334,-3.903,-3.8696,-3.8347,-3.8202,-3.8202,-3.8202,-3.8202,-3.8202,-3.8202,-3.8043,-3.7767,-3.7447,-3.6809,-3.5851,-3.5212,-3.4733,-3.438,-3.438,-3.438,-3.438,-3.438,-3.3964,-3.3021,0.0,0.0,0.0,0.0,0.0,0.0,0.0,0.0,0.0,0.0,0.0,-2.4598,-2.4334,-2.4261,-2.4541,-2.4826,-2.519,-2.5648,-2.5949,-2.5769,-2.4987,-2.6406,-2.739,-2.7681,-2.8691,-2.9304,-2.9316,-3.0013,-3.047,-3.0494,-3.0951,-3.1296,-3.1332,-3.1548,-3.1705,-3.1789,-3.244,-3.2887,-3.2887,-3.3585,-3.4006,-3.4042,-3.4054,-3.4126,-3.4258,-3.3765,-3.3368,-3.3621,-3.3909,-3.4042,-3.4018,-3.3801,-3.3657,-3.3645,-3.3452,-3.3416,-3.3621,-3.3669,-3.3729,-3.3922,-3.36,-3.3493,-3.3804,-3.3193,-3.2492,-3.2334,-3.1587,-3.0693,-3.013,-2.8625,-2.7334,-4.588,-4.588,-4.588,-4.588,-4.5837,-4.5285,-4.4995,-4.4792,0.0,0.0,0.0,-4.215,-4.2092,-4.2092,-4.2092,-4.1787,-4.1279,-4.1265,-4.0902,-4.0263,-3.977,-3.9421,-3.9175,-3.8638,-3.8318,-3.8202,-3.8202,-3.8202,-3.8202,-3.8202,-3.8202,-3.8159,-3.7694,-3.7085,-3.6286,-3.5169,-3.453,-3.4428,-3.438,-3.438,-3.438,-3.438,-3.4109,-3.3518,-3.3503,-3.2646,-3.0859,-3.0752,-2.9746,-2.7639,-2.6982,-2.6553,-2.6267,-2.5832,-2.6152,-2.7354,-2.7488,-2.7585,-2.7866,-2.7767,-2.7555,-2.7276,-2.7647,-2.7707,-2.7198,-2.757,-2.8258,-2.922,-2.9376,-2.9653,-3.0182,-3.0699,-3.1055,-3.1023,-3.1452,-3.1705,-3.1705,-3.1705,-3.1741,-3.1934,-3.2729,-3.3332,-3.344,-3.421,-3.4775,-3.4763,-3.4739,-3.4775,-3.4727,-3.4138,-3.3777,-3.409,-3.4426,-3.4715,-3.4703,-3.4426,-3.415,-3.4114,-3.3861,-3.3729,-3.3994,-3.4126,-3.4306,-3.4619,-3.4763,-3.4727,-3.4751,-3.4642,-3.4628,-3.4323,-3.356,-3.2549,-3.1184,-2.9341,-2.7888,-4.588,-4.588,-4.588,-4.588,-4.588,-4.5779,-4.5416,-4.4792,-4.3558,-4.2934,-4.2832,-4.2324,-4.2092,-4.2092,-4.2092,-4.2049,-4.1947,-4.1947,-4.1599,0.0,-4.0858,-4.0249,-3.9218,-3.9102,-3.8768,-3.8231,-3.8202,-3.8202,-3.8202,-3.8202,-3.8202,-3.8202,-3.8115,-3.7476,-3.6344,-3.559,-3.5,-3.4395,-3.438,-3.438,-3.438,-3.438,-3.4109,-3.3547,-3.3503,-3.2817,-3.1422,-3.1379,-3.0973,-3.0041,-2.9862,-2.9262,-2.8155,-2.8438,-2.8517,-2.8295,-2.8066,-2.8429,-2.9391,-2.8812,-2.847,-2.8536,-2.8606,-2.8552,-2.8294,-2.8314,-2.8655,-2.9256,-2.9713,-3.0194,-3.0754,-3.1271,-3.156,-3.1573,-3.1645,-3.1705,-3.1705,-3.1717,-3.1886,-3.2298,-3.2899,-3.3464,-3.3873,-3.4451,-3.4775,-3.4775,-3.4775,-3.4775,-3.4751,-3.4715,-3.4643,-3.4703,-3.4715,-3.4775,-3.4763,-3.4727,-3.4619,-3.4715,-3.457,-3.4511,-3.4558,-3.4607,-3.4655,-3.4751,-3.4775,-3.4775,-3.4775,-3.4775,-3.4164,-3.2951,-3.2286,-3.1421,-2.9681,-2.8671,-2.8174,-4.588,-4.588,-4.588,-4.588,-4.588,-4.588,-4.5721,-4.5343,-4.4429,-4.3616,-4.2977,-4.2702,-4.2397,-4.2107,-4.2092,-4.2092,-4.2092,-4.2092,-4.1932,-4.1628,-4.1279,-4.0786,-4.0234,-3.9857,-3.9363,-3.8783,-3.8739,-3.8551,-3.8231,-3.8202,-3.8202,-3.8188,-3.7883,-3.7418,-3.6823,-3.5901,-3.5247,-3.4922,-3.4588,-3.438,-3.438,-3.438,-3.4283,-3.3993,-3.3978,-3.3543,-3.2629,-3.2587,-3.228,-3.1618,-3.1208,-3.0847,-3.0549,-3.0427,-3.0215,-2.9791,-2.9688,-2.9589,-2.9568,-2.9123,-2.8848,-2.8819,-2.8803,-2.8846,-2.896,-2.8943,-2.9148,-2.9677,-3.0206,-3.0735,-3.1284,-3.156,-3.1705,-3.1705,-3.1705,-3.1705,-3.1705,-3.1705,-3.1946,-3.2442,-3.2971,-3.3477,-3.3934,-3.445,-3.4775,-3.4775,-3.4775,-3.4775,-3.4775,-3.4775,-3.4775,-3.4775,-3.4775,-3.4775,-3.4775,-3.4775,-3.4775,-3.4775,-3.4775,-3.4775,-3.4775,-3.4775,-3.4775,-3.4775,-3.4775,-3.4775,-3.4775,-3.4775,-3.4262,-3.3758,-3.2801,-3.183,-3.0453,-2.9217,-2.8344,-4.588,-4.588,-4.588,-4.588,-4.588,-4.588,-4.588,-4.5822,-4.5329,-4.4472,-4.3471,-4.3137,-4.2658,-4.2121,-4.2092,-4.2092,-4.2092,-4.2092,-4.2092,-4.2034,-4.1555,-4.125,-4.1062,-4.0554,-4.0002,-3.9436,-3.9276,-3.8928,-3.8463,-3.8289,-3.8202,-3.8159,-3.7738,-3.7447,-3.7288,-3.6315,-3.5697,-3.5392,-3.4878,-3.4559,-3.4414,-3.438,-3.438,-3.438,-3.438,-3.4182,-3.375,-3.3707,-3.3456,-3.2959,-3.243,-3.2263,-3.2448,-3.1839,-3.1456,-3.1386,-3.0932,-3.0317,-2.9586,-2.9365,-2.917,-2.8949,-2.9071,-2.9208,-2.9354,-2.9603,-2.9851,-3.0272,-3.0615,-3.1115,-3.1573,-3.1693,-3.1705,-3.1705,-3.1705,-3.1705,-3.1705,-3.1705,-3.1982,-3.2563,-3.3044,-3.3513,-3.4054,-3.4522,-3.4751,-3.4775,-3.4775,-3.4775,-3.4775,-3.4775,-3.4775,-3.4775,-3.4775,-3.4775,-3.4775,-3.4775,-3.4775,-3.4775,-3.4775,-3.4775,-3.4775,-3.4775,-3.4775,-3.4775,-3.4775,-3.4775,-3.4775,-3.4775,-3.4628,-3.4176,-3.3511,-3.2689,-3.1154,-2.9523,-2.8344,-4.588,-4.588,-4.588,-4.588,-4.588,-4.588,-4.588,-4.5866,-4.5808,-4.5446,-4.4574,-4.35,-4.2673,-4.215,-4.2107,-4.2092,-4.2092,-4.2092,-4.2092,-4.2092,-4.2034,-4.1686,-4.1163,-4.1033,-4.0655,-4.0017,-3.9494,-3.9204,-3.903,-3.8478,-3.8202,-3.8202,-3.8144,-3.7839,-3.736,-3.7172,-3.6533,-3.5421,-3.5334,-3.5029,-3.4457,-3.438,-3.438,-3.438,-3.438,-3.4399,-3.4283,-3.4327,-3.4298,-3.424,-3.4129,-3.3805,-3.315,-3.2459,-3.2307,-3.2812,-3.1084,-2.9869,-2.9779,-2.9753,-2.9636,-2.9417,-2.9836,-2.9973,-2.9691,-3.0439,-3.0925,-3.0893,-3.0898,-3.1187,-3.1621,-3.1705,-3.1705,-3.1705,-3.1705,-3.1705,-3.1705,-3.1705,-3.2102,-3.315,-3.3236,-3.3645,-3.4499,-3.4727,-3.4763,-3.4775,-3.4775,-3.4775,-3.4775,-3.4775,-3.4775,-3.4775,-3.4775,-3.4775,-3.4775,-3.4775,-3.4775,-3.4775,-3.4775,-3.4775,-3.4775,-3.4775,-3.4775,-3.4775,-3.4775,-3.4775,-3.4775,-3.4775,-3.447,-3.3967,-3.335,-3.2588,-3.0639,-2.926,-2.8548,-4.588,-4.588,-4.588,-4.588,-4.588,-4.588,-4.588,-4.588,-4.588,-4.5503,-4.4821,-4.3964,-4.3224,-4.2615,-4.2252,-4.2092,-4.2092,-4.2092,-4.2092,-4.2092,-4.2092,-4.1961,-4.1715,-4.1686,-4.1337,-4.067,-4.0031,-3.9552,-3.9146,-3.8536,-3.8202,-3.8202,-3.8202,-3.8072,-3.7839,-3.7491,-3.6852,-3.5952,-3.5581,-3.5087,-3.4501,-3.438,-3.438,-3.438,-3.438,-3.438,-3.438,-3.438,-3.438,-3.438,-3.438,-3.4264,-3.3928,-3.3604,-3.3395,-3.3192,-3.1928,-3.0934,-3.0482,-3.0753,-3.0558,-2.9757,-3.0248,-3.0515,-3.0404,-3.0797,-3.1117,-3.1332,-3.138,-3.1488,-3.1681,-3.1705,-3.1705,-3.1705,-3.1705,-3.1705,-3.1705,-3.1717,-3.2126,-3.3092,-3.3296,-3.3681,-3.4559,-3.4775,-3.4775,-3.4775,-3.4775,-3.4775,-3.4775,-3.4775,-3.4775,-3.4775,-3.4775,-3.4775,-3.4775,-3.4775,-3.4775,-3.4775,-3.4775,-3.4775,-3.4775,-3.4775,-3.4775,-3.4775,-3.4775,-3.4775,-3.4775,-3.4775,-3.458,-3.4017,-3.34,-3.2689,-3.1154,-3.0026,-2.9418,-4.588,-4.588,-4.588,-4.588,-4.588,-4.588,-4.588,-4.588,-4.588,-4.5605,-4.5126,-4.4516,-4.3892,-4.321,-4.2455,-4.2092,-4.2092,-4.2092,-4.2092,-4.2092,-4.2092,-4.2092,-4.2092,-4.2092,-4.1845,-4.1337,-4.0699,-3.9973,-3.9218,-3.8522,-3.8202,-3.8202,-3.8202,-3.8202,-3.8173,-3.7738,-3.7244,-3.6591,-3.5988,-3.5334,-3.4748,-3.4516,-3.438,-3.438,-3.438,-3.438,-3.438,-3.438,-3.438,-3.438,-3.438,-3.438,-3.438,-3.4182,-3.3707,-3.3017,-3.2613,-3.2119,-3.153,-3.1624,-3.1396,-3.0796,-3.0955,-3.1104,-3.1095,-3.1129,-3.1351,-3.1621,-3.1705,-3.1693,-3.1705,-3.1705,-3.1705,-3.1705,-3.1705,-3.1705,-3.1705,-3.1813,-3.2319,-3.3116,-3.344,-3.3813,-3.4595,-3.4775,-3.4775,-3.4775,-3.4775,-3.4775,-3.4775,-3.4775,-3.4775,-3.4775,-3.4775,-3.4775,-3.4775,-3.4775,-3.4775,-3.4775,-3.4775,-3.4775,-3.4775,-3.4775,-3.4775,-3.4775,-3.4775,-3.4775,-3.4775,-3.4775,-3.4787,-3.4628,-3.3967,-3.3051,-3.2185,-3.1114,-3.0546,-4.588,-4.588,-4.588,-4.588,-4.588,-4.588,-4.588,-4.588,-4.588,-4.5851,-4.5706,-4.5111,-4.4501,-4.3834,-4.2673,-4.2107,-4.2092,-4.2092,-4.2092,-4.2092,-4.2092,-4.2092,-4.2092,-4.2092,-4.2063,-4.1903,-4.1279,-4.0365,-3.9218,-3.8565,-3.8202,-3.8202,-3.8202,-3.8202,-3.8188,-3.8144,-3.7839,-3.7186,-3.6577,-3.5938,-3.5363,-3.4719,-3.4424,-3.4428,-3.438,-3.438,-3.438,-3.438,-3.438,-3.438,-3.438,-3.438,-3.4332,-3.3707,-3.3052,-3.2448,-3.284,-3.309,-3.2793,-3.2281,-3.2006,-3.2343,-3.2016,-3.1752,-3.1522,-3.1716,-3.1797,-3.1749,-3.1717,-3.1705,-3.1705,-3.1705,-3.1705,-3.1705,-3.1705,-3.1705,-3.1705,-3.2106,-3.2659,-3.3224,-3.3717,-3.4162,-3.4691,-3.4775,-3.4775,-3.4775,-3.4775,-3.4775,-3.4775,-3.4775,-3.4775,-3.4775,-3.4775,-3.4775,-3.4775,-3.4775,-3.4775,-3.4775,-3.4775,-3.4775,-3.4775,-3.4775,-3.4775,-3.4775,-3.4775,-3.4775,-3.4775,-3.4775,-3.4775,-3.4568,-3.4066,-3.3312,-3.3151,-3.2235,-3.1666,-4.588,-4.588,-4.588,-4.588,-4.588,-4.588,-4.588,-4.588,-4.588,-4.588,-4.5764,-4.5184,-4.4545,-4.395,-4.3065,-4.2455,-4.2107,-4.2092,-4.2092,-4.2092,-4.2092,-4.2092,-4.2092,-4.2092,-4.2092,-4.199,-4.141,-4.0452,-3.932,-3.8942,-3.8609,-3.826,-3.8202,-3.8202,-3.8202,-3.8202,-3.7912,-3.7346,-3.7056,-3.6446,-3.5523,-3.516,-3.4835,-3.4409,-3.438,-3.438,-3.438,-3.438,-3.438,-3.438,-3.438,-3.438,-3.438,-3.4113,-3.3859,-3.3681,-3.4196,-3.437,-3.3848,-3.3688,-3.3423,-3.2994,-3.2638,-3.2327,-3.2117,-3.2003,-3.195,-3.1893,-3.1761,-3.1705,-3.1705,-3.1705,-3.1705,-3.1705,-3.1705,-3.1717,-3.1813,-3.2166,-3.2707,-3.3272,-3.3982,-3.4583,-3.4691,-3.4775,-3.4775,-3.4775,-3.4775,-3.4775,-3.4775,-3.4775,-3.4775,-3.4775,-3.4775,-3.4775,-3.4775,-3.4775,-3.4775,-3.4775,-3.4775,-3.4775,-3.4775,-3.4775,-3.4775,-3.4775,-3.4775,-3.4775,-3.4775,-3.4775,-3.4775,-3.4665,-3.4164,-3.4066,-3.4213,-3.325,-3.2739,-4.588,-4.588,-4.588,-4.588,-4.588,-4.588,-4.588,-4.588,-4.588,-4.588,-4.5793,-4.5401,-4.4864,-4.424,-4.3602,-4.2963,-4.2397,-4.2194,-4.2092,-4.2092,-4.2092,-4.2092,-4.2092,-4.2092,-4.2092,-4.199,-4.141,-4.0525,-3.9581,-3.9291,-3.8855,-3.8231,-3.8202,-3.8202,-3.8202,-3.8202,-3.7984,-3.7636,-3.7418,-3.6838,-3.6089,-3.5813,-3.5473,-3.5067,-3.4835,-3.4617,-3.4395,-3.438,-3.438,-3.438,-3.438,-3.438,-3.438,-3.438,-3.4501,-3.4733,-3.5145,-3.5385,-3.5216,-3.5145,-3.4763,-3.4042,-3.3402,-3.2945,-3.255,-3.2257,-3.2169,-3.2069,-3.1937,-3.1793,-3.1793,-3.1749,-3.1705,-3.1705,-3.1705,-3.1801,-3.1982,-3.243,-3.3056,-3.3765,-3.4342,-3.4715,-3.4775,-3.4775,-3.4775,-3.4775,-3.4775,-3.4775,-3.4775,-3.4775,-3.4775,-3.4775,-3.4775,-3.4775,-3.4775,-3.4775,-3.4775,-3.4775,-3.4775,-3.4775,-3.4775,-3.4775,-3.4775,-3.4775,-3.4775,-3.4775,-3.4775,-3.4775,-3.4775,-3.4775,-3.4665,-3.4519,-3.4421,-3.4225,-3.3758,-4.588,-4.588,-4.588,-4.588,-4.588,-4.588,-4.588,-4.588,-4.588,-4.588,-4.5866,-4.5837,-4.5401,-4.4821,-4.4139,-4.3573,-4.2905,-4.2353,-4.2092,-4.2092,-4.2092,-4.2092,-4.2092,-4.2092,-4.2092,-4.2063,-4.1453,-4.08,-4.0118,-3.9567,-3.8957,-3.8362,-3.8231,-3.8202,-3.8202,-3.8202,-3.8188,-3.8043,-3.7636,-3.7302,-3.7215,-3.662,-3.6257,-3.6141,-3.5683,-3.5145,-3.4545,-3.4424,-3.438,-3.438,-3.438,-3.438,-3.4414,-3.4472,-3.4719,-3.5232,-3.5421,-3.604,-3.6917,-3.6377,-3.5845,-3.5385,-3.4583,-3.3602,-3.3,-3.255,-3.2388,-3.2332,-3.2169,-3.1981,-3.195,-3.1849,-3.1705,-3.1717,-3.1765,-3.1973,-3.2406,-3.2959,-3.3657,-3.4438,-3.4751,-3.4763,-3.4775,-3.4775,-3.4775,-3.4775,-3.4775,-3.4775,-3.4775,-3.4775,-3.4775,-3.4775,-3.4775,-3.4775,-3.4775,-3.4775,-3.4775,-3.4775,-3.4775,-3.4775,-3.4775,-3.4775,-3.4775,-3.4775,-3.4775,-3.4775,-3.4775,-3.4775,-3.4775,-3.4775,-3.4775,-3.4775,-3.4617,-3.447,-3.4568,-4.588,-4.588,-4.588,-4.588,-4.588,-4.588,-4.588,-4.588,-4.588,-4.588,-4.588,-4.588,-4.5518,-4.4879,-4.4255,-4.3631,-4.2963,-4.2382,-4.2092,-4.2092,-4.2092,-4.2092,-4.2092,-4.2092,-4.2092,-4.2063,-4.1903,-4.1439,-4.0757,-4.0118,-3.9494,-3.8928,-3.842,-3.8217,-3.8202,-3.8202,-3.8202,-3.8173,-3.8028,-3.7738,-3.736,-3.7114,-3.6794,-3.633,-3.6112,-3.5909,-3.5706,-3.4859,-3.4409,-3.4409,-3.438,-3.438,-3.4486,-3.4835,-3.5154,-3.5465,-3.6278,-3.6809,-3.712,-3.694,-3.662,-3.6239,-3.5128,-3.4259,-3.381,-3.3099,-3.268,-3.2636,-3.2431,-3.2213,-3.2025,-3.1937,-3.1837,-3.1717,-3.2042,-3.2286,-3.2623,-3.3296,-3.4042,-3.4607,-3.4775,-3.4775,-3.4775,-3.4775,-3.4775,-3.4775,-3.4775,-3.4775,-3.4775,-3.4775,-3.4775,-3.4775,-3.4775,-3.4775,-3.4775,-3.4775,-3.4775,-3.4775,-3.4775,-3.4775,-3.4775,-3.4775,-3.4775,-3.4775,-3.4775,-3.4775,-3.4775,-3.4775,-3.4775,-3.4775,-3.4775,-3.4775,-3.4775,-3.4775,-3.4775,-4.615,-4.5925,-4.618,-4.6105,-4.597,-4.615,-4.6269,-4.6314,-4.6565,-4.6506,-4.6328,-4.6284,-4.5872,-4.5272,-4.4603,-4.3979,-4.3326,-4.2702,-4.231,-4.2121,-4.2092,-4.2092,-4.2092,-4.2092,-4.2092,-4.2092,-4.2092,-4.1744,-4.1105,-4.0655,-4.0046,-3.9247,-3.8768,-3.8434,-3.8246,-3.8202,-3.8202,-3.8202,-3.8188,-3.8028,-3.7723,-3.7636,-3.7447,-3.7056,-3.6809,-3.6693,-3.6606,-3.5648,-3.5076,-3.5111,-3.5111,-3.5125,-3.5169,-3.5517,-3.5857,-3.6235,-3.6794,-3.7375,-3.7548,-3.7519,-3.7208,-3.678,-3.591,-3.5182,-3.4772,-3.3869,-3.3343,-3.33,-3.2853,-3.2431,-3.2213,-3.2038,-3.1937,-3.1717,-3.2154,-3.2647,-3.3044,-3.3754,-3.433,-3.4703,-3.4775,-3.4775,-3.4775,-3.4775,-3.4775,-3.4775,-3.4775,-3.4775,-3.4775,-3.4775,-3.4775,-3.4775,-3.4775,-3.4775,-3.4775,-3.4775,-3.4775,-3.4775,-3.4775,-3.4775,-3.4775,-3.4775,-3.4775,-3.4775,-3.4775,-3.4775,-3.4775,-3.4775,-3.4775,-3.4775,-3.4775,-3.4775,-3.4775,-3.4775,-3.4775,-4.6565,-4.609,-4.6712,-4.6609,-4.6225,-4.6697,-4.6873,-4.696,-4.7536,-4.7364,-4.6873,-4.6741,-4.6476,-4.5841,-4.5082,-4.4458,-4.3921,-4.321,-4.2586,-4.2208,-4.2092,-4.2092,-4.2092,-4.2092,-4.2092,-4.2092,-4.2092,-4.1773,-4.1279,-4.1062,-4.0481,-3.9421,-3.9189,-3.8841,-3.8333,-3.8202,-3.8202,-3.8202,-3.8202,-3.8173,-3.8144,-3.8159,-3.8144,-3.8072,-3.7622,-3.7346,-3.7244,-3.6736,-3.6359,-3.6301,-3.6141,-3.6112,-3.6243,-3.6315,-3.6649,-3.7114,-3.7302,-3.7665,-3.8057,-3.8084,-3.781,-3.7155,-3.6858,-3.6557,-3.5709,-3.4924,-3.4413,-3.433,-3.3513,-3.2797,-3.2593,-3.2257,-3.2038,-3.1882,-3.2343,-3.2984,-3.3838,-3.4402,-3.4679,-3.4751,-3.4775,-3.4775,-3.4775,-3.4775,-3.4775,-3.4775,-3.4775,-3.4775,-3.4775,-3.4775,-3.4775,-3.4775,-3.4775,-3.4775,-3.4775,-3.4775,-3.4775,-3.4775,-3.4775,-3.4775,-3.4775,-3.4775,-3.4775,-3.4775,-3.4775,-3.4775,-3.4775,-3.4775,-3.4775,-3.4775,-3.4775,-3.4775,-3.4775,-3.4775,-3.4775,-4.7536,-4.7392,-4.7563,-4.7536,-4.7392,-4.7578,-4.7379,-4.7047,-4.7621,-4.7364,-4.6476,-4.6697,-4.658,-4.5853,-4.5184,-4.456,-4.395,-4.3297,-4.2673,-4.2165,-4.2092,-4.2092,-4.2092,-4.2092,-4.2092,-4.2092,-4.2092,-4.2005,-4.1802,-4.1366,-4.0684,-3.9871,-3.9421,-3.887,-3.8318,-3.8202,-3.8202,-3.8202,-3.8202,-3.8202,-3.8202,-3.8202,-3.8202,-3.8188,-3.8028,-3.7941,-3.7955,-3.7796,-3.7215,-3.6373,-3.6286,-3.6286,-3.6417,-3.6809,-3.7143,-3.7331,-3.7723,-3.7999,-3.8144,-3.8202,-3.8089,-3.7848,-3.7285,-3.6819,-3.6557,-3.5803,-3.5359,-3.5156,-3.4441,-3.3797,-3.3475,-3.2902,-3.2523,-3.2564,-3.2783,-3.326,-3.3886,-3.4438,-3.4775,-3.4775,-3.4775,-3.4775,-3.4775,-3.4775,-3.4775,-3.4775,-3.4775,-3.4775,-3.4775,-3.4775,-3.4775,-3.4775,-3.4775,-3.4775,-3.4775,-3.4775,-3.4775,-3.4775,-3.4775,-3.4775,-3.4775,-3.4775,-3.4775,-3.4775,-3.4775,-3.4775,-3.4775,-3.4775,-3.4775,-3.4775,-3.4775,-3.4775,-3.4775,-3.4775,-3.4775,-4.8157,-4.7946,-4.8198,-4.8141,-4.7946,-4.8183,-4.8099,-4.7946,-4.8407,-4.7988,-4.7076,-4.7119,-4.6785,-4.5853,-4.5184,-4.4574,-4.3964,-4.3297,-4.2673,-4.2165,-4.2092,-4.2092,-4.2092,-4.2092,-4.2092,-4.2092,-4.2092,-4.2092,-4.2034,-4.1686,-4.1033,-4.0191,-3.9755,-3.9117,-3.826,-3.8202,-3.8202,-3.8202,-3.8202,-3.8202,-3.8202,-3.8202,-3.8202,-3.8202,-3.8202,-3.8202,-3.8202,-3.8188,-3.7825,-3.7259,-3.7114,-3.7099,-3.7128,-3.7447,-3.768,-3.7694,-3.8028,-3.8202,-3.8202,-3.8202,-3.8202,-3.8127,-3.7682,-3.7491,-3.7285,-3.6649,-3.6162,-3.6068,-3.5114,-3.4371,-3.3927,-3.3147,-3.2598,-3.2483,-3.285,-3.3329,-3.3945,-3.4246,-3.4534,-3.4679,-3.4775,-3.4775,-3.4775,-3.4775,-3.4775,-3.4775,-3.4775,-3.4775,-3.4775,-3.4775,-3.4775,-3.4775,-3.4775,-3.4775,-3.4775,-3.4775,-3.4775,-3.4775,-3.4775,-3.4775,-3.4775,-3.4775,-3.4775,-3.4775,-3.4775,-3.4775,-3.4775,-3.4775,-3.4775,-3.4775,-3.4775,-3.4775,-3.4775,-3.4775,-3.4775,-4.8641,-4.8157,-4.8764,-4.8656,-4.8324,-4.8738,-4.8903,-4.8984,-4.9486,-4.8959,-4.7876,-4.7819,-4.7076,-4.5896,-4.5184,-4.456,-4.3964,-4.3297,-4.2673,-4.2252,-4.2092,-4.2092,-4.2092,-4.2092,-4.2092,-4.2092,-4.2092,-4.2092,-4.2078,-4.2049,-4.1337,-4.0379,-4.006,-3.9378,-3.8449,-3.8202,-3.8202,-3.8202,-3.8202,-3.8202,-3.8202,-3.8202,-3.8202,-3.8202,-3.8202,-3.8202,-3.8202,-3.8202,-3.813,-3.8173,-3.8202,-3.8086,-3.8115,-3.8173,-3.8173,-3.8144,-3.8159,-3.8202,-3.8202,-3.8202,-3.8202,-3.8165,-3.8165,-3.8202,-3.7962,-3.74,-3.7053,-3.7039,-3.5575,-3.4841,-3.4249,-3.3318,-3.2736,-3.2567,-3.269,-3.3101,-3.3656,-3.3922,-3.4198,-3.4691,-3.4763,-3.4775,-3.4775,-3.4775,-3.4775,-3.4775,-3.4775,-3.4775,-3.4775,-3.4775,-3.4775,-3.4775,-3.4775,-3.4775,-3.4775,-3.4775,-3.4775,-3.4775,-3.4775,-3.4775,-3.4775,-3.4775,-3.4775,-3.4775,-3.4775,-3.4775,-3.4775,-3.4775,-3.4775,-3.4775,-3.4775,-3.4775,-3.4775,-3.4775,-3.4775,-4.9582,-4.9501,-4.9637,-4.9582,-4.9501,-4.9622,-4.9365,-4.8984,-4.9637,-4.8918,-4.7593,-4.7691,-4.7148,-4.5941,-4.5243,-4.456,-4.3979,-4.331,-4.2673,-4.215,-4.2092,-4.2092,-4.2092,-4.2092,-4.2092,-4.2092,-4.2092,-4.2092,-4.2092,-4.199,-4.1424,-4.0307,-4.006,-3.9465,-3.8434,-3.8231,-3.8202,-3.8202,-3.8202,-3.8202,-3.8202,-3.8202,-3.8202,-3.8202,-3.8202,-3.8202,-3.8202,-3.8202,-3.8202,-3.8202,-3.8202,-3.8202,-3.8202,-3.8202,-3.8202,-3.8202,-3.8202,-3.8202,-3.8202,-3.8202,-3.8202,-3.8202,-3.8202,-3.8202,-3.8202,-3.8052,-3.7886,-3.7772,-3.6975,-3.5923,-3.517,-3.4441,-3.3827,-3.3398,-3.2934,-3.269,-3.294,-3.3549,-3.4126,-3.457,-3.4751,-3.4775,-3.4775,-3.4775,-3.4775,-3.4775,-3.4775,-3.4775,-3.4775,-3.4775,-3.4775,-3.4775,-3.4775,-3.4775,-3.4775,-3.4775,-3.4775,-3.4775,-3.4775,-3.4775,-3.4775,-3.4775,-3.4775,-3.4775,-3.4775,-3.4775,-3.4775,-3.4775,-3.4775,-3.4775,-3.4775,-3.4775,-3.4775,-3.4775,-3.4775,-4.9916,-4.9916,-4.9916,-4.9916,-4.9916,-4.9876,-4.9717,-4.9486,-4.9757,-4.9122,-4.8115,-4.8225,-4.7776,-4.6725,-4.5577,-4.4728,-4.4203,-4.3104,-4.2411,-4.2121,-4.2092,-4.2092,-4.2092,-4.2092,-4.2092,-4.2092,-4.2092,-4.2092,-4.2092,-4.202,-4.1584,-4.0612,-4.0278,-3.9639,-3.871,-3.8362,-3.8217,-3.8202,-3.8202,-3.8202,-3.8202,-3.8202,-3.8202,-3.8202,-3.8202,-3.8202,-3.8202,-3.8202,-3.8202,-3.8202,-3.8202,-3.8202,-3.8202,-3.8202,-3.8202,-3.8202,-3.8202,-3.8202,-3.8202,-3.8202,-3.8202,-3.8202,-3.8202,-3.8202,-3.8202,-3.8202,-3.8202,-3.8,-3.7376,-3.6531,-3.5695,-3.5318,-3.4787,-3.4415,-3.3687,-3.3213,-3.3271,-3.3545,-3.3885,-3.4318,-3.4655,-3.4715,-3.4775,-3.4775,-3.4775,-3.4775,-3.4775,-3.4775,-3.4775,-3.4775,-3.4775,-3.4775,-3.4775,-3.4775,-3.4775,-3.4775,-3.4775,-3.4775,-3.4775,-3.4775,-3.4775,-3.4775,-3.4775,-3.4775,-3.4775,-3.4775,-3.4775,-3.4775,-3.4727,-3.4763,-3.4763,-3.4763,-3.4775,-3.4775,-3.4775,-4.9916,-4.9916,-4.9916,-4.9916,-4.9916,-4.9916,-4.9876,-4.9876,-4.9916,-4.9461,-4.8969,-4.8887,-4.8392,-4.7531,-4.5831,-4.4968,-4.4057,-4.3065,-4.2121,-4.2107,-4.2092,-4.2092,-4.2092,-4.2092,-4.2092,-4.2092,-4.2092,-4.2092,-4.2092,-4.2049,-4.17,-4.1076,-4.0583,-3.9886,-3.9204,-3.8696,-3.8347,-3.8246,-3.8202,-3.8202,-3.8202,-3.8202,-3.8202,-3.8202,-3.8202,-3.8202,-3.8202,-3.8202,-3.8202,-3.8202,-3.8202,-3.8202,-3.8202,-3.8202,-3.8202,-3.8202,-3.8202,-3.8202,-3.8202,-3.8202,-3.8202,-3.8202,-3.8202,-3.8202,-3.8202,-3.8202,-3.8202,-3.8,-3.7567,-3.6961,-3.6094,-3.5869,-3.5762,-3.5386,-3.4733,-3.4205,-3.3926,-3.3597,-3.3762,-3.3982,-3.4474,-3.4751,-3.4775,-3.4775,-3.4775,-3.4775,-3.4775,-3.4775,-3.4775,-3.4775,-3.4775,-3.4775,-3.4775,-3.4775,-3.4775,-3.4775,-3.4775,-3.4775,-3.4775,-3.4775,-3.4775,-3.4775,-3.4775,-3.4775,-3.4775,-3.4727,-3.4619,-3.4498,-3.4522,-3.4655,-3.4643,-3.4546,-3.4619,-3.4751,-3.4775,-4.9916,-4.9916,-4.9916,-4.9916,-4.9916,-4.9916,-4.9916,-4.9916,-4.9916,-4.9526,-4.8984,-4.8887,-4.8599,-4.7597,-4.5885,-4.4228,-4.3101,-4.2344,-4.2119,-4.2092,-4.2092,-4.2092,-4.2092,-4.2092,-4.2092,-4.2092,-4.2092,-4.2092,-4.2092,-4.2049,-4.1787,-4.1207,-4.0945,-4.035,-3.9509,-3.903,-3.8667,-3.826,-3.8202,-3.8202,-3.8202,-3.8202,-3.8202,-3.8202,-3.8202,-3.8202,-3.8202,-3.8202,-3.8202,-3.8202,-3.8202,-3.8202,-3.8202,-3.8202,-3.8202,-3.8202,-3.8202,-3.8202,-3.8202,-3.8202,-3.8202,-3.8202,-3.8202,-3.8202,-3.8202,-3.8202,-3.8202,-3.8165,-3.8089,-3.7848,-3.7772,-3.7078,-3.6649,-3.6241,-3.5642,-3.4731,-3.3935,-3.3784,-3.3892,-3.3916,-3.439,-3.4703,-3.4643,-3.4631,-3.4679,-3.4715,-3.4775,-3.4775,-3.4775,-3.4775,-3.4775,-3.4775,-3.4775,-3.4775,-3.4775,-3.4775,-3.4775,-3.4775,-3.4775,-3.4775,-3.4775,-3.4775,-3.4775,-3.4775,-3.4655,-3.4522,-3.439,-3.4234,-3.4126,-3.4174,-3.4186,-3.4282,-3.4462,-3.4619,-3.4763,-4.9916,-4.9916,-4.9916,-4.9916,-4.9916,-4.9916,-4.9916,-4.9916,-4.9876,-4.9717,-4.9486,-4.9405,-4.9244,-4.8465,-4.6859,-4.4744,-4.305,-4.2581,-4.2392,-4.2201,-4.2092,-4.2092,-4.2133,-4.2133,-4.2092,-4.2092,-4.2092,-4.2092,-4.2092,-4.2092,-4.1889,-4.1628,-4.1294,-4.0597,-3.9799,-3.9334,-3.887,-3.8376,-3.8217,-3.8202,-3.8202,-3.8202,-3.8202,-3.8202,-3.8202,-3.8202,-3.8202,-3.8202,-3.8202,-3.8202,-3.8202,-3.8202,-3.8202,-3.8202,-3.8202,-3.8202,-3.8202,-3.8202,-3.8202,-3.8202,-3.8202,-3.8202,-3.8202,-3.8202,-3.8202,-3.8202,-3.8202,-3.8202,-3.8202,-3.8202,-3.8127,-3.7758,-3.7567,-3.7337,-3.6649,-3.5628,-3.4714,-3.4473,-3.4104,-3.3778,-3.376,-3.4005,-3.433,-3.4378,-3.4522,-3.4631,-3.4727,-3.4763,-3.4751,-3.4775,-3.4775,-3.4775,-3.4775,-3.4775,-3.4775,-3.4775,-3.4775,-3.4775,-3.4775,-3.4775,-3.4775,-3.4775,-3.4775,-3.4775,-3.4607,-3.4234,-3.4078,-3.3933,-3.3789,-3.3681,-3.3826,-3.403,-3.4294,-3.4498,-3.4619,-4.9916,-4.9916,-4.9916,-4.9916,-4.9916,-4.9916,-4.9916,-4.9916,-4.9916,-4.9876,-4.9916,-4.9876,-4.9876,-4.9339,-4.7691,-4.5528,-4.3295,-4.318,-4.293,-4.2662,-4.2596,-4.2514,-4.2474,-4.2447,-4.2514,-4.2392,-4.2351,-4.2216,-4.2092,-4.2092,-4.2092,-4.1918,-4.1482,-4.096,-4.0336,-3.9755,-3.9059,-3.858,-3.8231,-3.8202,-3.8202,-3.8202,-3.8202,-3.8202,-3.8202,-3.8202,-3.8202,-3.8202,-3.8202,-3.8202,-3.8202,-3.8202,-3.8202,-3.8202,-3.8202,-3.8202,-3.8202,-3.8202,-3.8202,-3.8202,-3.8202,-3.8202,-3.8202,-3.8202,-3.8202,-3.8202,-3.8202,-3.8202,-3.8202,-3.8202,-3.8202,-3.8202,-3.8165,-3.8052,-3.7491,-3.6716,-3.5575,-3.4813,-3.4088,-3.3714,-3.3338,-3.3431,-3.3916,-3.3958,-3.4054,-3.4318,-3.4426,-3.4667,-3.4667,-3.4751,-3.4775,-3.4775,-3.4775,-3.4775,-3.4775,-3.4775,-3.4775,-3.4775,-3.4775,-3.4775,-3.4775,-3.4775,-3.4727,-3.4595,-3.4102,-3.3766,-3.3705,-3.3525,-3.3272,-3.3236,-3.3478,-3.3706,-3.3885,-3.415,-3.439,-4.9916,-4.9916,-4.9916,-4.9916,-4.9916,-4.9916,-4.9916,-4.9916,-4.9916,-4.9916,-4.9955,-4.99,-4.99,-4.9284,-4.777,-4.5733,-4.4339,-4.3771,-4.3693,-4.3472,-4.3472,-4.3472,-4.3615,-4.3693,-4.3195,-4.2835,-4.2795,-4.2541,-4.2201,-4.2092,-4.2092,-4.2034,-4.1932,-4.1599,-4.0844,-4.0176,-3.9697,-3.9073,-3.8492,-3.8202,-3.8202,-3.8202,-3.8202,-3.8202,-3.8202,-3.8202,-3.8202,-3.8202,-3.8202,-3.8202,-3.8202,-3.8202,-3.8202,-3.8202,-3.8202,-3.8202,-3.8202,-3.8202,-3.8202,-3.8202,-3.8202,-3.8202,-3.8202,-3.8202,-3.8202,-3.8202,-3.8202,-3.8202,-3.8202,-3.8202,-3.8202,-3.8202,-3.8202,-3.8202,-3.8,-3.6961,-3.5884,-3.5629,-3.4829,-3.3939,-3.3652,-3.3526,-3.3677,-3.3586,-3.3537,-3.3873,-3.415,-3.4378,-3.4595,-3.4679,-3.4763,-3.4775,-3.4775,-3.4775,-3.4775,-3.4775,-3.4775,-3.4775,-3.4775,-3.4775,-3.4775,-3.4727,-3.4474,-3.4246,-3.3754,-3.3404,-3.3272,-3.3044,-3.2731,-3.2719,-3.2935,-3.314,-3.332,-3.3693,-3.4078,-5.0292,-4.9916,-5.0136,-5.0113,-4.9931,-4.9916,-5.0034,-5.0214,-5.0253,-5.0253,-5.0253,-5.0214,-4.9755,-4.866,-4.7336,-4.5948,-4.4679,-4.4412,-4.4182,-4.3989,-4.3966,-4.3927,-4.3849,-4.3849,-4.356,-4.314,-4.2955,-4.2622,-4.2284,-4.2092,-4.2092,-4.2092,-4.2063,-4.1729,-4.1163,-4.0452,-3.9799,-3.9175,-3.8594,-3.8231,-3.8202,-3.8202,-3.8202,-3.8202,-3.8202,-3.8202,-3.8202,-3.8202,-3.8202,-3.8202,-3.8202,-3.8202,-3.8202,-3.8202,-3.8202,-3.8202,-3.8202,-3.8202,-3.8202,-3.8202,-3.8202,-3.8202,-3.8202,-3.8202,-3.8202,-3.8202,-3.8202,-3.8202,-3.8202,-3.8202,-3.8202,-3.8202,-3.8202,-3.8202,-3.8202,-3.7438,-3.6557,-3.636,-3.5857,-3.4883,-3.405,-3.4002,-3.3796,-3.3441,-3.3421,-3.3546,-3.3848,-3.4102,-3.439,-3.4583,-3.4679,-3.4775,-3.4775,-3.4775,-3.4775,-3.4775,-3.4775,-3.4775,-3.4775,-3.4775,-3.4775,-3.4667,-3.4426,-3.4066,-3.3681,-3.3308,-3.2947,-3.2539,-3.2178,-3.2202,-3.2298,-3.2563,-3.2839,-3.3284,-3.3717,-5.0854,-5.0253,-5.0525,-5.047,-5.0214,-5.0191,-5.037,-5.0624,-5.0525,-5.0486,-5.0422,-5.0131,-4.9104,-4.7842,-4.7034,-4.6143,-4.5083,-4.5067,-4.4805,-4.4503,-4.4351,-4.4312,-4.4259,-4.409,-4.3756,-4.3021,-4.2996,-4.2662,-4.2284,-4.2092,-4.2092,-4.2092,-4.2092,-4.186,-4.1294,-4.051,-3.9741,-3.887,-3.8434,-3.8217,-3.8202,-3.8202,-3.8202,-3.8202,-3.8202,-3.8202,-3.8202,-3.8202,-3.8202,-3.8202,-3.8202,-3.8202,-3.8202,-3.8202,-3.8202,-3.8202,-3.8202,-3.8202,-3.8202,-3.8202,-3.8202,-3.8202,-3.8202,-3.8202,-3.8202,-3.8202,-3.8202,-3.8202,-3.8202,-3.8202,-3.8202,-3.8202,-3.8202,-3.8202,-3.8202,-3.7606,-3.713,-3.6844,-3.6399,-3.5453,-3.4815,-3.4733,-3.4406,-3.3613,-3.3341,-3.3351,-3.3532,-3.38,-3.415,-3.4511,-3.4703,-3.4823,-3.4823,-3.4823,-3.4775,-3.4775,-3.4775,-3.4775,-3.4775,-3.4775,-3.4775,-3.4643,-3.4438,-3.4066,-3.3561,-3.2984,-3.2478,-3.209,-3.1717,-3.1898,-3.2022,-3.2142,-3.2418,-3.2887,-3.3404,-5.145,-5.1043,-5.1027,-5.1043,-5.0951,-5.0989,-5.0989,-5.0968,-5.0663,-5.0531,-5.0333,-4.9467,-4.8288,-4.7241,-4.6919,-4.6418,-4.5735,-4.5735,-4.5594,-4.5609,-4.5625,-4.521,-4.4918,-4.4601,-4.422,-4.3324,-4.326,-4.2875,-4.2284,-4.2242,-4.2175,-4.2092,-4.2092,-4.2063,-4.1642,-4.08,-3.9654,-3.8841,-3.8391,-3.8275,-3.8231,-3.8202,-3.8202,-3.8202,-3.8202,-3.8202,-3.8202,-3.8202,-3.8202,-3.8202,-3.8202,-3.8202,-3.8202,-3.8202,-3.8202,-3.8202,-3.8202,-3.8202,-3.8202,-3.8202,-3.8202,-3.8202,-3.8202,-3.8202,-3.8202,-3.8202,-3.8202,-3.8202,-3.8202,-3.8202,-3.8202,-3.8202,-3.8202,-3.8202,-3.8165,-3.7848,-3.7453,-3.7208,-3.6674,-3.5895,-3.5655,-3.5735,-3.5264,-3.4541,-3.3617,-3.3518,-3.3482,-3.372,-3.4256,-3.4595,-3.4739,-3.4872,-3.4823,-3.4823,-3.4823,-3.4775,-3.4775,-3.4775,-3.4775,-3.4775,-3.4775,-3.4607,-3.4498,-3.3861,-3.3308,-3.2659,-3.2094,-3.1886,-3.1705,-3.1705,-3.1801,-3.1946,-3.2238,-3.2731,-3.3284,-5.2069,-5.1908,-5.1908,-5.1598,-5.1102,-5.1102,-5.1102,-5.1065,-5.093,-5.0596,-5.0145,-4.8902,-4.8011,-4.7481,-4.6968,-4.6763,-4.6471,-4.6175,-4.612,-4.6028,-4.5884,-4.5646,-4.5431,-4.5231,-4.4971,-4.4205,-4.4013,-4.356,-4.2769,-4.2622,-4.2366,-4.2242,-4.2092,-4.2092,-4.1715,-4.112,-4.0046,-3.9146,-3.8754,-3.8667,-3.8231,-3.8202,-3.8202,-3.8202,-3.8202,-3.8202,-3.8202,-3.8202,-3.8202,-3.8202,-3.8202,-3.8202,-3.8202,-3.8202,-3.8202,-3.8202,-3.8202,-3.8202,-3.8202,-3.8202,-3.8202,-3.8202,-3.8202,-3.8202,-3.8202,-3.8202,-3.8202,-3.8202,-3.8202,-3.8202,-3.8202,-3.8202,-3.8202,-3.8202,-3.8127,-3.7924,-3.7772,-3.7567,-3.7453,-3.683,-3.6908,-3.7039,-3.6346,-3.5561,-3.4546,-3.3763,-3.3662,-3.3707,-3.4297,-3.4774,-3.4981,-3.5017,-3.5017,-3.492,-3.4872,-3.4823,-3.4823,-3.4775,-3.4775,-3.4775,-3.4775,-3.4763,-3.451,-3.3825,-3.3188,-3.2707,-3.225,-3.1886,-3.1705,-3.1705,-3.1705,-3.1753,-3.2151,-3.2587,-3.314,-5.2409,-5.2376,-5.2177,-5.1872,-5.1492,-5.1471,-5.134,-5.1161,-5.1018,-5.0334,-4.9402,-4.8314,-4.7764,-4.7489,-4.7168,-4.6874,-4.6754,-4.6477,-4.6337,-4.6175,-4.5972,-4.5719,-4.5573,-4.5358,-4.4955,-4.4677,-4.4472,-4.3873,-4.2981,-4.2996,-4.2622,-4.2242,-4.2092,-4.2092,-4.1932,-4.1395,-4.0554,-3.9726,-3.9218,-3.9044,-3.8551,-3.8304,-3.8202,-3.8202,-3.8202,-3.8202,-3.8202,-3.8202,-3.8202,-3.8202,-3.8202,-3.8202,-3.8202,-3.8202,-3.8202,-3.8202,-3.8202,-3.8202,-3.8202,-3.8202,-3.8202,-3.8202,-3.8202,-3.8202,-3.8202,-3.8202,-3.8202,-3.8202,-3.8202,-3.8202,-3.8202,-3.8202,-3.8202,-3.8202,-3.8202,-3.8089,-3.8089,-3.7962,-3.8,-3.7872,-3.7924,-3.7772,-3.7078,-3.6175,-3.4886,-3.4088,-3.3945,-3.4059,-3.4521,-3.4988,-3.533,-3.532,-3.5211,-3.5066,-3.4969,-3.4872,-3.4823,-3.4775,-3.4775,-3.4775,-3.4775,-3.4775,-3.4558,-3.397,-3.3368,-3.2863,-3.2394,-3.1994,-3.1801,-3.1705,-3.1705,-3.1717,-3.2018,-3.25,-3.2996,-5.2343,-5.2326,-5.1614,-5.1694,-5.2084,-5.2305,-5.1839,-5.1051,-5.0687,-4.9662,-4.8356,-4.7931,-4.7594,-4.7207,-4.7131,-4.7098,-4.6996,-4.6633,-4.6407,-4.6317,-4.6064,-4.5505,-4.5194,-4.4977,-4.5008,-4.4143,-4.4066,-4.3912,-4.3101,-4.3021,-4.2662,-4.2242,-4.2092,-4.2092,-4.2034,-4.1453,-4.0771,-4.0118,-3.9567,-3.9363,-3.8986,-3.8565,-3.8391,-3.8202,-3.8202,-3.8202,-3.8202,-3.8202,-3.8202,-3.8202,-3.8202,-3.8202,-3.8202,-3.8202,-3.8202,-3.8202,-3.8202,-3.8202,-3.8202,-3.8202,-3.8202,-3.8202,-3.8202,-3.8202,-3.8202,-3.8202,-3.8202,-3.8202,-3.8202,-3.8202,-3.8202,-3.8202,-3.8202,-3.8202,-3.8202,-3.8202,-3.8202,-3.8202,-3.8202,-3.8202,-3.8202,-3.8089,-3.7515,-3.6679,-3.5254,-3.4456,-3.4247,-3.4412,-3.4876,-3.532,-3.569,-3.5608,-3.5464,-3.5271,-3.5126,-3.492,-3.4823,-3.4823,-3.4775,-3.4775,-3.4775,-3.4775,-3.4462,-3.403,-3.3645,-3.32,-3.2623,-3.2046,-3.1898,-3.1705,-3.1705,-3.1777,-3.2042,-3.2415,-3.2971,-5.0949,-5.0916,-5.0667,-5.0717,-5.0932,-5.0932,-5.0663,-5.0122,-4.952,-4.8873,-4.8364,-4.8076,-4.79,-4.7654,-4.7588,-4.7588,-4.7504,-4.7218,-4.6997,-4.6652,-4.6333,-4.592,-4.5562,-4.5379,-4.5321,-4.5098,-4.4768,-4.4182,-4.3615,-4.3339,-4.2688,-4.2242,-4.2133,-4.2092,-4.2063,-4.1773,-4.1439,-4.0873,-4.0495,-4.0118,-3.9305,-3.8971,-3.8652,-3.8275,-3.8246,-3.8202,-3.8202,-3.8202,-3.8202,-3.8202,-3.8202,-3.8202,-3.8202,-3.8202,-3.8202,-3.8202,-3.8202,-3.8202,-3.8202,-3.8202,-3.8202,-3.8202,-3.8202,-3.8202,-3.8202,-3.8202,-3.8202,-3.8202,-3.8202,-3.8202,-3.8202,-3.8202,-3.8202,-3.8202,-3.8202,-3.8202,-3.8202,-3.8202,-3.8202,-3.8202,-3.8202,-3.781,-3.7285,-3.7046,-3.5872,-3.5053,-3.4838,-3.4856,-3.5176,-3.5709,-3.6108,-3.5943,-3.5764,-3.5524,-3.5307,-3.5005,-3.4788,-3.4739,-3.4751,-3.4775,-3.4775,-3.4775,-3.4522,-3.4138,-3.3873,-3.3537,-3.2767,-3.2106,-3.1874,-3.1705,-3.1705,-3.1777,-3.1982,-3.2442,-3.3104,-5.022,-5.0187,-4.9939,-4.9839,-4.9872,-5.0104,-4.99,-4.9365,-4.8673,-4.831,-4.8263,-4.8084,-4.7985,-4.7985,-4.8001,-4.8001,-4.7968,-4.7605,-4.7337,-4.6997,-4.6703,-4.6317,-4.6048,-4.5956,-4.5812,-4.5719,-4.5358,-4.4843,-4.422,-4.3834,-4.322,-4.2622,-4.2216,-4.2092,-4.2078,-4.1976,-4.1874,-4.141,-4.112,-4.067,-3.9987,-3.9479,-3.9,-3.8638,-3.8391,-3.8202,-3.8202,-3.8202,-3.8202,-3.8202,-3.8202,-3.8202,-3.8202,-3.8202,-3.8202,-3.8202,-3.8202,-3.8202,-3.8202,-3.8202,-3.8202,-3.8202,-3.8202,-3.8202,-3.8202,-3.8202,-3.8202,-3.8202,-3.8202,-3.8202,-3.8202,-3.8202,-3.8202,-3.8202,-3.8202,-3.8202,-3.8202,-3.8202,-3.8202,-3.8202,-3.8165,-3.7644,-3.7183,-3.6959,-3.6478,-3.59,-3.5422,-3.5392,-3.5336,-3.5667,-3.5972,-3.5868,-3.5605,-3.5234,-3.5034,-3.4954,-3.4763,-3.4703,-3.4776,-3.486,-3.4775,-3.4763,-3.4522,-3.4306,-3.4042,-3.3585,-3.2743,-3.2199,-3.1862,-3.1705,-3.1705,-3.1801,-3.1901,-3.2515,-3.3236,-5.0137,-5.0004,-4.9375,-4.9077,-4.9193,-4.9723,-4.9607,-4.8994,-4.8299,-4.8034,-4.8034,-4.8018,-4.8001,-4.8001,-4.8001,-4.8001,-4.7968,-4.7638,-4.7454,-4.7303,-4.7014,-4.6652,-4.6442,-4.6317,-4.6156,-4.5936,-4.5594,-4.5179,-4.4774,-4.4167,-4.36,-4.3036,-4.2351,-4.216,-4.2092,-4.2078,-4.202,-4.1802,-4.1526,-4.1134,-4.0626,-3.9842,-3.9363,-3.8942,-3.8565,-3.8275,-3.8202,-3.8202,-3.8202,-3.8202,-3.8202,-3.8202,-3.8202,-3.8202,-3.8202,-3.8202,-3.8202,-3.8202,-3.8202,-3.8202,-3.8202,-3.8202,-3.8202,-3.8202,-3.8202,-3.8202,-3.8202,-3.8202,-3.8202,-3.8202,-3.8202,-3.8202,-3.8202,-3.8202,-3.8202,-3.8202,-3.8202,-3.8202,-3.8202,-3.8202,-3.8202,-3.7886,-3.7414,-3.7113,-3.7018,-3.632,-3.57,-3.5138,-3.506,-3.4906,-3.5232,-3.542,-3.5135,-3.481,-3.4678,-3.4787,-3.4782,-3.4712,-3.4908,-3.5017,-3.492,-3.492,-3.4897,-3.4703,-3.4305,-3.3716,-3.3061,-3.2376,-3.1834,-3.1705,-3.1705,-3.197,-3.2106,-3.2707,-3.338,-4.8647,-4.8614,-4.8398,-4.8315,-4.8349,-4.8564,-4.8514,-4.8282,-4.8067,-4.8001,-4.8001,-4.8001,-4.8001,-4.8001,-4.8001,-4.8001,-4.7968,-4.7853,-4.7621,-4.7454,-4.732,-4.7032,-4.6842,-4.6703,-4.6477,-4.6124,-4.5765,-4.54,-4.4737,-4.419,-4.3624,-4.2941,-4.2459,-4.2242,-4.2092,-4.2092,-4.2092,-4.2034,-4.1816,-4.1555,-4.1091,-4.0307,-3.977,-3.9233,-3.8652,-3.8347,-3.8217,-3.8202,-3.8202,-3.8202,-3.8202,-3.8202,-3.8202,-3.8202,-3.8202,-3.8202,-3.8202,-3.8202,-3.8202,-3.8202,-3.8202,-3.8202,-3.8202,-3.8202,-3.8202,-3.8202,-3.8202,-3.8202,-3.8202,-3.8202,-3.8202,-3.8202,-3.8202,-3.8202,-3.8202,-3.8202,-3.8202,-3.8202,-3.8202,-3.8202,-3.8202,-3.8127,-3.7644,-3.7658,-3.7483,-3.6672,-3.5945,-3.5329,-3.4745,-3.4591,-3.458,-3.4793,-3.4673,-3.435,-3.4608,-3.47,-3.4745,-3.4801,-3.5038,-3.5247,-3.5271,-3.532,-3.532,-3.51,-3.4603,-3.4082,-3.3477,-3.2777,-3.2031,-3.1773,-3.1741,-3.2066,-3.2382,-3.2851,-3.3464,-4.8001,-4.8001,-4.8001,-4.8001,-4.8001,-4.8001,-4.8001,-4.8001,-4.8001,-4.8001,-4.8001,-4.8001,-4.8001,-4.8001,-4.8001,-4.8001,-4.8001,-4.7968,-4.7853,-4.7737,-4.7588,-4.7387,-4.7235,-4.7082,-4.6876,-4.6512,-4.6179,-4.5929,-4.5132,-4.4358,-4.3717,-4.3339,-4.2769,-4.2351,-4.216,-4.2092,-4.2092,-4.2092,-4.2005,-4.1831,-4.1381,-4.0815,-4.0205,-3.9538,-3.8913,-3.8536,-3.8231,-3.8202,-3.8202,-3.8202,-3.8202,-3.8202,-3.8202,-3.8202,-3.8202,-3.8202,-3.8202,-3.8202,-3.8202,-3.8202,-3.8202,-3.8202,-3.8202,-3.8202,-3.8202,-3.8202,-3.8202,-3.8202,-3.8202,-3.8202,-3.8202,-3.8202,-3.8202,-3.8202,-3.8202,-3.8202,-3.8202,-3.8202,-3.8202,-3.8202,-3.8202,-3.8202,-3.8165,-3.8202,-3.8005,-3.7292,-3.6412,-3.553,-3.48,-3.4224,-3.4174,-3.4267,-3.4129,-3.3921,-3.4257,-3.4508,-3.4594,-3.4743,-3.518,-3.539,-3.5571,-3.562,-3.5512,-3.5218,-3.4885,-3.4301,-3.3649,-3.2962,-3.2277,-3.2019,-3.1765,-3.203,-3.2274,-3.2599,-3.3284,-4.8001,-4.8001,-4.8001,-4.8001,-4.8001,-4.8001,-4.8001,-4.8001,-4.8001,-4.8001,-4.8001,-4.8001,-4.8001,-4.8001,-4.8001,-4.8001,-4.8001,-4.8001,-4.8001,-4.7968,-4.7919,-4.7721,-4.7538,-4.7421,-4.7252,-4.7064,-4.6807,-4.6461,-4.6036,-4.5132,-4.4243,-4.395,-4.3379,-4.293,-4.2581,-4.2351,-4.2366,-4.2325,-4.2201,-4.199,-4.186,-4.1395,-4.0786,-4.0089,-3.945,-3.8899,-3.8391,-3.8202,-3.8202,-3.8202,-3.8202,-3.8202,-3.8202,-3.8202,-3.8202,-3.8202,-3.8202,-3.8202,-3.8202,-3.8202,-3.8202,-3.8202,-3.8202,-3.8202,-3.8202,-3.8202,-3.8202,-3.8202,-3.8202,-3.8202,-3.8202,-3.8202,-3.8202,-3.8202,-3.8202,-3.8202,-3.8202,-3.8202,-3.8202,-3.8202,-3.8202,-3.8202,-3.8202,-3.8202,-3.7924,-3.7586,-3.7031,-3.5964,-3.5003,-3.4189,-3.3964,-3.3985,-3.3696,-3.3621,-3.3803,-3.4058,-3.4329,-3.4607,-3.5194,-3.5627,-3.5858,-3.5787,-3.5692,-3.5332,-3.4969,-3.4354,-3.3726,-3.302,-3.2374,-3.197,-3.1846,-3.1994,-3.2202,-3.243,-3.3104,-4.8001,-4.8001,-4.8001,-4.8001,-4.8001,-4.8001,-4.8001,-4.8001,-4.8001,-4.8001,-4.8001,-4.8001,-4.8001,-4.8001,-4.8001,-4.8001,-4.8001,-4.8001,-4.8001,-4.8001,-4.8001,-4.7968,-4.7853,-4.7787,-4.7605,-4.7387,-4.7168,-4.6929,-4.6356,-4.5463,-4.4759,-4.451,-4.3982,-4.347,-4.326,-4.2981,-4.268,-4.2769,-4.2474,-4.2281,-4.2109,-4.1491,-4.0786,-4.0157,-3.9518,-3.8884,-3.8434,-3.8202,-3.8202,-3.8202,-3.8202,-3.8202,-3.8202,-3.8202,-3.8202,-3.8202,-3.8202,-3.8202,-3.8202,-3.8202,-3.8202,-3.8202,-3.8202,-3.8202,-3.8202,-3.8202,-3.8202,-3.8202,-3.8202,-3.8202,-3.8202,-3.8202,-3.8202,-3.8202,-3.8202,-3.8202,-3.8202,-3.8202,-3.8202,-3.8202,-3.8202,-3.8202,-3.8202,-3.8052,-3.781,-3.7453,-3.7106,-3.6348,-3.5277,-3.4463,-3.4098,-3.396,-3.3393,-3.3307,-3.347,-3.3865,-3.4245,-3.4694,-3.5273,-3.5684,-3.6118,-3.6061,-3.5963,-3.5497,-3.5023,-3.4445,-3.3781,-3.2965,-3.2404,-3.2062,-3.1942,-3.2055,-3.2075,-3.2268,-3.2993,-4.8001,-4.8001,-4.8001,-4.8001,-4.8001,-4.8001,-4.8001,-4.8001,-4.8001,-4.8001,-4.8001,-4.8001,-4.8001,-4.8001,-4.8001,-4.8001,-4.8001,-4.8001,-4.8001,-4.8001,-4.8001,-4.8001,-4.8001,-4.8001,-4.7886,-4.7671,-4.7454,-4.71,-4.6636,-4.6214,-4.5697,-4.5069,-4.4476,-4.4097,-4.3929,-4.3365,-4.3193,-4.3379,-4.2996,-4.2757,-4.2434,-4.1638,-4.0802,-4.0091,-3.9498,-3.8911,-3.8449,-3.8202,-3.8202,-3.8202,-3.8202,-3.8202,-3.8202,-3.8202,-3.8202,-3.8202,-3.8202,-3.8202,-3.8202,-3.8202,-3.8202,-3.8202,-3.8202,-3.8202,-3.8202,-3.8202,-3.8202,-3.8202,-3.8202,-3.8202,-3.8202,-3.8202,-3.8202,-3.8202,-3.8202,-3.8202,-3.8202,-3.8202,-3.8202,-3.8202,-3.8202,-3.8202,-3.8202,-3.8202,-3.7962,-3.781,-3.7376,-3.6936,-3.587,-3.4991,-3.462,-3.4092,-3.3654,-3.321,-3.3244,-3.3809,-3.443,-3.4868,-3.5316,-3.5796,-3.62,-3.632,-3.6194,-3.552,-3.4986,-3.4574,-3.3879,-3.3063,-3.2623,-3.2306,-3.2174,-3.2167,-3.2144,-3.22,-3.2832,-4.7669,-4.7736,-4.7802,-4.7852,-4.7885,-4.7968,-4.8001,-4.8001,-4.8001,-4.8001,-4.8001,-4.8001,-4.8001,-4.8001,-4.8001,-4.8001,-4.8001,-4.8001,-4.8001,-4.8001,-4.8001,-4.8001,-4.8001,-4.8001,-4.7935,-4.782,-4.7555,-4.7438,-4.722,-4.6775,-4.6186,-4.5491,-4.5033,-4.4559,-4.4079,-4.3754,-4.3769,-4.4021,-4.3859,-4.3571,-4.2844,-4.1932,-4.1098,-4.0317,-3.9597,-3.8978,-3.8533,-3.824,-3.824,-3.8202,-3.8202,-3.8202,-3.8202,-3.8202,-3.8202,-3.8202,-3.8202,-3.8202,-3.8202,-3.8202,-3.8202,-3.8202,-3.8202,-3.8202,-3.8202,-3.8202,-3.8202,-3.8202,-3.8202,-3.8202,-3.8202,-3.8202,-3.8202,-3.8202,-3.8202,-3.8202,-3.8202,-3.8202,-3.8202,-3.8202,-3.8202,-3.8202,-3.8202,-3.8202,-3.8127,-3.8,-3.7734,-3.7285,-3.6741,-3.6056,-3.5521,-3.4841,-3.4163,-3.3781,-3.3449,-3.3864,-3.4629,-3.4864,-3.5278,-3.5843,-3.6216,-3.5906,-3.5629,-3.529,-3.4773,-3.434,-3.3901,-3.3195,-3.2841,-3.2524,-3.235,-3.2262,-3.2303,-3.241,-3.2759,-4.6212,-4.6262,-4.6841,-4.7123,-4.7189,-4.7719,-4.8001,-4.8001,-4.8001,-4.8001,-4.8001,-4.8001,-4.8001,-4.8001,-4.8001,-4.8001,-4.8001,-4.8001,-4.8001,-4.8001,-4.8001,-4.8001,-4.8001,-4.8001,-4.8001,-4.7853,-4.7671,-4.7438,-4.7488,-4.7134,-4.6534,-4.5743,-4.6322,-4.5993,-4.5453,-4.5179,-4.5034,-4.5026,-4.4606,-4.4262,-4.3635,-4.2795,-4.1881,-4.1025,-4.0174,-3.9565,-3.9025,-3.8441,-3.8277,-3.8202,-3.8202,-3.8202,-3.8202,-3.8202,-3.8202,-3.8202,-3.8202,-3.8202,-3.8202,-3.8202,-3.8202,-3.8202,-3.8202,-3.8202,-3.8202,-3.8202,-3.8202,-3.8202,-3.8202,-3.8202,-3.8202,-3.8202,-3.8202,-3.8202,-3.8202,-3.8202,-3.8202,-3.8202,-3.8202,-3.8202,-3.8202,-3.8202,-3.8202,-3.8202,-3.8202,-3.8127,-3.8127,-3.7644,-3.7169,-3.6752,-3.6385,-3.5722,-3.4965,-3.4468,-3.4173,-3.4298,-3.4809,-3.4958,-3.5094,-3.5491,-3.5542,-3.5203,-3.4914,-3.4655,-3.4361,-3.3916,-3.3477,-3.3177,-3.2965,-3.2661,-3.2487,-3.2381,-3.2442,-3.2526,-3.2816]},{"header":{"parameterUnit":"m.s-1","parameterCategory":1,"la1":31.0,"la2":29.5877,"lo1":-88.7671,"lo2":-86.6584,"dy":0.0162,"dx":0.0185,"nx":115,"ny":88,"refTime":"2024-06-19T12:00:00:Z","depth":0,"parameterNumber":3,"parameterNumberName":"V-component_of_WINDS"},"data":[0.0,0.0,0.0,0.0,0.0,0.0,0.0,0.0,0.0,0.0,0.0,0.0,0.0,0.0,0.0,0.0,0.0,0.0,0.0,0.0,0.0,0.0,0.0,0.0,0.0,0.0,0.0,0.0,0.0,0.0,0.0,0.0,0.0,0.0,0.0,0.0,0.0,0.0,0.0,0.0,0.0,0.0,0.0,0.0,0.0,0.0,0.0,0.0,0.0,0.0,0.0,0.0,0.0,0.0,0.0,0.0,0.0,0.0,0.0,0.0,0.0,0.0,0.0,0.0,0.0,0.0,0.0,0.0,0.0,0.0,0.0,0.0,0.0,0.0,0.0,0.0,0.0,0.0,0.0,0.0,0.0,0.0,0.0,0.0,0.0,0.0,0.0,0.0,0.0,0.0,0.0,0.0,0.0,0.0,0.0,0.0,0.0,0.0,0.0,0.0,0.0,0.0,0.0,0.0,0.0,0.0,0.0,0.0,0.0,0.0,0.0,0.0,0.0,0.0,0.0,0.0,0.0,0.0,0.0,0.0,0.0,0.0,0.0,0.0,0.0,0.0,0.0,0.0,0.0,0.0,0.0,0.0,0.0,0.0,0.0,0.0,0.0,0.0,0.0,0.0,0.0,0.0,0.0,0.0,0.0,0.0,0.0,0.0,0.0,0.0,0.0,0.0,0.0,0.0,0.0,0.0,0.0,0.0,0.0,0.0,0.0,0.0,0.0,0.0,0.0,0.0,0.0,0.0,0.0,0.0,0.0,0.0,0.0,0.0,0.0,0.0,0.0,0.0,0.0,0.0,0.0,0.0,0.0,0.0,0.0,0.0,0.0,0.0,0.0,0.0,0.0,0.0,0.0,0.0,0.0,0.0,0.0,0.0,0.0,0.0,0.0,0.0,0.0,0.0,0.0,0.0,0.0,0.0,0.0,0.0,0.0,0.0,0.0,0.0,0.0,0.0,0.0,0.0,0.0,0.0,0.0,0.0,0.0,0.0,0.0,0.0,0.0,0.0,0.0,0.0,0.0,0.0,0.0,0.0,0.0,0.0,0.0,0.0,0.0,0.0,0.0,0.0,0.0,0.0,0.0,0.0,0.0,0.0,0.0,0.0,0.0,0.0,0.0,0.0,0.0,0.0,0.0,0.0,0.0,0.0,0.0,0.0,0.0,0.0,0.0,0.0,0.0,0.0,0.0,0.0,0.0,0.0,0.0,0.0,0.0,0.0,0.0,0.0,0.0,0.0,0.0,0.0,0.0,0.0,0.0,0.0,0.0,0.0,0.0,0.0,0.0,0.0,0.0,0.0,0.0,0.0,0.0,0.0,0.0,0.0,0.0,0.0,0.0,0.0,0.0,0.0,0.0,0.0,0.0,0.0,0.0,0.0,0.0,0.0,0.0,0.0,0.0,0.0,0.0,0.0,0.0,0.0,0.0,0.0,0.0,0.0,0.0,0.0,0.0,0.0,0.0,0.0,0.0,0.0,0.0,0.0,0.0,0.0,0.0,0.0,0.0,0.0,0.0,0.0,0.0,0.0,0.0,0.0,0.0,0.0,0.0,0.0,0.0,0.0,0.0,0.0,0.0,0.0,0.0,0.0,0.0,0.0,0.0,0.0,0.0,0.0,0.0,0.0,0.0,0.0,0.0,0.0,0.0,0.0,0.0,0.0,0.0,0.0,0.0,0.0,0.0,0.0,0.0,0.0,0.0,0.0,0.0,0.0,0.0,0.0,0.0,0.0,0.0,0.0,0.0,0.0,0.0,0.0,0.0,0.0,0.0,0.0,0.0,0.0,0.0,0.0,0.0,0.0,0.0,0.0,0.0,0.0,0.0,0.0,0.0,0.0,0.0,0.0,0.0,0.0,0.0,0.0,0.0,0.0,0.0,0.0,0.0,0.0,0.0,0.0,0.0,0.0,0.0,0.0,0.0,0.0,0.0,0.0,0.0,0.0,0.0,0.0,0.0,0.0,0.0,0.0,0.0,0.0,0.0,0.0,0.0,0.0,0.0,0.0,0.0,0.0,0.0,0.0,0.0,0.0,0.0,0.0,0.0,0.0,0.0,0.0,0.0,0.0,0.0,0.0,0.0,0.0,0.0,0.0,0.0,0.0,0.0,0.0,0.0,0.0,0.0,0.0,0.0,0.0,0.0,0.0,0.0,0.0,0.0,0.0,0.0,0.0,0.0,0.0,0.0,0.0,0.0,0.0,0.0,0.0,0.0,0.0,0.0,0.0,0.0,0.0,0.0,0.0,0.0,0.0,0.0,0.0,0.0,0.0,0.0,0.0,0.0,0.0,0.0,0.0,0.0,0.0,0.0,0.0,0.0,0.0,0.0,0.0,0.0,0.0,0.0,0.0,0.0,0.0,0.0,0.0,0.0,0.0,0.0,0.0,0.0,0.0,0.0,0.0,0.0,0.0,0.0,0.0,0.0,0.0,0.0,0.0,0.0,0.0,0.0,0.0,0.0,0.0,0.0,0.0,0.0,0.0,0.0,0.0,0.0,0.0,0.0,0.0,0.0,0.0,0.0,0.0,0.0,0.0,0.0,0.0,0.0,0.0,0.0,0.0,0.0,0.0,0.0,0.0,0.0,0.0,0.0,0.0,0.0,0.0,0.0,0.0,0.0,0.0,0.0,0.0,0.0,0.0,0.0,0.0,0.0,0.0,0.0,0.0,0.0,0.0,0.0,0.0,0.0,0.0,0.0,0.0,0.0,0.0,0.0,0.0,0.0,0.0,0.0,0.0,0.0,0.0,0.0,0.0,0.0,0.0,0.0,0.0,0.0,0.0,0.0,0.0,0.0,0.0,0.0,0.0,0.0,0.0,0.0,0.0,0.0,0.0,0.0,0.0,0.0,0.0,0.0,0.0,0.0,0.0,0.0,0.0,0.0,0.0,0.0,0.0,0.0,0.0,0.0,0.0,0.0,0.0,0.0,0.0,0.0,0.0,0.0,0.0,0.0,0.0,0.0,0.0,0.0,0.0,0.0,0.0,0.0,0.0,0.0,0.0,0.0,0.0,0.0,0.0,0.0,0.0,0.0,0.0,0.0,0.0,0.0,0.0,0.0,0.0,0.0,0.0,0.0,0.0,0.0,0.0,0.0,0.0,0.0,0.0,0.0,0.0,0.0,0.0,0.0,0.0,0.0,0.0,0.0,0.0,0.0,0.0,0.0,0.0,0.0,0.0,0.0,0.0,0.0,0.0,0.0,0.0,0.0,0.0,0.0,0.0,0.0,0.0,0.0,0.0,0.0,0.0,0.0,0.0,0.0,0.0,0.0,0.0,0.0,0.0,0.0,0.0,0.0,0.0,0.0,0.0,0.0,0.0,0.0,0.0,0.0,0.0,0.0,0.0,0.0,0.0,0.0,0.0,0.0,0.0,0.0,0.0,0.0,0.0,0.0,0.0,0.0,0.0,0.0,0.0,0.0,0.0,0.0,0.0,0.0,0.0,0.0,0.0,0.0,0.0,0.0,0.0,0.0,0.0,0.0,0.0,0.0,0.0,0.0,0.0,0.0,0.0,0.0,0.0,0.0,0.0,0.0,0.0,0.0,0.0,0.0,0.0,0.0,0.0,0.0,0.0,0.0,0.0,0.0,0.0,0.0,0.0,0.0,0.0,0.0,0.0,0.0,0.0,0.0,0.0,0.0,0.0,0.0,0.0,0.0,0.0,0.0,0.0,0.0,0.0,0.0,0.0,0.0,0.0,0.0,0.0,0.0,0.0,0.0,0.0,0.0,0.0,0.0,0.0,0.0,0.0,0.0,0.0,0.0,0.0,0.0,0.0,0.0,0.0,0.0,0.0,0.0,0.0,0.0,0.0,0.0,0.0,0.0,0.0,0.0,0.0,0.0,0.0,0.0,0.0,0.0,0.0,0.0,0.0,0.0,0.0,0.0,0.0,0.0,0.0,0.0,0.0,0.0,0.0,0.0,0.0,0.0,0.0,0.0,0.0,0.0,0.0,0.0,0.0,0.0,0.0,0.0,0.0,0.0,0.0,0.0,0.0,0.0,0.0,0.0,0.0,0.0,0.0,0.0,0.0,0.0,0.0,0.0,0.0,0.0,0.0,0.0,0.0,0.0,0.0,0.0,0.0,0.0,0.0,0.0,0.0,0.0,0.0,0.0,0.0,0.0,0.0,0.0,0.0,0.0,0.0,0.0,0.0,0.0,0.0,0.0,0.0,0.0,0.0,0.0,0.0,0.0,0.0,0.0,0.0,0.0,0.0,0.0,0.0,0.0,0.0,0.0,0.0,0.0,0.0,0.0,0.0,-1.3587,0.0,0.0,0.0,0.0,0.0,0.0,0.0,0.0,0.0,0.0,0.0,0.0,0.0,0.0,0.0,0.0,0.0,0.0,0.0,0.0,0.0,0.0,0.0,0.0,0.0,0.0,0.0,0.0,0.0,0.0,0.0,0.0,0.0,0.0,0.0,0.0,0.0,0.0,0.0,0.0,0.0,0.0,0.0,0.0,0.0,0.0,0.0,0.0,0.0,0.0,0.0,0.0,0.0,0.0,0.0,0.0,0.0,0.0,0.0,0.0,0.0,0.0,0.0,0.0,0.0,0.0,0.0,0.0,0.0,0.0,0.0,0.0,0.0,0.0,0.0,0.0,0.0,0.0,0.0,0.0,0.0,0.0,0.0,0.0,0.0,0.0,0.0,0.0,0.0,0.0,0.0,0.0,0.0,0.0,0.0,0.0,0.0,0.0,0.0,0.0,0.0,0.0,0.0,0.0,0.0,0.0,0.0,0.0,0.0,0.0,-1.4754,-1.488,-1.4473,-1.4194,-1.4091,0.0,0.0,0.0,0.0,0.0,0.0,0.0,0.0,0.0,0.0,0.0,0.0,0.0,0.0,0.0,0.0,0.0,0.0,0.0,0.0,0.0,0.0,0.0,0.0,0.0,0.0,0.0,0.0,0.0,0.0,0.0,0.0,0.0,0.0,0.0,0.0,0.0,0.0,0.0,0.0,0.0,0.0,0.0,0.0,0.0,0.0,0.0,0.0,0.0,0.0,0.0,0.0,0.0,0.0,0.0,0.0,0.0,0.0,0.0,0.0,0.0,0.0,0.0,0.0,0.0,0.0,0.0,0.0,0.0,0.0,0.0,0.0,0.0,0.0,0.0,0.0,0.0,0.0,0.0,0.0,0.0,0.0,0.0,0.0,0.0,0.0,0.0,0.0,0.0,0.0,0.0,0.0,0.0,0.0,0.0,0.0,0.0,0.0,0.0,0.0,0.0,0.0,0.0,0.0,0.0,0.0,0.0,0.0,0.0,0.0,0.0,0.0,-1.5545,-1.5143,-1.4863,0.0,0.0,0.0,0.0,0.0,0.0,0.0,0.0,0.0,0.0,0.0,0.0,0.0,0.0,0.0,0.0,0.0,0.0,0.0,0.0,0.0,0.0,0.0,0.0,0.0,0.0,0.0,0.0,0.0,0.0,0.0,0.0,0.0,0.0,0.0,0.0,0.0,0.0,0.0,0.0,0.0,0.0,0.0,0.0,0.0,0.0,0.0,0.0,0.0,0.0,0.0,0.0,0.0,0.0,0.0,0.0,0.0,0.0,0.0,0.0,0.0,0.0,0.0,0.0,0.0,0.0,0.0,0.0,0.0,0.0,0.0,0.0,0.0,0.0,0.0,0.0,0.0,0.0,0.0,0.0,0.0,0.0,0.0,0.0,0.0,0.0,0.0,0.0,0.0,0.0,0.0,0.0,0.0,0.0,0.0,0.0,0.0,0.0,0.0,0.0,0.0,0.0,0.0,0.0,0.0,0.0,0.0,0.0,0.0,0.0,-1.6831,-1.8326,-1.7447,0.0,-1.6208,0.0,0.0,0.0,0.0,0.0,0.0,0.0,0.0,0.0,0.0,0.0,0.0,0.0,0.0,0.0,0.0,0.0,0.0,0.0,0.0,0.0,0.0,0.0,0.0,0.0,0.0,0.0,0.0,0.0,0.0,0.0,0.0,0.0,0.0,0.0,0.0,0.0,0.0,0.0,0.0,0.0,0.0,0.0,0.0,0.0,0.0,0.0,0.0,0.0,0.0,0.0,0.0,0.0,0.0,0.0,0.0,0.0,0.0,0.0,0.0,0.0,0.0,0.0,0.0,0.0,0.0,0.0,0.0,0.0,0.0,0.0,0.0,0.0,0.0,0.0,0.0,0.0,0.0,0.0,0.0,0.0,0.0,0.0,0.0,0.0,0.0,0.0,0.0,0.0,0.0,0.0,0.0,0.0,0.0,0.0,0.0,0.0,0.0,0.0,0.0,0.0,0.0,0.0,0.0,0.0,0.0,0.0,0.0,0.0,0.0,-1.7713,-1.8227,-1.7506,-1.7056,0.0,0.0,0.0,0.0,0.0,0.0,0.0,0.0,0.0,0.0,0.0,0.0,0.0,0.0,0.0,0.0,0.0,0.0,0.0,0.0,0.0,0.0,0.0,0.0,0.0,0.0,0.0,0.0,0.0,0.0,0.0,0.0,0.0,0.0,0.0,0.0,0.0,0.0,0.0,0.0,0.0,0.0,0.0,0.0,0.0,0.0,0.0,0.0,0.0,0.0,0.0,0.0,0.0,0.0,0.0,0.0,0.0,0.0,0.0,0.0,0.0,0.0,0.0,0.0,0.0,0.0,0.0,0.0,0.0,0.0,0.0,0.0,0.0,0.0,0.0,0.0,0.0,0.0,0.0,0.0,0.0,0.0,0.0,0.0,0.0,0.0,0.0,0.0,0.0,0.0,0.0,0.0,0.0,0.0,0.0,0.0,0.0,0.0,0.0,0.0,0.0,0.0,0.0,0.0,0.0,0.0,0.0,0.0,0.0,0.0,-1.8618,0.0,-1.8697,-1.8257,-1.7773,-1.7248,0.0,0.0,0.0,0.0,0.0,0.0,0.0,0.0,0.0,0.0,0.0,0.0,0.0,0.0,0.0,0.0,0.0,0.0,0.0,0.0,0.0,0.0,0.0,0.0,0.0,0.0,0.0,0.0,0.0,0.0,0.0,0.0,0.0,0.0,0.0,0.0,0.0,0.0,0.0,0.0,0.0,0.0,0.0,0.0,0.0,0.0,0.0,0.0,0.0,0.0,0.0,0.0,0.0,0.0,0.0,0.0,0.0,0.0,0.0,0.0,0.0,0.0,0.0,0.0,0.0,0.0,0.0,0.0,0.0,0.0,0.0,0.0,0.0,0.0,0.0,0.0,0.0,0.0,0.0,0.0,0.0,0.0,0.0,0.0,0.0,0.0,0.0,0.0,0.0,0.0,0.0,0.0,0.0,0.0,0.0,0.0,0.0,0.0,0.0,0.0,0.0,0.0,0.0,0.0,0.0,0.0,0.0,0.0,0.0,-2.0509,-2.0037,-2.0609,-2.0578,-1.9285,0.0,0.0,0.0,0.0,0.0,0.0,0.0,0.0,0.0,0.0,0.0,0.0,0.0,0.0,0.0,0.0,0.0,0.0,0.0,0.0,0.0,0.0,0.0,0.0,0.0,0.0,0.0,0.0,0.0,0.0,0.0,0.0,0.0,0.0,0.0,0.0,0.0,0.0,0.0,0.0,0.0,0.0,0.0,0.0,0.0,0.0,0.0,0.0,0.0,0.0,0.0,0.0,0.0,0.0,0.0,0.0,0.0,0.0,0.0,0.0,0.0,0.0,0.0,0.0,0.0,0.0,0.0,0.0,0.0,0.0,0.0,0.0,0.0,0.0,0.0,0.0,0.0,0.0,0.0,0.0,0.0,0.0,0.0,0.0,0.0,0.0,0.0,0.0,0.0,0.0,0.0,0.0,0.0,0.0,0.0,0.0,0.0,0.0,0.0,0.0,0.0,0.0,0.0,0.0,0.0,0.0,0.0,0.0,0.0,-1.8688,-1.8843,-1.9837,-2.1658,-1.965,-1.8321,0.0,0.0,0.0,0.0,0.0,0.0,0.0,0.0,0.0,0.0,0.0,0.0,0.0,0.0,0.0,0.0,0.0,0.0,0.0,0.0,0.0,0.0,0.0,0.0,0.0,0.0,0.0,0.0,0.0,0.0,0.0,0.0,0.0,0.0,0.0,0.0,0.0,0.0,0.0,0.0,0.0,0.0,0.0,0.0,0.0,0.0,0.0,0.0,0.0,0.0,0.0,0.0,0.0,0.0,0.0,0.0,0.0,0.0,0.0,0.0,0.0,0.0,0.0,0.0,0.0,0.0,0.0,0.0,0.0,0.0,0.0,0.0,0.0,0.0,0.0,0.0,0.0,0.0,0.0,0.0,0.0,0.0,0.0,0.0,0.0,0.0,0.0,0.0,0.0,0.0,0.0,0.0,0.0,0.0,0.0,0.0,0.0,0.0,0.0,0.0,0.0,0.0,0.0,0.0,0.0,0.0,0.0,0.0,0.0,-1.8254,0.0,-2.0874,0.0,-1.9683,-1.8188,0.0,0.0,0.0,0.0,0.0,0.0,0.0,0.0,0.0,0.0,0.0,0.0,0.0,0.0,0.0,0.0,0.0,0.0,0.0,0.0,0.0,0.0,0.0,0.0,0.0,0.0,0.0,0.0,0.0,0.0,0.0,0.0,0.0,0.0,0.0,0.0,0.0,0.0,0.0,0.0,0.0,0.0,0.0,0.0,0.0,0.0,0.0,0.0,0.0,0.0,0.0,0.0,0.0,0.0,0.0,0.0,0.0,0.0,0.0,0.0,0.0,0.0,0.0,0.0,0.0,0.0,0.0,0.0,0.0,0.0,0.0,0.0,0.0,0.0,0.0,0.0,0.0,0.0,0.0,0.0,0.0,0.0,0.0,0.0,0.0,0.0,0.0,0.0,0.0,0.0,0.0,0.0,0.0,0.0,0.0,0.0,0.0,0.0,0.0,0.0,0.0,0.0,0.0,0.0,0.0,0.0,0.0,0.0,-1.8623,-2.1303,-2.3013,-2.3091,-2.159,-2.0883,-1.9035,0.0,0.0,0.0,0.0,0.0,0.0,0.0,0.0,0.0,0.0,0.0,0.0,0.0,0.0,0.0,0.0,0.0,0.0,0.0,0.0,0.0,0.0,0.0,0.0,0.0,0.0,0.0,0.0,0.0,0.0,0.0,0.0,0.0,0.0,0.0,0.0,0.0,0.0,0.0,0.0,0.0,0.0,0.0,0.0,0.0,0.0,0.0,0.0,0.0,0.0,0.0,0.0,0.0,0.0,0.0,0.0,0.0,0.0,0.0,0.0,0.0,0.0,0.0,0.0,0.0,0.0,0.0,0.0,0.0,0.0,0.0,0.0,0.0,0.0,0.0,0.0,0.0,0.0,0.0,0.0,0.0,0.0,0.0,0.0,0.0,0.0,0.0,0.0,0.0,0.0,0.0,0.0,0.0,0.0,0.0,0.0,0.0,0.0,0.0,0.0,0.0,0.0,0.0,0.0,0.0,0.0,0.0,0.0,0.0,-1.976,-2.1394,-2.2608,-2.3143,-2.0427,-1.9133,0.0,0.0,0.0,0.0,0.0,0.0,0.0,0.0,0.0,0.0,0.0,0.0,0.0,0.0,0.0,0.0,0.0,0.0,0.0,0.0,0.0,0.0,0.0,0.0,0.0,0.0,0.0,0.0,0.0,0.0,0.0,0.0,0.0,0.0,0.0,0.0,0.0,0.0,0.0,0.0,0.0,0.0,0.0,0.0,0.0,0.0,0.0,0.0,0.0,0.0,0.0,0.0,0.0,0.0,0.0,0.0,0.0,0.0,0.0,0.0,0.0,0.0,0.0,0.0,0.0,0.0,0.0,0.0,0.0,0.0,0.0,0.0,0.0,0.0,0.0,0.0,0.0,0.0,0.0,0.0,0.0,0.0,0.0,0.0,0.0,0.0,0.0,0.0,0.0,0.0,0.0,0.0,0.0,0.0,0.0,0.0,0.0,0.0,0.0,0.0,0.0,0.0,0.0,0.0,0.0,0.0,0.0,0.0,0.0,-2.0976,-2.2712,-2.3835,-2.4112,-2.1237,-1.9876,-2.0165,0.0,0.0,0.0,0.0,0.0,0.0,0.0,0.0,0.0,0.0,0.0,0.0,0.0,0.0,0.0,0.0,0.0,0.0,0.0,0.0,0.0,0.0,0.0,0.0,0.0,0.0,0.0,0.0,0.0,0.0,0.0,0.0,0.0,0.0,0.0,0.0,0.0,0.0,0.0,0.0,0.0,0.0,0.0,0.0,0.0,0.0,0.0,0.0,0.0,0.0,0.0,0.0,0.0,0.0,0.0,0.0,0.0,0.0,0.0,0.0,0.0,0.0,0.0,0.0,0.0,0.0,0.0,0.0,0.0,0.0,0.0,0.0,0.0,0.0,0.0,0.0,0.0,0.0,0.0,0.0,0.0,0.0,0.0,0.0,0.0,0.0,0.0,0.0,0.0,0.0,0.0,0.0,0.0,0.0,0.0,0.0,0.0,0.0,0.0,0.0,0.0,0.0,0.0,0.0,0.0,0.0,0.0,0.0,-2.4174,-2.6446,-2.6563,-2.4465,-2.3121,-2.1171,0.0,0.0,0.0,0.0,0.0,0.0,0.0,0.0,0.0,0.0,0.0,0.0,0.0,0.0,0.0,0.0,0.0,0.0,0.0,0.0,0.0,0.0,0.0,0.0,0.0,0.0,0.0,0.0,0.0,0.0,0.0,0.0,0.0,0.0,0.0,0.0,0.0,0.0,0.0,0.0,0.0,0.0,0.0,0.0,0.0,0.0,0.0,0.0,0.0,0.0,0.0,0.0,0.0,0.0,0.0,0.0,0.0,0.0,0.0,0.0,0.0,0.0,0.0,0.0,0.0,0.0,0.0,0.0,0.0,0.0,0.0,0.0,0.0,0.0,0.0,0.0,0.0,0.0,0.0,0.0,0.0,0.0,0.0,0.0,0.0,0.0,0.0,0.0,0.0,0.0,0.0,0.0,0.0,0.0,0.0,0.0,0.0,0.0,0.0,0.0,0.0,0.0,0.0,0.0,0.0,0.0,0.0,0.0,0.0,-2.5393,-2.8012,-2.8717,-2.7262,-2.4491,-2.2635,0.0,0.0,0.0,0.0,0.0,0.0,0.0,0.0,0.0,0.0,0.0,0.0,0.0,0.0,0.0,0.0,0.0,0.0,0.0,0.0,0.0,0.0,0.0,0.0,0.0,0.0,0.0,0.0,0.0,0.0,0.0,0.0,0.0,0.0,0.0,0.0,0.0,0.0,0.0,0.0,0.0,0.0,0.0,0.0,0.0,0.0,0.0,0.0,0.0,0.0,0.0,0.0,0.0,0.0,0.0,0.0,0.0,0.0,0.0,0.0,0.0,0.0,0.0,0.0,0.0,0.0,0.0,0.0,0.0,0.0,0.0,0.0,0.0,0.0,0.0,0.0,0.0,0.0,0.0,0.0,0.0,0.0,0.0,0.0,0.0,0.0,0.0,0.0,0.0,0.0,0.0,0.0,0.0,0.0,0.0,0.0,0.0,0.0,0.0,0.0,0.0,0.0,0.0,0.0,0.0,0.0,0.0,0.0,-2.4909,-2.687,-2.9248,-3.0045,-2.9144,-2.6465,-2.4318,0.0,0.0,0.0,0.0,0.0,0.0,0.0,0.0,0.0,0.0,0.0,0.0,0.0,0.0,0.0,0.0,0.0,0.0,0.0,0.0,0.0,0.0,0.0,0.0,0.0,0.0,0.0,0.0,0.0,0.0,0.0,0.0,0.0,0.0,0.0,0.0,0.0,0.0,0.0,0.0,0.0,0.0,0.0,0.0,0.0,0.0,0.0,0.0,0.0,0.0,0.0,0.0,0.0,0.0,0.0,0.0,0.0,0.0,0.0,0.0,0.0,0.0,0.0,0.0,0.0,0.0,0.0,0.0,0.0,0.0,0.0,0.0,0.0,0.0,0.0,0.0,0.0,0.0,0.0,0.0,0.0,0.0,0.0,0.0,0.0,0.0,0.0,0.0,0.0,0.0,0.0,0.0,0.0,0.0,0.0,0.0,0.0,0.0,0.0,0.0,0.0,0.0,0.0,0.0,0.0,0.0,0.0,0.0,-2.6138,-2.8333,-3.0085,-3.0738,-3.0153,-2.8443,-2.595,0.0,0.0,0.0,0.0,0.0,0.0,0.0,0.0,0.0,0.0,0.0,0.0,0.0,0.0,0.0,0.0,0.0,0.0,0.0,0.0,0.0,0.0,0.0,0.0,0.0,0.0,0.0,0.0,0.0,0.0,0.0,0.0,0.0,0.0,0.0,0.0,0.0,0.0,0.0,0.0,0.0,0.0,0.0,0.0,0.0,0.0,0.0,0.0,0.0,0.0,0.0,0.0,0.0,0.0,0.0,0.0,0.0,0.0,0.0,0.0,0.0,0.0,0.0,0.0,0.0,0.0,0.0,0.0,0.0,0.0,0.0,0.0,0.0,0.0,0.0,0.0,0.0,0.0,0.0,0.0,0.0,0.0,0.0,0.0,0.0,0.0,0.0,0.0,0.0,0.0,0.0,0.0,0.0,0.0,0.0,0.0,0.0,0.0,0.0,0.0,0.0,0.0,0.0,0.0,0.0,0.0,0.0,0.0,-2.653,-2.8381,-3.0085,-3.0934,-3.079,-2.8638,-2.6315,0.0,0.0,0.0,0.0,0.0,0.0,0.0,0.0,0.0,0.0,0.0,0.0,0.0,0.0,0.0,0.0,0.0,0.0,0.0,0.0,0.0,0.0,0.0,0.0,0.0,0.0,0.0,0.0,0.0,0.0,0.0,0.0,0.0,0.0,0.0,0.0,0.0,0.0,0.0,0.0,0.0,0.0,0.0,0.0,0.0,0.0,0.0,0.0,-2.0562,0.0,0.0,0.0,0.0,0.0,0.0,0.0,0.0,0.0,0.0,0.0,0.0,0.0,0.0,0.0,0.0,0.0,0.0,0.0,0.0,0.0,0.0,0.0,0.0,0.0,0.0,0.0,0.0,0.0,0.0,0.0,0.0,0.0,0.0,0.0,0.0,0.0,0.0,0.0,0.0,0.0,0.0,0.0,0.0,0.0,0.0,0.0,0.0,0.0,0.0,0.0,0.0,0.0,0.0,0.0,0.0,0.0,0.0,0.0,-2.7425,-2.917,-3.0372,-3.1024,-3.0921,-2.9274,-2.7013,0.0,0.0,0.0,0.0,0.0,0.0,0.0,0.0,0.0,0.0,0.0,0.0,0.0,0.0,0.0,0.0,0.0,0.0,0.0,0.0,0.0,0.0,0.0,0.0,0.0,0.0,0.0,0.0,0.0,0.0,0.0,0.0,0.0,0.0,0.0,0.0,0.0,0.0,0.0,0.0,0.0,0.0,0.0,0.0,0.0,0.0,0.0,0.0,0.0,0.0,0.0,0.0,0.0,0.0,0.0,0.0,0.0,0.0,0.0,0.0,0.0,0.0,0.0,0.0,0.0,0.0,0.0,0.0,0.0,0.0,0.0,0.0,0.0,0.0,0.0,0.0,0.0,0.0,0.0,0.0,0.0,0.0,0.0,0.0,0.0,0.0,0.0,0.0,0.0,0.0,0.0,0.0,0.0,0.0,0.0,0.0,0.0,0.0,0.0,0.0,0.0,0.0,0.0,0.0,0.0,0.0,0.0,-2.6041,-2.8208,-3.014,-3.0738,-3.1024,-3.0973,-2.9912,-2.7654,-2.424,0.0,0.0,0.0,0.0,0.0,0.0,0.0,0.0,0.0,0.0,0.0,0.0,0.0,0.0,0.0,0.0,0.0,0.0,0.0,0.0,0.0,0.0,0.0,0.0,0.0,0.0,0.0,0.0,0.0,0.0,0.0,0.0,0.0,0.0,0.0,0.0,0.0,0.0,-1.8883,-2.0116,0.0,0.0,0.0,0.0,0.0,0.0,0.0,0.0,-2.0718,0.0,0.0,0.0,0.0,0.0,0.0,0.0,0.0,0.0,0.0,0.0,0.0,0.0,0.0,0.0,0.0,0.0,0.0,0.0,0.0,0.0,0.0,0.0,0.0,0.0,0.0,0.0,0.0,0.0,0.0,0.0,0.0,0.0,0.0,0.0,0.0,0.0,0.0,0.0,0.0,0.0,0.0,0.0,0.0,0.0,0.0,0.0,0.0,0.0,0.0,0.0,0.0,0.0,0.0,0.0,0.0,-2.6052,-2.6112,-2.7607,-3.0751,-3.0934,-3.1024,-3.096,-2.9876,-2.7654,-2.4279,0.0,0.0,0.0,0.0,0.0,0.0,0.0,0.0,0.0,0.0,0.0,0.0,0.0,0.0,0.0,0.0,0.0,0.0,0.0,0.0,0.0,0.0,0.0,0.0,0.0,0.0,0.0,0.0,0.0,0.0,0.0,0.0,0.0,0.0,0.0,0.0,0.0,0.0,0.0,-2.3271,-2.3948,0.0,0.0,0.0,0.0,0.0,0.0,0.0,0.0,-2.1519,0.0,0.0,0.0,0.0,0.0,0.0,0.0,0.0,0.0,0.0,0.0,0.0,0.0,0.0,0.0,0.0,0.0,0.0,0.0,0.0,0.0,0.0,0.0,0.0,0.0,0.0,0.0,0.0,0.0,0.0,0.0,0.0,0.0,0.0,0.0,0.0,0.0,0.0,0.0,0.0,0.0,0.0,0.0,0.0,0.0,0.0,0.0,0.0,0.0,0.0,0.0,0.0,0.0,0.0,0.0,-2.5223,-2.6831,-2.8712,-3.0932,-3.1024,-3.1024,-3.0934,-2.9048,-2.6726,0.0,0.0,0.0,0.0,0.0,0.0,0.0,0.0,0.0,0.0,0.0,0.0,0.0,0.0,0.0,0.0,0.0,0.0,0.0,0.0,0.0,0.0,0.0,0.0,0.0,0.0,0.0,0.0,0.0,0.0,0.0,0.0,0.0,0.0,0.0,0.0,0.0,0.0,0.0,0.0,-2.3963,-2.4681,-2.4477,0.0,0.0,0.0,0.0,0.0,0.0,-2.3887,-2.2671,0.0,0.0,0.0,0.0,0.0,0.0,0.0,0.0,0.0,0.0,0.0,0.0,0.0,0.0,0.0,0.0,0.0,0.0,0.0,0.0,0.0,0.0,0.0,0.0,0.0,0.0,0.0,0.0,0.0,0.0,0.0,0.0,0.0,0.0,0.0,0.0,0.0,0.0,0.0,0.0,0.0,0.0,0.0,0.0,0.0,0.0,0.0,0.0,0.0,0.0,0.0,0.0,0.0,0.0,0.0,-2.4122,-2.7216,-2.9483,-3.0895,-3.1024,-3.1024,-3.0972,-2.8433,-2.6143,0.0,0.0,0.0,0.0,0.0,0.0,0.0,0.0,0.0,0.0,0.0,0.0,0.0,0.0,0.0,0.0,0.0,0.0,0.0,0.0,0.0,0.0,0.0,0.0,0.0,0.0,0.0,0.0,0.0,0.0,0.0,0.0,0.0,0.0,0.0,0.0,0.0,0.0,0.0,0.0,0.0,-2.561,-2.6287,-2.5072,0.0,0.0,0.0,0.0,-2.6903,-2.581,0.0,0.0,0.0,0.0,0.0,0.0,0.0,0.0,0.0,0.0,0.0,0.0,0.0,0.0,0.0,0.0,0.0,0.0,0.0,0.0,0.0,0.0,0.0,0.0,0.0,0.0,0.0,0.0,0.0,0.0,0.0,0.0,0.0,0.0,0.0,0.0,0.0,0.0,0.0,0.0,0.0,0.0,0.0,0.0,0.0,0.0,0.0,0.0,0.0,0.0,0.0,0.0,0.0,0.0,0.0,0.0,-2.4031,-2.6007,-2.8315,-3.0867,-3.1024,-3.1024,-3.0998,-2.9205,-2.6896,0.0,0.0,0.0,0.0,0.0,0.0,0.0,0.0,0.0,0.0,0.0,0.0,0.0,0.0,0.0,0.0,0.0,0.0,0.0,0.0,0.0,0.0,0.0,0.0,0.0,0.0,0.0,0.0,0.0,0.0,0.0,0.0,0.0,0.0,0.0,0.0,0.0,0.0,0.0,0.0,0.0,-2.8227,-2.6633,-2.6688,-2.698,0.0,0.0,-2.8319,-2.971,-2.974,0.0,0.0,0.0,0.0,0.0,0.0,0.0,0.0,0.0,0.0,0.0,0.0,0.0,0.0,0.0,0.0,0.0,0.0,0.0,0.0,0.0,0.0,0.0,0.0,0.0,0.0,0.0,0.0,0.0,0.0,0.0,0.0,0.0,0.0,0.0,0.0,0.0,0.0,0.0,0.0,0.0,0.0,0.0,0.0,0.0,0.0,0.0,0.0,0.0,0.0,0.0,0.0,0.0,0.0,0.0,-2.1877,-2.4112,-2.6778,-2.9127,-3.0908,-3.1024,-3.1024,-3.1011,-2.836,-2.6159,0.0,0.0,0.0,0.0,0.0,0.0,0.0,0.0,0.0,0.0,0.0,0.0,0.0,0.0,0.0,0.0,0.0,0.0,0.0,0.0,0.0,0.0,0.0,0.0,0.0,0.0,0.0,0.0,0.0,0.0,0.0,0.0,0.0,0.0,0.0,0.0,0.0,0.0,0.0,0.0,0.0,0.0,-2.9243,-2.9166,0.0,0.0,0.0,-2.9986,-3.1336,0.0,0.0,0.0,0.0,0.0,0.0,0.0,0.0,0.0,0.0,0.0,0.0,0.0,0.0,0.0,0.0,0.0,0.0,0.0,0.0,0.0,0.0,0.0,0.0,0.0,0.0,0.0,0.0,0.0,0.0,0.0,0.0,0.0,0.0,0.0,0.0,0.0,0.0,0.0,0.0,0.0,0.0,0.0,0.0,0.0,0.0,0.0,0.0,0.0,0.0,0.0,0.0,0.0,0.0,0.0,0.0,0.0,-2.4138,-2.7523,-2.9859,-3.0985,-3.1024,-3.1024,-3.0972,-2.7902,0.0,0.0,0.0,0.0,0.0,0.0,0.0,0.0,0.0,0.0,0.0,0.0,0.0,0.0,0.0,0.0,0.0,0.0,0.0,0.0,0.0,0.0,0.0,0.0,0.0,0.0,0.0,-1.3159,0.0,0.0,0.0,0.0,0.0,0.0,0.0,0.0,0.0,0.0,0.0,0.0,0.0,0.0,-3.0089,-3.1228,-3.1259,-3.1597,0.0,0.0,-3.1782,-3.278,-3.2382,-3.0843,0.0,0.0,0.0,0.0,0.0,0.0,0.0,0.0,0.0,0.0,0.0,0.0,0.0,0.0,0.0,0.0,0.0,0.0,0.0,0.0,0.0,0.0,0.0,0.0,0.0,0.0,0.0,0.0,0.0,0.0,0.0,0.0,0.0,0.0,0.0,0.0,0.0,0.0,0.0,0.0,0.0,0.0,0.0,0.0,0.0,0.0,0.0,0.0,0.0,0.0,0.0,0.0,0.0,0.0,0.0,-2.4135,-2.7523,-2.9836,-3.0934,-3.1024,-3.1024,-3.0947,-2.866,-2.6538,0.0,0.0,0.0,0.0,0.0,0.0,0.0,0.0,0.0,0.0,0.0,0.0,0.0,0.0,0.0,0.0,0.0,0.0,0.0,0.0,0.0,0.0,0.0,0.0,0.0,0.0,0.0,0.0,0.0,0.0,0.0,0.0,0.0,0.0,0.0,0.0,0.0,0.0,0.0,0.0,0.0,-3.0612,-3.1305,-3.2428,-3.3475,0.0,0.0,-3.4258,-3.4351,-3.5306,-3.4522,-2.995,0.0,0.0,0.0,0.0,0.0,0.0,0.0,0.0,0.0,0.0,0.0,0.0,0.0,0.0,0.0,0.0,0.0,0.0,0.0,0.0,0.0,0.0,0.0,0.0,0.0,0.0,0.0,0.0,0.0,0.0,0.0,0.0,0.0,0.0,0.0,0.0,0.0,0.0,0.0,0.0,0.0,0.0,0.0,0.0,0.0,0.0,0.0,0.0,0.0,0.0,0.0,0.0,0.0,-2.2374,-2.4125,-2.7523,-2.9872,-3.0959,-3.1024,-3.1024,-3.1024,-2.9078,-2.7157,0.0,0.0,0.0,0.0,0.0,0.0,0.0,0.0,0.0,0.0,0.0,0.0,0.0,0.0,0.0,0.0,0.0,0.0,0.0,0.0,0.0,0.0,0.0,0.0,0.0,0.0,0.0,0.0,-1.727,-1.7869,-1.8992,0.0,0.0,0.0,0.0,0.0,0.0,0.0,0.0,0.0,0.0,-3.2182,-3.369,-3.4382,0.0,0.0,-3.5368,-3.526,-3.5645,-3.5475,-3.4227,-3.112,-2.9935,0.0,0.0,0.0,0.0,0.0,0.0,0.0,0.0,0.0,0.0,0.0,0.0,0.0,0.0,0.0,0.0,0.0,0.0,0.0,0.0,0.0,0.0,0.0,0.0,0.0,0.0,0.0,0.0,0.0,0.0,0.0,0.0,0.0,0.0,0.0,0.0,0.0,0.0,0.0,0.0,0.0,0.0,0.0,0.0,0.0,0.0,0.0,0.0,0.0,0.0,0.0,0.0,-2.2622,-2.436,-2.7785,-3.0006,-3.0998,-3.1024,-3.1024,-3.0972,-2.9287,-2.7611,0.0,0.0,0.0,0.0,0.0,0.0,0.0,0.0,0.0,0.0,0.0,0.0,0.0,0.0,0.0,0.0,0.0,0.0,0.0,0.0,0.0,0.0,0.0,0.0,0.0,0.0,0.0,0.0,-1.8699,-1.9208,-2.0196,0.0,0.0,0.0,0.0,0.0,0.0,0.0,0.0,0.0,0.0,-3.3367,-3.5244,-3.5675,-3.5984,-3.643,-3.6091,-3.5953,-3.643,-3.5691,-3.4412,-3.2305,0.0,0.0,0.0,0.0,0.0,0.0,0.0,0.0,0.0,0.0,0.0,0.0,0.0,0.0,0.0,0.0,0.0,0.0,0.0,0.0,0.0,0.0,0.0,0.0,0.0,0.0,0.0,0.0,0.0,0.0,0.0,0.0,0.0,0.0,0.0,0.0,0.0,0.0,0.0,0.0,0.0,0.0,0.0,0.0,0.0,0.0,0.0,0.0,0.0,0.0,0.0,0.0,0.0,-2.3237,-2.5005,-2.8347,-3.0385,-3.0998,-3.1024,-3.1024,-3.0985,-2.9301,-2.7795,-2.6407,0.0,0.0,0.0,0.0,0.0,0.0,0.0,0.0,0.0,0.0,0.0,0.0,0.0,0.0,0.0,0.0,0.0,0.0,0.0,0.0,0.0,0.0,0.0,0.0,0.0,0.0,-1.9148,-1.9857,-2.0258,0.0,0.0,0.0,0.0,0.0,0.0,0.0,0.0,0.0,0.0,-3.2136,-3.3891,-3.5337,-3.6076,-3.6461,-3.6492,-3.6461,-3.6461,-3.6492,-3.643,-3.5753,0.0,0.0,0.0,0.0,0.0,0.0,0.0,0.0,0.0,0.0,0.0,0.0,0.0,0.0,0.0,0.0,0.0,0.0,0.0,0.0,0.0,0.0,0.0,0.0,0.0,0.0,0.0,-2.0453,-1.9274,0.0,0.0,0.0,0.0,0.0,0.0,0.0,0.0,0.0,0.0,0.0,-2.4958,-2.591,0.0,0.0,0.0,0.0,0.0,0.0,0.0,0.0,0.0,0.0,0.0,0.0,-2.3799,-2.5576,-2.8569,-3.0375,-3.096,-3.1024,-3.1024,-3.0973,-3.0059,-2.8381,-2.5925,0.0,0.0,0.0,0.0,0.0,0.0,0.0,0.0,0.0,0.0,0.0,0.0,0.0,0.0,0.0,0.0,0.0,0.0,0.0,0.0,0.0,0.0,0.0,0.0,0.0,-1.8962,0.0,0.0,0.0,0.0,0.0,0.0,0.0,0.0,0.0,0.0,0.0,-2.9904,-3.2121,-3.3783,-3.5122,-3.603,-3.6353,-3.6492,0.0,0.0,0.0,0.0,0.0,0.0,0.0,0.0,0.0,0.0,0.0,0.0,0.0,0.0,-3.3293,-2.9674,-2.8959,-2.9265,-3.039,0.0,0.0,0.0,0.0,0.0,0.0,0.0,0.0,0.0,0.0,0.0,0.0,0.0,0.0,0.0,0.0,-2.1969,0.0,0.0,0.0,0.0,0.0,0.0,0.0,0.0,-2.6844,-2.7777,-2.7667,-2.8547,-2.8333,0.0,-2.7085,-2.5515,0.0,0.0,0.0,0.0,0.0,0.0,0.0,0.0,-2.4687,-2.6438,-2.903,-3.062,-3.096,-3.1024,-3.1024,-3.0998,-3.0032,-2.8541,-2.6412,-2.3649,-2.1719,0.0,0.0,0.0,0.0,0.0,0.0,0.0,0.0,0.0,0.0,0.0,0.0,0.0,0.0,0.0,0.0,0.0,0.0,0.0,0.0,0.0,0.0,0.0,-1.9826,0.0,0.0,0.0,0.0,0.0,0.0,0.0,0.0,0.0,-2.7757,-2.9894,-3.2198,-3.4214,-3.5245,-3.6107,-3.6738,0.0,0.0,0.0,0.0,0.0,0.0,0.0,-3.6538,-3.6538,-3.6569,-3.6461,-3.6215,-3.7107,-3.7492,-3.6384,0.0,0.0,-3.2583,-3.1917,-3.2357,-3.3475,-3.4267,-3.481,-3.498,-3.618,-3.6789,0.0,0.0,0.0,0.0,0.0,0.0,0.0,0.0,-2.507,-2.5227,0.0,-2.4504,0.0,0.0,0.0,0.0,0.0,0.0,0.0,0.0,-3.0179,-3.1548,-3.1052,-3.151,-3.1548,-3.1052,-3.0934,-2.9771,-2.7477,-2.4762,0.0,0.0,0.0,0.0,0.0,0.0,-2.5876,-2.7555,-2.981,-3.1024,-3.1024,-3.1024,-3.1024,-3.0985,-2.9362,-2.8292,-2.7736,-2.5382,-2.3402,-2.206,-2.0158,0.0,0.0,0.0,0.0,0.0,0.0,0.0,0.0,0.0,0.0,0.0,0.0,0.0,0.0,0.0,0.0,0.0,0.0,0.0,0.0,-1.9516,0.0,0.0,0.0,0.0,0.0,0.0,0.0,0.0,0.0,0.0,-3.0709,-3.2305,-3.4245,-3.6245,0.0,0.0,0.0,0.0,-3.7523,-3.7538,-3.8077,-3.8492,-3.8492,-3.8477,-3.8477,-3.8477,0.0,0.0,-3.7707,-3.8138,-3.8369,-3.7692,-3.8558,-3.8811,-3.6832,-3.5943,-3.6007,-3.7112,-3.7896,-3.878,-3.9876,-4.0815,-4.1847,-3.062,0.0,0.0,0.0,0.0,-2.815,-2.8882,-3.0228,-2.9931,-2.8935,-2.7426,-2.7256,0.0,0.0,0.0,0.0,0.0,0.0,-2.859,-2.9784,-3.1196,-3.1954,-3.2215,-3.2372,-3.2359,-3.2189,-3.1784,-3.1001,-2.998,-2.8717,-2.6211,-2.2557,0.0,0.0,0.0,0.0,-2.7458,-2.8778,-3.0241,-3.1024,-3.1024,-3.1024,-3.1024,-3.1024,-3.0193,-2.9266,-2.8272,-2.7239,-2.5813,-2.3989,-2.2546,0.0,0.0,0.0,0.0,0.0,0.0,0.0,0.0,0.0,0.0,0.0,0.0,0.0,0.0,0.0,0.0,0.0,0.0,0.0,-2.0254,-2.078,-2.1781,0.0,0.0,0.0,0.0,0.0,0.0,0.0,0.0,0.0,-3.466,-3.523,-3.5999,0.0,0.0,-3.7815,-3.7554,-3.7908,-3.8215,-3.8215,0.0,0.0,0.0,-3.8508,-3.8508,-3.8508,-3.8908,-3.9308,-3.9582,-3.9782,-3.969,-3.9046,-3.9226,-3.9137,-3.8253,-3.8904,-3.9806,-4.0654,-4.1016,-4.1242,-4.1617,-4.2033,-4.2303,-3.4554,-3.1718,-3.0673,-3.0818,-3.1784,-3.1457,-3.2084,-3.3339,-3.2777,-3.1862,-3.0738,-3.0281,-2.9013,-2.7124,-2.6681,0.0,0.0,0.0,-3.0451,-3.1692,-3.2267,-3.2712,-3.3025,-3.3038,-3.3051,-3.3025,-3.2463,-3.1993,-3.1653,-3.1091,-2.9148,-2.6002,0.0,0.0,-2.5837,-2.717,-2.8438,-2.9601,-3.0516,-3.1024,-3.1024,-3.1024,-3.1018,-3.1037,-3.029,-2.969,-2.9248,-2.8016,-2.6906,-2.5887,-2.4476,-2.2925,0.0,0.0,0.0,0.0,0.0,0.0,0.0,0.0,0.0,0.0,0.0,-1.7669,-1.5947,0.0,0.0,0.0,-1.953,-2.096,-2.2717,-2.3625,0.0,0.0,0.0,0.0,0.0,0.0,0.0,-3.3783,-3.523,-3.6476,-3.7538,-3.7677,-3.7846,-3.8246,-3.8415,-3.8462,-3.8323,0.0,-3.8908,-3.8908,-3.9139,-3.9275,-3.9308,-3.9275,-3.9308,-3.9308,-3.9598,-3.9997,-4.0397,-4.0489,-4.0351,-3.9997,-3.989,-3.9939,-4.0049,-4.1012,-4.1654,-4.1604,-4.2209,-4.2743,-4.2743,-4.2963,-4.32,-3.7717,-3.7063,-3.5417,-3.4646,-3.4528,-3.4528,-3.4528,-3.4489,-3.4005,-3.4045,-3.4384,-3.3365,-3.2568,-3.1876,-3.0792,0.0,0.0,-3.1706,-3.2267,-3.2855,-3.3404,-3.3652,-3.3652,-3.3652,-3.3652,-3.3639,-3.3051,-3.2764,-3.2725,-3.2137,-3.1314,-3.0218,-2.8625,-2.8072,-2.8425,-2.8543,-2.9118,-3.0153,-3.0725,-3.1024,-3.1024,-3.1024,-3.1019,-3.1113,-2.9993,-2.9644,-3.0155,-2.813,-2.7115,-2.7434,-2.5946,-2.4095,-2.2112,0.0,0.0,0.0,0.0,0.0,0.0,0.0,0.0,0.0,0.0,0.0,0.0,0.0,0.0,0.0,-2.2536,0.0,-2.5419,-2.7295,0.0,0.0,0.0,-3.0289,-3.1747,-3.3581,-3.5244,-3.6507,0.0,0.0,0.0,0.0,-3.9567,-3.9601,-3.9029,-3.8877,-3.9447,-3.9539,-3.9582,-3.9567,-4.0074,-4.0474,-4.0366,-4.0382,-4.0366,-4.0366,-4.0489,-4.0459,-4.0489,-4.0489,-4.0489,-4.0459,-4.0558,-4.0873,-4.2093,-4.2282,-4.2147,-4.0945,-4.219,-4.3477,-4.3538,-4.4012,-4.4445,-3.9115,-3.8906,-3.8057,-3.692,-3.5704,-3.5691,-3.5704,-3.5691,-3.5561,-3.5351,-3.5064,-3.4789,-3.4123,-3.313,-3.2411,-3.2411,-3.2986,-3.3117,-3.3483,-3.3979,-3.4136,-3.4201,-3.4214,-3.4214,-3.4214,-3.4162,-3.3639,-3.3378,-3.3352,-3.2777,-3.2136,-3.1406,-3.0975,-3.0192,-2.9144,-2.9964,-3.054,-3.0777,-3.0908,-3.1024,-3.1024,-3.1024,-3.0823,-3.0378,-3.0167,-2.9492,-2.8272,-2.8697,-2.8281,-2.6975,-2.6445,-2.5725,-2.4709,-2.1968,0.0,0.0,0.0,0.0,0.0,0.0,0.0,0.0,0.0,-2.3255,-1.9332,0.0,-2.4266,0.0,-2.598,-2.7334,-2.7642,-2.8556,0.0,0.0,-3.2351,-3.3413,-3.5768,-3.6476,-3.7107,-3.7923,-3.8769,-3.9305,-3.9493,-3.9936,-4.0259,-4.0243,-4.012,-3.989,-3.9567,-3.9936,-4.0243,-4.0274,-4.0413,-4.0489,-4.0551,-4.0489,-4.052,-4.0489,-4.0505,-4.0489,-4.0505,-4.0489,-4.0489,-4.0524,-4.0922,-4.1176,-4.1088,-4.2173,-4.2872,-4.2284,-4.3223,-4.4299,-4.4299,-4.4479,-4.4598,-3.9965,-3.9913,-3.9351,-3.8553,-3.7625,-3.7116,-3.6907,-3.6894,-3.6619,-3.6332,-3.6031,-3.577,-3.5312,-3.4711,-3.4358,-3.4254,-3.4358,-3.4358,-3.4358,-3.4397,-3.4397,-3.4397,-3.4397,-3.4397,-3.4397,-3.4384,-3.4097,-3.3953,-3.3914,-3.3378,-3.2934,-3.2607,-3.2058,-3.1327,-3.0477,-3.0803,-3.1024,-3.1024,-3.1024,-3.1024,-3.1024,-3.1024,-3.0594,-2.9771,-2.9789,-2.914,-2.766,-2.8041,-2.7797,-2.6772,-2.6364,-2.5883,-2.5164,-2.3215,-2.2104,0.0,0.0,0.0,0.0,0.0,0.0,0.0,0.0,0.0,0.0,0.0,-2.6788,0.0,-2.8981,0.0,-3.0612,-3.2074,-3.3614,-3.5076,-3.5491,-3.6399,-3.8215,-3.84,-3.8646,-3.9323,-4.0016,-4.0447,-4.0462,-4.1032,-4.1427,-4.1447,-4.1463,-4.1166,-4.057,-4.0489,-4.0689,-4.1304,-4.1201,-4.1089,-4.1351,-4.1166,-4.0981,-4.0951,-4.072,-4.0582,-4.0905,-4.0966,-4.1109,-4.137,-4.1732,-4.1978,-4.1925,-4.2692,-4.3444,-4.3651,-4.4292,-4.4888,-4.4694,-4.4869,-4.506,-4.0527,-4.0474,-3.9939,-3.9716,-3.9638,-3.8566,-3.8083,-3.7965,-3.7377,-3.7116,-3.709,-3.6475,-3.6214,-3.6214,-3.6136,-3.5848,-3.5404,-3.5404,-3.5077,-3.4528,-3.4502,-3.4463,-3.4397,-3.4397,-3.4397,-3.4397,-3.4397,-3.4397,-3.4384,-3.3914,-3.3666,-3.3548,-3.2528,-3.1954,-3.1784,-3.1339,-3.1052,-3.1024,-3.1024,-3.1024,-3.1024,-3.1024,-3.0438,-2.9388,-2.9302,-2.8709,-2.7525,-2.7148,-2.6859,-2.6701,-2.629,-2.577,-2.5133,-2.4403,-2.4064,0.0,-2.358,0.0,0.0,0.0,0.0,0.0,0.0,0.0,0.0,-2.8581,-2.9381,-2.9874,-3.1828,-3.326,-3.3752,-3.6122,-3.7631,-3.7646,-3.8231,-3.8877,-3.9413,-3.9551,-3.9844,-4.0428,-4.1155,-4.1601,-4.1571,-4.2186,-4.2602,-4.2525,-4.2494,-4.234,-4.1925,-4.1294,-4.1294,-4.2479,-4.2109,-4.1909,-4.2309,-4.2063,-4.1724,-4.1663,-4.1258,-4.0981,-4.1617,-4.1724,-4.1909,-4.2417,-4.2638,-4.2869,-4.338,-4.3542,-4.3938,-4.4412,-4.5127,-4.5435,-4.5026,-4.5358,-4.5805,-4.1154,-4.1089,-4.0501,-4.0265,-4.02,-3.956,-3.8998,-3.8514,-3.7965,-3.773,-3.7691,-3.7103,-3.6828,-3.6802,-3.6319,-3.6044,-3.5953,-3.5953,-3.5652,-3.5142,-3.5129,-3.4855,-3.441,-3.4397,-3.4397,-3.4397,-3.4397,-3.4397,-3.4397,-3.4293,-3.4018,-3.36,-3.3378,-3.279,-3.185,0.0,0.0,0.0,-3.1024,-3.1024,-3.1024,-3.1024,-3.0438,-2.9349,-2.9297,0.0,-2.6337,-2.7476,-2.7797,-2.6876,-2.7586,0.0,0.0,0.0,0.0,0.0,0.0,0.0,0.0,0.0,0.0,0.0,-3.0197,-2.975,-2.9156,-3.1659,-3.3136,-3.2767,-3.4999,-3.6353,-3.5968,-3.7353,-3.8323,-3.8338,-3.8923,-3.9385,-3.949,-3.9951,-4.0366,-4.0489,-4.1135,-4.1601,-4.1678,-4.2186,-4.2633,-4.2679,-4.2617,-4.2786,-4.3193,-4.2586,-4.2309,-4.2556,-4.2509,-4.2479,-4.2586,-4.2525,-4.2402,-4.2371,-4.234,-4.2248,-4.2355,-4.2417,-4.2417,-4.2663,-4.3038,-4.3267,-4.2942,-4.3658,-4.4422,-4.4657,-4.5242,-4.5663,-4.5538,-4.6075,-4.6583,-4.1311,0.0,-4.0984,-4.0867,0.0,-4.0252,-3.9834,-3.9494,-3.8658,-3.8148,-3.7887,-3.7586,-3.7442,-3.7442,-3.7129,-3.6828,-3.6541,-3.6541,-3.624,-3.5691,-3.5417,-3.5142,-3.4842,-3.4528,-3.4397,-3.4397,-3.4397,-3.4397,-3.4397,-3.4397,-3.4254,-3.4005,-3.3718,-3.3143,-3.228,-3.1705,-3.1274,-3.1024,-3.1024,-3.1024,-3.1024,-3.1024,-3.0581,-2.9732,0.0,0.0,0.0,0.0,0.0,0.0,0.0,0.0,0.0,0.0,0.0,-2.951,-2.9324,-2.9562,-3.0441,-3.0864,-3.1598,-3.2829,-3.3213,-3.2982,-3.1982,-3.3798,-3.5136,-3.543,-3.6722,-3.7507,-3.7523,-3.8415,-3.9,-3.9031,-3.9616,-3.9967,-4.0013,-4.029,-4.0489,-4.0597,-4.1427,-4.2094,-4.2094,-4.2987,-4.3525,-4.3571,-4.3587,-4.3679,-4.3947,-4.3217,-4.2709,-4.3033,-4.3402,-4.3571,-4.3541,-4.3264,-4.3079,-4.3063,-4.2817,-4.2771,-4.3033,-4.3094,-4.3171,-4.3516,-4.3888,-4.3946,-4.3756,-4.4148,-4.4618,-4.4709,-4.5216,-4.5827,-4.6176,-4.6826,-4.7344,-4.1311,-4.1311,-4.1311,-4.1311,-4.1272,-4.0775,-4.0514,-4.0331,0.0,0.0,0.0,-3.7952,-3.79,-3.79,-3.79,-3.7625,-3.7168,-3.7155,-3.6828,-3.6253,-3.5809,-3.5495,-3.5273,-3.4789,-3.4502,-3.4397,-3.4397,-3.4397,-3.4397,-3.4397,-3.4397,-3.4358,-3.394,-3.3391,-3.2672,-3.1666,-3.1091,-3.0999,-3.1024,-3.1024,-3.1024,-3.1024,-3.0712,-3.0113,-3.01,-2.933,-2.7725,-2.7872,-2.7497,-2.6458,-2.71,-2.7981,-2.9044,-2.9717,-3.0755,-3.2169,-3.2542,-3.3021,-3.3879,-3.4061,-3.4333,-3.4755,-3.5307,-3.5384,-3.489,-3.5367,-3.6168,-3.74,-3.76,-3.7954,-3.8631,-3.9293,-3.9659,-3.9708,-4.0166,-4.0489,-4.0489,-4.0489,-4.0536,-4.0782,-4.1797,-4.2663,-4.2802,-4.3787,-4.461,-4.4594,-4.4464,-4.461,-4.4449,-4.3694,-4.3233,-4.3732,-4.4163,-4.4533,-4.4517,-4.4163,-4.3809,-4.3762,-4.334,-4.3171,-4.3608,-4.3778,-4.4009,-4.4409,-4.4594,-4.4548,-4.4579,-4.454,-4.4723,-4.4933,-4.5458,-4.6163,-4.7002,-4.7647,-4.8061,-4.1311,-4.1311,-4.1311,-4.1311,-4.1311,-4.1219,-4.0893,-4.0331,-3.922,-3.8658,-3.8566,-3.8109,-3.79,-3.79,-3.79,-3.7861,-3.7769,-3.7769,-3.7456,0.0,-3.6789,-3.624,-3.5312,-3.5208,-3.4907,-3.4424,-3.4397,-3.4397,-3.4397,-3.4397,-3.4397,-3.4397,-3.4319,-3.3744,-3.2725,-3.2045,-3.1445,-3.1037,-3.1024,-3.1024,-3.1024,-3.1024,-3.0712,-3.014,-3.01,-2.9549,-2.8355,-2.9325,-2.9585,-2.8947,-2.9993,-3.0768,-3.0997,-3.1584,-3.188,-3.1633,-3.2716,-3.3434,-3.3662,-3.4261,-3.5001,-3.5875,-3.6043,-3.6136,-3.6215,-3.6322,-3.6676,-3.7446,-3.8031,-3.8646,-3.9275,-3.9936,-4.0305,-4.032,-4.0413,-4.0489,-4.0489,-4.0505,-4.072,-4.134,-4.2109,-4.2833,-4.3356,-4.4095,-4.461,-4.461,-4.461,-4.461,-4.4579,-4.4433,-4.4341,-4.4418,-4.4533,-4.461,-4.4594,-4.4548,-4.4409,-4.4433,-4.4348,-4.4172,-4.4332,-4.4394,-4.4456,-4.4579,-4.461,-4.461,-4.461,-4.461,-4.503,-4.5877,-4.6324,-4.6914,-4.8081,-4.8553,-4.8798,-4.1311,-4.1311,-4.1311,-4.1311,-4.1311,-4.1311,-4.1167,-4.0827,-4.0004,-3.9272,-3.8697,-3.8449,-3.8174,-3.7913,-3.79,-3.79,-3.79,-3.79,-3.7756,-3.7482,-3.7168,-3.6724,-3.6227,-3.5887,-3.5443,-3.492,-3.4881,-3.4711,-3.4424,-3.4397,-3.4397,-3.4384,-3.411,-3.3692,-3.3156,-3.2254,-3.1667,-3.1444,-3.1143,-3.1024,-3.1024,-3.1024,-3.0869,-3.0607,-3.0594,-3.0202,-2.9379,-2.986,-2.9905,-2.9356,-3.0269,-3.0914,-3.1291,-3.1924,-3.2472,-3.2941,-3.3557,-3.4189,-3.4696,-3.5172,-3.5624,-3.6149,-3.6211,-3.6427,-3.6983,-3.7046,-3.7307,-3.7984,-3.8662,-3.9339,-3.9951,-4.0305,-4.0489,-4.0489,-4.0489,-4.0489,-4.0489,-4.0489,-4.0797,-4.1524,-4.2202,-4.2848,-4.3531,-4.4194,-4.461,-4.461,-4.461,-4.461,-4.461,-4.461,-4.461,-4.461,-4.461,-4.461,-4.461,-4.461,-4.461,-4.461,-4.461,-4.461,-4.461,-4.461,-4.461,-4.461,-4.461,-4.461,-4.461,-4.461,-4.4955,-4.5311,-4.5985,-4.6638,-4.7572,-4.8386,-4.897,-4.1311,-4.1311,-4.1311,-4.1311,-4.1311,-4.1311,-4.1311,-4.1259,-4.0814,-4.0043,-3.9141,-3.8841,-3.841,-3.7926,-3.79,-3.79,-3.79,-3.79,-3.79,-3.7848,-3.7416,-3.7142,-3.6972,-3.6515,-3.6018,-3.5508,-3.5365,-3.5051,-3.4633,-3.4476,-3.4397,-3.4358,-3.3979,-3.3718,-3.3574,-3.2698,-3.2071,-3.1797,-3.1405,-3.1117,-3.0986,-3.1024,-3.1024,-3.1024,-3.1024,-3.0777,-3.0322,-3.0283,-3.0124,-2.9742,-3.0175,-3.0751,-3.1404,-3.2048,-3.2859,-3.3731,-3.4279,-3.4876,-3.5574,-3.5782,-3.5941,-3.607,-3.6222,-3.6638,-3.7319,-3.772,-3.8121,-3.8659,-3.9185,-3.9736,-4.032,-4.0474,-4.0489,-4.0489,-4.0489,-4.0489,-4.0489,-4.0489,-4.0843,-4.1678,-4.2294,-4.2894,-4.3685,-4.4286,-4.4579,-4.461,-4.461,-4.461,-4.461,-4.461,-4.461,-4.461,-4.461,-4.461,-4.461,-4.461,-4.461,-4.461,-4.461,-4.461,-4.461,-4.461,-4.461,-4.461,-4.461,-4.461,-4.461,-4.461,-4.4723,-4.5046,-4.5494,-4.604,-4.7069,-4.8177,-4.897,-4.1311,-4.1311,-4.1311,-4.1311,-4.1311,-4.1311,-4.1311,-4.1298,-4.1246,-4.083,-4.0135,-3.9168,-3.8423,-3.7952,-3.7913,-3.79,-3.79,-3.79,-3.79,-3.79,-3.7848,-3.7534,-3.7063,-3.6946,-3.6606,-3.6031,-3.5561,-3.5299,-3.5142,-3.4646,-3.4397,-3.4397,-3.4345,-3.4071,-3.3639,-3.347,-3.2894,-3.1823,-3.1745,-3.1471,-3.1026,-3.1024,-3.1024,-3.1024,-3.1024,-3.0973,-3.0869,-3.0908,-3.0882,-3.083,-3.0865,-3.1249,-3.1942,-3.2672,-3.2876,-3.2456,-3.4221,-3.5439,-3.5489,-3.5537,-3.5634,-3.5765,-3.6356,-3.6849,-3.7327,-3.8353,-3.914,-3.9364,-3.9459,-3.9828,-4.0382,-4.0489,-4.0489,-4.0489,-4.0489,-4.0489,-4.0489,-4.0489,-4.0997,-4.2335,-4.254,-4.3063,-4.4156,-4.4548,-4.4594,-4.461,-4.461,-4.461,-4.461,-4.461,-4.461,-4.461,-4.461,-4.461,-4.461,-4.461,-4.461,-4.461,-4.461,-4.461,-4.461,-4.461,-4.461,-4.461,-4.461,-4.461,-4.461,-4.461,-4.4821,-4.5179,-4.5588,-4.6111,-4.7406,-4.8338,-4.8829,-4.1311,-4.1311,-4.1311,-4.1311,-4.1311,-4.1311,-4.1311,-4.1311,-4.1311,-4.0971,-4.0357,-3.9586,-3.8919,-3.837,-3.8044,-3.79,-3.79,-3.79,-3.79,-3.79,-3.79,-3.7782,-3.756,-3.7534,-3.722,-3.6619,-3.6044,-3.5613,-3.5247,-3.4698,-3.4397,-3.4397,-3.4397,-3.428,-3.4071,-3.3757,-3.3182,-3.2372,-3.1967,-3.1523,-3.1065,-3.1024,-3.1024,-3.1024,-3.1024,-3.1024,-3.1024,-3.1024,-3.1024,-3.1024,-3.1024,-3.1123,-3.1431,-3.175,-3.1969,-3.2123,-3.3353,-3.4356,-3.4758,-3.5144,-3.57,-3.6421,-3.7104,-3.7767,-3.8481,-3.9066,-3.956,-4.0013,-4.0074,-4.0213,-4.0459,-4.0489,-4.0489,-4.0489,-4.0489,-4.0489,-4.0489,-4.0505,-4.1028,-4.2355,-4.2617,-4.311,-4.4233,-4.461,-4.461,-4.461,-4.461,-4.461,-4.461,-4.461,-4.461,-4.461,-4.461,-4.461,-4.461,-4.461,-4.461,-4.461,-4.461,-4.461,-4.461,-4.461,-4.461,-4.461,-4.461,-4.461,-4.461,-4.461,-4.4761,-4.5142,-4.5551,-4.604,-4.7069,-4.7819,-4.8242,-4.1311,-4.1311,-4.1311,-4.1311,-4.1311,-4.1311,-4.1311,-4.1311,-4.1311,-4.1063,-4.0631,-4.0082,-3.952,-3.8906,-3.8227,-3.79,-3.79,-3.79,-3.79,-3.79,-3.79,-3.79,-3.79,-3.79,-3.7678,-3.722,-3.6645,-3.5992,-3.5312,-3.4685,-3.4397,-3.4397,-3.4397,-3.4397,-3.4371,-3.3979,-3.3535,-3.2947,-3.2332,-3.1745,-3.1287,-3.1078,-3.1024,-3.1024,-3.1024,-3.1024,-3.1024,-3.1024,-3.1024,-3.1024,-3.1024,-3.1024,-3.1024,-3.1185,-3.164,-3.2304,-3.2684,-3.3333,-3.4183,-3.4891,-3.5722,-3.6701,-3.7635,-3.8497,-3.918,-3.9576,-3.9948,-4.0382,-4.0489,-4.0474,-4.0489,-4.0489,-4.0489,-4.0489,-4.0489,-4.0489,-4.0489,-4.0628,-4.1274,-4.2386,-4.2802,-4.3279,-4.4279,-4.461,-4.461,-4.461,-4.461,-4.461,-4.461,-4.461,-4.461,-4.461,-4.461,-4.461,-4.461,-4.461,-4.461,-4.461,-4.461,-4.461,-4.461,-4.461,-4.461,-4.461,-4.461,-4.461,-4.461,-4.461,-4.4625,-4.4723,-4.5179,-4.5805,-4.6394,-4.7119,-4.7489,-4.1311,-4.1311,-4.1311,-4.1311,-4.1311,-4.1311,-4.1311,-4.1311,-4.1311,-4.1285,-4.1154,-4.0618,-4.0069,-3.9468,-3.8423,-3.7913,-3.79,-3.79,-3.79,-3.79,-3.79,-3.79,-3.79,-3.79,-3.7874,-3.773,-3.7168,-3.6345,-3.5312,-3.4724,-3.4397,-3.4397,-3.4397,-3.4397,-3.4384,-3.4345,-3.4071,-3.3483,-3.2934,-3.2359,-3.1771,-3.1261,-3.1063,-3.0999,-3.1024,-3.1024,-3.1024,-3.1024,-3.1024,-3.1024,-3.1024,-3.1024,-3.1048,-3.164,-3.2268,-3.2875,-3.2484,-3.2731,-3.3958,-3.4845,-3.5625,-3.6397,-3.7819,-3.8776,-3.9188,-3.9784,-4.0243,-4.0455,-4.0505,-4.0489,-4.0489,-4.0489,-4.0489,-4.0489,-4.0489,-4.0489,-4.0489,-4.1093,-4.1801,-4.2525,-4.3156,-4.3824,-4.4502,-4.461,-4.461,-4.461,-4.461,-4.461,-4.461,-4.461,-4.461,-4.461,-4.461,-4.461,-4.461,-4.461,-4.461,-4.461,-4.461,-4.461,-4.461,-4.461,-4.461,-4.461,-4.461,-4.461,-4.461,-4.461,-4.461,-4.4746,-4.5104,-4.564,-4.5733,-4.6359,-4.6726,-4.1311,-4.1311,-4.1311,-4.1311,-4.1311,-4.1311,-4.1311,-4.1311,-4.1311,-4.1311,-4.1206,-4.0684,-4.0109,-3.9573,-3.8776,-3.8227,-3.7913,-3.79,-3.79,-3.79,-3.79,-3.79,-3.79,-3.79,-3.79,-3.7808,-3.7286,-3.6423,-3.5404,-3.5064,-3.4763,-3.445,-3.4397,-3.4397,-3.4397,-3.4397,-3.4136,-3.3626,-3.3365,-3.2816,-3.1915,-3.1588,-3.1365,-3.105,-3.1024,-3.1024,-3.1024,-3.1024,-3.1024,-3.1024,-3.1024,-3.1024,-3.1024,-3.1259,-3.1505,-3.1753,-3.1889,-3.2332,-3.3408,-3.4885,-3.6157,-3.7047,-3.8469,-3.939,-3.9662,-4.0054,-4.0347,-4.0366,-4.047,-4.0489,-4.0489,-4.0489,-4.0489,-4.0489,-4.0489,-4.0505,-4.0628,-4.117,-4.1863,-4.2586,-4.3494,-4.4363,-4.4502,-4.461,-4.461,-4.461,-4.461,-4.461,-4.461,-4.461,-4.461,-4.461,-4.461,-4.461,-4.461,-4.461,-4.461,-4.461,-4.461,-4.461,-4.461,-4.461,-4.461,-4.461,-4.461,-4.461,-4.461,-4.461,-4.461,-4.467,-4.503,-4.5104,-4.4993,-4.566,-4.6005,-4.1311,-4.1311,-4.1311,-4.1311,-4.1311,-4.1311,-4.1311,-4.1311,-4.1311,-4.1311,-4.1232,-4.088,-4.0396,-3.9834,-3.9259,-3.8684,-3.8174,-3.7991,-3.79,-3.79,-3.79,-3.79,-3.79,-3.79,-3.79,-3.7808,-3.7286,-3.6488,-3.5639,-3.5378,-3.4986,-3.4424,-3.4397,-3.4397,-3.4397,-3.4397,-3.4201,-3.3888,-3.3692,-3.3169,-3.2424,-3.2176,-3.194,-3.1575,-3.1365,-3.1169,-3.1037,-3.1024,-3.1024,-3.1024,-3.1024,-3.1024,-3.1024,-3.1024,-3.1065,-3.1274,-3.1575,-3.2212,-3.32,-3.4764,-3.6155,-3.7232,-3.8509,-3.9436,-3.9839,-4.0101,-4.0172,-4.0226,-4.0331,-4.042,-4.042,-4.0455,-4.0489,-4.0489,-4.0489,-4.0612,-4.0843,-4.1509,-4.2309,-4.3217,-4.4055,-4.4533,-4.461,-4.461,-4.461,-4.461,-4.461,-4.461,-4.461,-4.461,-4.461,-4.461,-4.461,-4.461,-4.461,-4.461,-4.461,-4.461,-4.461,-4.461,-4.461,-4.461,-4.461,-4.461,-4.461,-4.461,-4.461,-4.461,-4.461,-4.461,-4.467,-4.4783,-4.4858,-4.5008,-4.5311,-4.1311,-4.1311,-4.1311,-4.1311,-4.1311,-4.1311,-4.1311,-4.1311,-4.1311,-4.1311,-4.1298,-4.1272,-4.088,-4.0357,-3.9743,-3.9233,-3.8632,-3.8135,-3.79,-3.79,-3.79,-3.79,-3.79,-3.79,-3.79,-3.7874,-3.7325,-3.6737,-3.6123,-3.5626,-3.5077,-3.4541,-3.4424,-3.4397,-3.4397,-3.4397,-3.4384,-3.4254,-3.3888,-3.3587,-3.3509,-3.2973,-3.2646,-3.2542,-3.2058,-3.1575,-3.1104,-3.1063,-3.1024,-3.1024,-3.1024,-3.1024,-3.0986,-3.1039,-3.1261,-3.1654,-3.1823,-3.245,-3.346,-3.4445,-3.5611,-3.6722,-3.7823,-3.8826,-3.9415,-3.9839,-3.9996,-4.0016,-4.0172,-4.0296,-4.0347,-4.0401,-4.0489,-4.0505,-4.0566,-4.0924,-4.1478,-4.2186,-4.3079,-4.4178,-4.4579,-4.4594,-4.461,-4.461,-4.461,-4.461,-4.461,-4.461,-4.461,-4.461,-4.461,-4.461,-4.461,-4.461,-4.461,-4.461,-4.461,-4.461,-4.461,-4.461,-4.461,-4.461,-4.461,-4.461,-4.461,-4.461,-4.461,-4.461,-4.461,-4.461,-4.461,-4.461,-4.4708,-4.4821,-4.4746,-4.1311,-4.1311,-4.1311,-4.1311,-4.1311,-4.1311,-4.1311,-4.1311,-4.1311,-4.1311,-4.1311,-4.1311,-4.0984,-4.0409,-3.9847,-3.9285,-3.8684,-3.8161,-3.79,-3.79,-3.79,-3.79,-3.79,-3.79,-3.79,-3.7874,-3.773,-3.7312,-3.6698,-3.6123,-3.5561,-3.5051,-3.4593,-3.441,-3.4397,-3.4397,-3.4397,-3.4371,-3.4241,-3.3979,-3.3639,-3.3417,-3.313,-3.2712,-3.2515,-3.2333,-3.215,-3.1456,-3.105,-3.105,-3.1024,-3.1024,-3.1052,-3.1365,-3.1653,-3.1863,-3.2594,-3.3143,-3.3643,-3.4674,-3.5518,-3.6239,-3.7424,-3.83,-3.8723,-3.9358,-3.9732,-3.9768,-3.996,-4.0137,-4.0261,-4.0331,-4.0385,-4.0505,-4.092,-4.1324,-4.1755,-4.2617,-4.3571,-4.4394,-4.461,-4.461,-4.461,-4.461,-4.461,-4.461,-4.461,-4.461,-4.461,-4.461,-4.461,-4.461,-4.461,-4.461,-4.461,-4.461,-4.461,-4.461,-4.461,-4.461,-4.461,-4.461,-4.461,-4.461,-4.461,-4.461,-4.461,-4.461,-4.461,-4.461,-4.461,-4.461,-4.461,-4.461,-4.461,-4.101,-4.1261,-4.0946,-4.106,-4.1211,-4.101,-4.0846,-4.0795,-4.0478,-4.0516,-4.0808,-4.0858,-4.0852,-4.0585,-4.0161,-3.9599,-3.9011,-3.8449,-3.8096,-3.7926,-3.79,-3.79,-3.79,-3.79,-3.79,-3.79,-3.79,-3.7586,-3.7011,-3.6606,-3.6057,-3.5338,-3.4907,-3.4607,-3.4437,-3.4397,-3.4397,-3.4397,-3.4384,-3.4241,-3.3966,-3.3888,-3.3718,-3.3365,-3.3143,-3.3038,-3.296,-3.2097,-3.1652,-3.1614,-3.1614,-3.1627,-3.1666,-3.198,-3.2215,-3.2554,-3.313,-3.3652,-3.3957,-3.4682,-3.5386,-3.583,-3.6702,-3.74,-3.7782,-3.862,-3.9126,-3.9162,-3.9589,-3.996,-4.0137,-4.0277,-4.0331,-4.0505,-4.1155,-4.1786,-4.2294,-4.33,-4.404,-4.4517,-4.461,-4.461,-4.461,-4.461,-4.461,-4.461,-4.461,-4.461,-4.461,-4.461,-4.461,-4.461,-4.461,-4.461,-4.461,-4.461,-4.461,-4.461,-4.461,-4.461,-4.461,-4.461,-4.461,-4.461,-4.461,-4.461,-4.461,-4.461,-4.461,-4.461,-4.461,-4.461,-4.461,-4.461,-4.461,-4.0478,-4.1047,-4.0338,-4.0427,-4.0896,-4.0326,-4.0121,-4.0019,-3.9272,-3.948,-4.0121,-4.0275,-4.058,-4.1004,-4.0592,-4.003,-3.9547,-3.8906,-3.8344,-3.8004,-3.79,-3.79,-3.79,-3.79,-3.79,-3.79,-3.79,-3.7612,-3.7168,-3.6972,-3.6449,-3.5495,-3.5286,-3.4972,-3.4515,-3.4397,-3.4397,-3.4397,-3.4397,-3.4371,-3.4345,-3.4358,-3.4345,-3.428,-3.3875,-3.3626,-3.3535,-3.3077,-3.2738,-3.2685,-3.2542,-3.2515,-3.2633,-3.2698,-3.2999,-3.3417,-3.3587,-3.3914,-3.4267,-3.4441,-3.4799,-3.5413,-3.5749,-3.6002,-3.6816,-3.7615,-3.8136,-3.8211,-3.898,-3.961,-3.9803,-4.0101,-4.0277,-4.0624,-4.1304,-4.2217,-4.3408,-4.4132,-4.4486,-4.4579,-4.461,-4.461,-4.461,-4.461,-4.461,-4.461,-4.461,-4.461,-4.461,-4.461,-4.461,-4.461,-4.461,-4.461,-4.461,-4.461,-4.461,-4.461,-4.461,-4.461,-4.461,-4.461,-4.461,-4.461,-4.461,-4.461,-4.461,-4.461,-4.461,-4.461,-4.461,-4.461,-4.461,-4.461,-4.461,-3.9272,-3.9415,-3.9208,-3.9272,-3.9415,-3.9221,-3.9492,-3.9917,-3.9169,-3.948,-4.058,-4.0326,-4.0491,-4.1196,-4.0684,-4.0122,-3.9573,-3.8985,-3.8423,-3.7965,-3.79,-3.79,-3.79,-3.79,-3.79,-3.79,-3.79,-3.7821,-3.7639,-3.7246,-3.6632,-3.59,-3.5495,-3.4999,-3.4502,-3.4397,-3.4397,-3.4397,-3.4397,-3.4397,-3.4397,-3.4397,-3.4397,-3.4384,-3.4241,-3.4162,-3.4175,-3.4031,-3.3509,-3.2751,-3.2672,-3.2672,-3.279,-3.3143,-3.3443,-3.3613,-3.3966,-3.4214,-3.4345,-3.4397,-3.4522,-3.4758,-3.5305,-3.579,-3.6002,-3.6752,-3.7179,-3.7372,-3.8084,-3.8708,-3.8936,-3.9472,-4.0163,-4.1031,-4.1679,-4.2571,-4.347,-4.4178,-4.461,-4.461,-4.461,-4.461,-4.461,-4.461,-4.461,-4.461,-4.461,-4.461,-4.461,-4.461,-4.461,-4.461,-4.461,-4.461,-4.461,-4.461,-4.461,-4.461,-4.461,-4.461,-4.461,-4.461,-4.461,-4.461,-4.461,-4.461,-4.461,-4.461,-4.461,-4.461,-4.461,-4.461,-4.461,-4.461,-4.461,-3.8477,-3.8739,-3.8425,-3.8465,-3.8739,-3.8413,-3.8518,-3.8739,-3.8161,-3.8687,-3.9853,-3.9801,-4.0224,-4.1196,-4.0684,-4.0135,-3.9586,-3.8985,-3.8423,-3.7965,-3.79,-3.79,-3.79,-3.79,-3.79,-3.79,-3.79,-3.79,-3.7848,-3.7534,-3.6946,-3.6188,-3.5796,-3.5221,-3.445,-3.4397,-3.4397,-3.4397,-3.4397,-3.4397,-3.4397,-3.4397,-3.4397,-3.4397,-3.4397,-3.4397,-3.4397,-3.4384,-3.4058,-3.3548,-3.3417,-3.3404,-3.343,-3.3718,-3.3927,-3.394,-3.4241,-3.4397,-3.4397,-3.4397,-3.4397,-3.4481,-3.4909,-3.5114,-3.5305,-3.5936,-3.6399,-3.6464,-3.7491,-3.8173,-3.8517,-3.9241,-4.0076,-4.0746,-4.1577,-4.2468,-4.3448,-4.3932,-4.4302,-4.4486,-4.461,-4.461,-4.461,-4.461,-4.461,-4.461,-4.461,-4.461,-4.461,-4.461,-4.461,-4.461,-4.461,-4.461,-4.461,-4.461,-4.461,-4.461,-4.461,-4.461,-4.461,-4.461,-4.461,-4.461,-4.461,-4.461,-4.461,-4.461,-4.461,-4.461,-4.461,-4.461,-4.461,-4.461,-4.461,-3.7832,-3.8477,-3.7672,-3.7844,-3.8267,-3.7737,-3.7524,-3.7418,-3.6785,-3.7483,-3.8856,-3.8896,-3.9853,-4.1235,-4.0684,-4.0122,-3.9586,-3.8985,-3.8423,-3.8044,-3.79,-3.79,-3.79,-3.79,-3.79,-3.79,-3.79,-3.79,-3.7887,-3.7861,-3.722,-3.6358,-3.607,-3.5456,-3.462,-3.4397,-3.4397,-3.4397,-3.4397,-3.4397,-3.4397,-3.4397,-3.4397,-3.4397,-3.4397,-3.4397,-3.4397,-3.4397,-3.4332,-3.4371,-3.4397,-3.4293,-3.4319,-3.4371,-3.4371,-3.4345,-3.4358,-3.4397,-3.4397,-3.4397,-3.4397,-3.4439,-3.4439,-3.4397,-3.4634,-3.5182,-3.5548,-3.5534,-3.7,-3.7691,-3.8204,-3.9096,-3.9711,-4.0127,-4.0731,-4.1801,-4.2981,-4.3516,-4.387,-4.4502,-4.4594,-4.461,-4.461,-4.461,-4.461,-4.461,-4.461,-4.461,-4.461,-4.461,-4.461,-4.461,-4.461,-4.461,-4.461,-4.461,-4.461,-4.461,-4.461,-4.461,-4.461,-4.461,-4.461,-4.461,-4.461,-4.461,-4.461,-4.461,-4.461,-4.461,-4.461,-4.461,-4.461,-4.461,-4.461,-3.6688,-3.6796,-3.6646,-3.6688,-3.6796,-3.6634,-3.6947,-3.7418,-3.6646,-3.7536,-3.9233,-3.9052,-3.9737,-4.1185,-4.0559,-4.0122,-3.9512,-3.8911,-3.8423,-3.7952,-3.79,-3.79,-3.79,-3.79,-3.79,-3.79,-3.79,-3.79,-3.79,-3.7808,-3.7299,-3.6292,-3.607,-3.5534,-3.4607,-3.4424,-3.4397,-3.4397,-3.4397,-3.4397,-3.4397,-3.4397,-3.4397,-3.4397,-3.4397,-3.4397,-3.4397,-3.4397,-3.4397,-3.4397,-3.4397,-3.4397,-3.4397,-3.4397,-3.4397,-3.4397,-3.4397,-3.4397,-3.4397,-3.4397,-3.4397,-3.4397,-3.4397,-3.4397,-3.4397,-3.4564,-3.4716,-3.484,-3.5629,-3.6635,-3.7305,-3.8084,-3.8657,-3.9104,-3.9775,-4.0731,-4.1879,-4.294,-4.3778,-4.4348,-4.4579,-4.461,-4.461,-4.461,-4.461,-4.461,-4.461,-4.461,-4.461,-4.461,-4.461,-4.461,-4.461,-4.461,-4.461,-4.461,-4.461,-4.461,-4.461,-4.461,-4.461,-4.461,-4.461,-4.461,-4.461,-4.461,-4.461,-4.461,-4.461,-4.461,-4.461,-4.461,-4.461,-4.461,-4.461,-3.6266,-3.6266,-3.6266,-3.6266,-3.6266,-3.632,-3.6538,-3.6785,-3.6483,-3.7269,-3.853,-3.836,-3.8948,-4.0084,-3.962,-3.9226,-3.8936,-3.8556,-3.8187,-3.7926,-3.79,-3.79,-3.79,-3.79,-3.79,-3.79,-3.79,-3.79,-3.79,-3.7835,-3.7442,-3.6567,-3.6266,-3.5691,-3.4855,-3.4541,-3.441,-3.4397,-3.4397,-3.4397,-3.4397,-3.4397,-3.4397,-3.4397,-3.4397,-3.4397,-3.4397,-3.4397,-3.4397,-3.4397,-3.4397,-3.4397,-3.4397,-3.4397,-3.4397,-3.4397,-3.4397,-3.4397,-3.4397,-3.4397,-3.4397,-3.4397,-3.4397,-3.4397,-3.4397,-3.4397,-3.4397,-3.4592,-3.5237,-3.6056,-3.6802,-3.7218,-3.7715,-3.8055,-3.8752,-3.967,-4.0813,-4.2172,-4.3371,-4.4024,-4.4356,-4.4533,-4.461,-4.461,-4.461,-4.461,-4.461,-4.461,-4.461,-4.461,-4.461,-4.461,-4.461,-4.461,-4.461,-4.461,-4.461,-4.461,-4.461,-4.461,-4.461,-4.461,-4.461,-4.461,-4.461,-4.461,-4.461,-4.461,-4.4548,-4.4594,-4.4594,-4.4594,-4.461,-4.461,-4.461,-3.6266,-3.6266,-3.6266,-3.6266,-3.6266,-3.6266,-3.632,-3.632,-3.6266,-3.685,-3.7406,-3.7512,-3.8149,-3.8662,-3.8542,-3.8322,-3.8213,-3.8101,-3.7926,-3.7913,-3.79,-3.79,-3.79,-3.79,-3.79,-3.79,-3.79,-3.79,-3.79,-3.7861,-3.7547,-3.6985,-3.6541,-3.5913,-3.5299,-3.4842,-3.4528,-3.4437,-3.4397,-3.4397,-3.4397,-3.4397,-3.4397,-3.4397,-3.4397,-3.4397,-3.4397,-3.4397,-3.4397,-3.4397,-3.4397,-3.4397,-3.4397,-3.4397,-3.4397,-3.4397,-3.4397,-3.4397,-3.4397,-3.4397,-3.4397,-3.4397,-3.4397,-3.4397,-3.4397,-3.4397,-3.4397,-3.4592,-3.5032,-3.5615,-3.6411,-3.666,-3.6791,-3.7127,-3.7738,-3.8662,-3.981,-4.1304,-4.2349,-4.3593,-4.4225,-4.4579,-4.461,-4.461,-4.461,-4.461,-4.461,-4.461,-4.461,-4.461,-4.461,-4.461,-4.461,-4.461,-4.461,-4.461,-4.461,-4.461,-4.461,-4.461,-4.461,-4.461,-4.461,-4.461,-4.461,-4.4548,-4.4409,-4.4255,-4.4286,-4.4456,-4.444,-4.4317,-4.4409,-4.4579,-4.461,-3.6266,-3.6266,-3.6266,-3.6266,-3.6266,-3.6266,-3.6266,-3.6266,-3.6266,-3.6731,-3.7418,-3.7512,-3.7885,-3.8457,-3.8417,-3.8194,-3.7882,-3.7794,-3.7841,-3.79,-3.79,-3.79,-3.79,-3.79,-3.79,-3.79,-3.79,-3.79,-3.79,-3.7861,-3.7625,-3.7103,-3.6867,-3.6332,-3.5574,-3.5142,-3.4816,-3.445,-3.4397,-3.4397,-3.4397,-3.4397,-3.4397,-3.4397,-3.4397,-3.4397,-3.4397,-3.4397,-3.4397,-3.4397,-3.4397,-3.4397,-3.4397,-3.4397,-3.4397,-3.4397,-3.4397,-3.4397,-3.4397,-3.4397,-3.4397,-3.4397,-3.4397,-3.4397,-3.4397,-3.4397,-3.4397,-3.4439,-3.4522,-3.4758,-3.484,-3.5494,-3.5936,-3.632,-3.6908,-3.782,-3.8951,-4.0084,-4.139,-4.2925,-4.382,-4.4517,-4.444,-4.4425,-4.4486,-4.4533,-4.461,-4.461,-4.461,-4.461,-4.461,-4.461,-4.461,-4.461,-4.461,-4.461,-4.461,-4.461,-4.461,-4.461,-4.461,-4.461,-4.461,-4.461,-4.4456,-4.4286,-4.4117,-4.3917,-4.3778,-4.3741,-4.3855,-4.3978,-4.4209,-4.4409,-4.4594,-3.6266,-3.6266,-3.6266,-3.6266,-3.6266,-3.6266,-3.6266,-3.6266,-3.632,-3.6538,-3.6785,-3.6893,-3.7108,-3.7357,-3.719,-3.7131,-3.7258,-3.7261,-3.7505,-3.7749,-3.79,-3.79,-3.7854,-3.7854,-3.79,-3.79,-3.79,-3.79,-3.79,-3.79,-3.7717,-3.7482,-3.7181,-3.6554,-3.5835,-3.5417,-3.4999,-3.4554,-3.441,-3.4397,-3.4397,-3.4397,-3.4397,-3.4397,-3.4397,-3.4397,-3.4397,-3.4397,-3.4397,-3.4397,-3.4397,-3.4397,-3.4397,-3.4397,-3.4397,-3.4397,-3.4397,-3.4397,-3.4397,-3.4397,-3.4397,-3.4397,-3.4397,-3.4397,-3.4397,-3.4397,-3.4397,-3.4397,-3.4397,-3.4397,-3.4481,-3.4827,-3.5032,-3.5277,-3.5936,-3.6894,-3.7967,-3.9051,-4.0554,-4.2086,-4.2824,-4.3427,-4.404,-4.4101,-4.4286,-4.4425,-4.4548,-4.4594,-4.4579,-4.461,-4.461,-4.461,-4.461,-4.461,-4.461,-4.461,-4.461,-4.461,-4.461,-4.461,-4.461,-4.461,-4.461,-4.461,-4.4394,-4.3917,-4.3716,-4.3433,-4.3248,-4.311,-4.3393,-4.3655,-4.3994,-4.4255,-4.4409,-3.6266,-3.6266,-3.6266,-3.6266,-3.6266,-3.6266,-3.6266,-3.6266,-3.6266,-3.632,-3.6266,-3.632,-3.632,-3.626,-3.6183,-3.6134,-3.649,-3.6474,-3.6828,-3.7168,-3.7273,-3.7366,-3.7413,-3.7472,-3.7366,-3.7505,-3.7551,-3.7762,-3.79,-3.79,-3.79,-3.7743,-3.7351,-3.6881,-3.6319,-3.5796,-3.5168,-3.4737,-3.4424,-3.4397,-3.4397,-3.4397,-3.4397,-3.4397,-3.4397,-3.4397,-3.4397,-3.4397,-3.4397,-3.4397,-3.4397,-3.4397,-3.4397,-3.4397,-3.4397,-3.4397,-3.4397,-3.4397,-3.4397,-3.4397,-3.4397,-3.4397,-3.4397,-3.4397,-3.4397,-3.4397,-3.4397,-3.4397,-3.4397,-3.4397,-3.4397,-3.4397,-3.4439,-3.4564,-3.5114,-3.5924,-3.7162,-3.8326,-3.9387,-4.0626,-4.1538,-4.2312,-4.2925,-4.3464,-4.3587,-4.4024,-4.4163,-4.4471,-4.4471,-4.4579,-4.461,-4.461,-4.461,-4.461,-4.461,-4.461,-4.461,-4.461,-4.461,-4.461,-4.461,-4.461,-4.4548,-4.4379,-4.3747,-4.3316,-4.314,-4.291,-4.2586,-4.254,-4.2946,-4.3239,-4.3371,-4.3809,-4.4117,-3.6266,-3.6266,-3.6266,-3.6266,-3.6266,-3.6266,-3.6266,-3.6266,-3.6266,-3.6266,-3.6211,-3.6254,-3.6254,-3.6137,-3.5916,-3.5811,-3.5745,-3.5763,-3.5858,-3.6156,-3.6156,-3.6156,-3.5953,-3.5858,-3.6487,-3.6909,-3.6956,-3.7307,-3.7749,-3.79,-3.79,-3.7848,-3.7756,-3.7456,-3.6776,-3.6175,-3.5744,-3.5182,-3.4659,-3.4397,-3.4397,-3.4397,-3.4397,-3.4397,-3.4397,-3.4397,-3.4397,-3.4397,-3.4397,-3.4397,-3.4397,-3.4397,-3.4397,-3.4397,-3.4397,-3.4397,-3.4397,-3.4397,-3.4397,-3.4397,-3.4397,-3.4397,-3.4397,-3.4397,-3.4397,-3.4397,-3.4397,-3.4397,-3.4397,-3.4397,-3.4397,-3.4397,-3.4397,-3.4397,-3.4592,-3.5615,-3.6755,-3.7137,-3.826,-3.9129,-4.0016,-4.1034,-4.1867,-4.2414,-4.2925,-4.3356,-4.3809,-4.4101,-4.4379,-4.4486,-4.4594,-4.461,-4.461,-4.461,-4.461,-4.461,-4.461,-4.461,-4.461,-4.461,-4.461,-4.4548,-4.4225,-4.3932,-4.33,-4.2756,-4.2586,-4.2294,-4.1894,-4.1878,-4.2155,-4.2417,-4.2648,-4.3125,-4.3716,-3.5708,-3.6266,-3.5927,-3.5993,-3.6277,-3.6266,-3.6102,-3.5817,-3.5763,-3.5763,-3.5763,-3.5817,-3.5654,-3.5435,-3.5027,-3.4861,-3.4907,-3.4933,-3.5223,-3.5463,-3.5523,-3.5571,-3.5667,-3.5667,-3.5988,-3.6521,-3.6769,-3.7214,-3.7657,-3.79,-3.79,-3.79,-3.7874,-3.7573,-3.7063,-3.6423,-3.5835,-3.5273,-3.475,-3.4424,-3.4397,-3.4397,-3.4397,-3.4397,-3.4397,-3.4397,-3.4397,-3.4397,-3.4397,-3.4397,-3.4397,-3.4397,-3.4397,-3.4397,-3.4397,-3.4397,-3.4397,-3.4397,-3.4397,-3.4397,-3.4397,-3.4397,-3.4397,-3.4397,-3.4397,-3.4397,-3.4397,-3.4397,-3.4397,-3.4397,-3.4397,-3.4397,-3.4397,-3.4397,-3.4397,-3.5142,-3.6002,-3.6201,-3.6808,-3.7653,-3.8486,-3.9461,-4.0456,-4.1204,-4.1922,-4.2744,-4.3227,-4.3648,-4.4018,-4.4363,-4.4486,-4.461,-4.461,-4.461,-4.461,-4.461,-4.461,-4.461,-4.461,-4.461,-4.461,-4.4471,-4.4163,-4.3701,-4.311,-4.2633,-4.2171,-4.1648,-4.1186,-4.1217,-4.134,-4.1678,-4.2032,-4.2602,-4.3156,-3.4869,-3.5763,-3.5378,-3.5422,-3.5817,-3.5884,-3.5598,-3.5201,-3.5378,-3.5433,-3.5388,-3.5429,-3.5187,-3.46,-3.4251,-3.4144,-3.4127,-3.4115,-3.4458,-3.4848,-3.5042,-3.509,-3.5126,-3.5307,-3.575,-3.6662,-3.6722,-3.7168,-3.7657,-3.79,-3.79,-3.79,-3.79,-3.7691,-3.7181,-3.6475,-3.5783,-3.4999,-3.4607,-3.441,-3.4397,-3.4397,-3.4397,-3.4397,-3.4397,-3.4397,-3.4397,-3.4397,-3.4397,-3.4397,-3.4397,-3.4397,-3.4397,-3.4397,-3.4397,-3.4397,-3.4397,-3.4397,-3.4397,-3.4397,-3.4397,-3.4397,-3.4397,-3.4397,-3.4397,-3.4397,-3.4397,-3.4397,-3.4397,-3.4397,-3.4397,-3.4397,-3.4397,-3.4397,-3.4397,-3.4991,-3.5467,-3.5736,-3.6162,-3.7035,-3.7663,-3.7738,-3.8719,-3.9793,-4.0807,-4.1928,-4.2631,-4.3165,-4.371,-4.4172,-4.4418,-4.4572,-4.4572,-4.4572,-4.461,-4.461,-4.461,-4.461,-4.461,-4.461,-4.461,-4.444,-4.4178,-4.3602,-4.2956,-4.2217,-4.1571,-4.0981,-4.0505,-4.0735,-4.0986,-4.114,-4.1494,-4.2094,-4.2756,-3.4054,-3.4591,-3.458,-3.4591,-3.4692,-3.4636,-3.4636,-3.4703,-3.5146,-3.53,-3.5244,-3.5284,-3.4683,-3.4165,-3.3777,-3.357,-3.3381,-3.3381,-3.3507,-3.3519,-3.353,-3.3991,-3.4311,-3.469,-3.5174,-3.6273,-3.638,-3.6862,-3.7657,-3.7703,-3.7808,-3.79,-3.79,-3.7874,-3.7495,-3.6737,-3.5704,-3.4972,-3.4567,-3.4463,-3.4424,-3.4397,-3.4397,-3.4397,-3.4397,-3.4397,-3.4397,-3.4397,-3.4397,-3.4397,-3.4397,-3.4397,-3.4397,-3.4397,-3.4397,-3.4397,-3.4397,-3.4397,-3.4397,-3.4397,-3.4397,-3.4397,-3.4397,-3.4397,-3.4397,-3.4397,-3.4397,-3.4397,-3.4397,-3.4397,-3.4397,-3.4397,-3.4397,-3.4397,-3.4439,-3.4758,-3.5155,-3.5386,-3.5883,-3.6607,-3.6841,-3.6763,-3.7242,-3.8362,-3.9534,-4.0661,-4.1998,-4.2582,-4.3453,-4.3982,-4.4365,-4.4534,-4.4572,-4.4572,-4.4572,-4.461,-4.461,-4.461,-4.461,-4.461,-4.461,-4.4394,-4.4255,-4.334,-4.2633,-4.1801,-4.1078,-4.072,-4.0489,-4.0489,-4.0612,-4.0797,-4.1263,-4.1894,-4.2602,-3.3172,-3.3388,-3.3388,-3.3829,-3.4469,-3.4469,-3.4469,-3.4525,-3.4758,-3.4692,-3.4383,-3.3846,-3.3384,-3.3016,-3.2659,-3.2441,-3.2313,-3.2633,-3.2745,-3.2908,-3.3108,-3.3469,-3.3694,-3.393,-3.4274,-3.5162,-3.5403,-3.5988,-3.7015,-3.7214,-3.7564,-3.7703,-3.79,-3.79,-3.756,-3.7024,-3.6057,-3.5247,-3.4894,-3.4816,-3.4424,-3.4397,-3.4397,-3.4397,-3.4397,-3.4397,-3.4397,-3.4397,-3.4397,-3.4397,-3.4397,-3.4397,-3.4397,-3.4397,-3.4397,-3.4397,-3.4397,-3.4397,-3.4397,-3.4397,-3.4397,-3.4397,-3.4397,-3.4397,-3.4397,-3.4397,-3.4397,-3.4397,-3.4397,-3.4397,-3.4397,-3.4397,-3.4397,-3.4397,-3.4481,-3.4675,-3.484,-3.5032,-3.5155,-3.5722,-3.5642,-3.5534,-3.6188,-3.6986,-3.8199,-3.9358,-4.0745,-4.2093,-4.3021,-4.3815,-4.4174,-4.4419,-4.4419,-4.4496,-4.4534,-4.4572,-4.4572,-4.461,-4.461,-4.461,-4.461,-4.4594,-4.4271,-4.3294,-4.2479,-4.1863,-4.1278,-4.072,-4.0489,-4.0489,-4.0489,-4.0551,-4.1058,-4.1709,-4.2417,-3.2669,-3.2649,-3.2525,-3.3046,-3.392,-3.3987,-3.3901,-3.3783,-3.3928,-3.3791,-3.3322,-3.2665,-3.2293,-3.2107,-3.1815,-3.1691,-3.1834,-3.2167,-3.237,-3.2633,-3.3019,-3.3369,-3.3568,-3.3793,-3.4262,-3.4593,-3.4824,-3.5607,-3.6709,-3.6722,-3.7214,-3.7703,-3.79,-3.79,-3.7756,-3.7273,-3.6515,-3.577,-3.5312,-3.5155,-3.4711,-3.4489,-3.4397,-3.4397,-3.4397,-3.4397,-3.4397,-3.4397,-3.4397,-3.4397,-3.4397,-3.4397,-3.4397,-3.4397,-3.4397,-3.4397,-3.4397,-3.4397,-3.4397,-3.4397,-3.4397,-3.4397,-3.4397,-3.4397,-3.4397,-3.4397,-3.4397,-3.4397,-3.4397,-3.4397,-3.4397,-3.4397,-3.4397,-3.4397,-3.4397,-3.4522,-3.4522,-3.4634,-3.4592,-3.4703,-3.4675,-3.484,-3.5494,-3.6413,-3.8155,-3.9387,-4.0815,-4.206,-4.2917,-4.3594,-4.4021,-4.4205,-4.4266,-4.4381,-4.4458,-4.4534,-4.4572,-4.461,-4.461,-4.461,-4.461,-4.461,-4.4332,-4.3479,-4.2709,-4.2063,-4.1463,-4.0858,-4.0612,-4.0489,-4.0489,-4.0505,-4.0889,-4.1504,-4.2232,-3.2628,-3.2618,-3.2173,-3.2302,-3.2783,-3.2763,-3.255,-3.2445,-3.2759,-3.2792,-3.2463,-3.2254,-3.1951,-3.1617,-3.1343,-3.1322,-3.1476,-3.1975,-3.2269,-3.2432,-3.2857,-3.3595,-3.3979,-3.4201,-3.4225,-3.5271,-3.5367,-3.5559,-3.6568,-3.6662,-3.7168,-3.7703,-3.79,-3.79,-3.7848,-3.7325,-3.6711,-3.6123,-3.5626,-3.5443,-3.5103,-3.4724,-3.4567,-3.4397,-3.4397,-3.4397,-3.4397,-3.4397,-3.4397,-3.4397,-3.4397,-3.4397,-3.4397,-3.4397,-3.4397,-3.4397,-3.4397,-3.4397,-3.4397,-3.4397,-3.4397,-3.4397,-3.4397,-3.4397,-3.4397,-3.4397,-3.4397,-3.4397,-3.4397,-3.4397,-3.4397,-3.4397,-3.4397,-3.4397,-3.4397,-3.4397,-3.4397,-3.4397,-3.4397,-3.4397,-3.4397,-3.4522,-3.506,-3.6045,-3.8054,-3.9637,-4.0995,-4.2025,-4.2781,-4.3326,-4.378,-4.3972,-4.4089,-4.4243,-4.4358,-4.4496,-4.4572,-4.4572,-4.461,-4.461,-4.461,-4.461,-4.4209,-4.3556,-4.3063,-4.2494,-4.1755,-4.1016,-4.0735,-4.0489,-4.0489,-4.0582,-4.092,-4.1397,-4.2202,-3.1836,-3.1816,-3.1661,-3.1692,-3.1826,-3.1826,-3.1889,-3.2085,-3.2082,-3.1966,-3.1709,-3.1221,-3.0737,-3.0579,-3.0609,-3.0609,-3.0703,-3.1105,-3.1403,-3.1913,-3.2443,-3.3058,-3.3484,-3.3732,-3.3843,-3.4139,-3.4507,-3.5223,-3.5953,-3.6285,-3.7108,-3.7703,-3.7854,-3.79,-3.7874,-3.7612,-3.7312,-3.6802,-3.6462,-3.6123,-3.5391,-3.509,-3.4803,-3.4463,-3.4437,-3.4397,-3.4397,-3.4397,-3.4397,-3.4397,-3.4397,-3.4397,-3.4397,-3.4397,-3.4397,-3.4397,-3.4397,-3.4397,-3.4397,-3.4397,-3.4397,-3.4397,-3.4397,-3.4397,-3.4397,-3.4397,-3.4397,-3.4397,-3.4397,-3.4397,-3.4397,-3.4397,-3.4397,-3.4397,-3.4397,-3.4397,-3.4397,-3.4397,-3.4397,-3.4397,-3.4397,-3.4799,-3.5305,-3.5696,-3.7391,-3.9188,-4.052,-4.1632,-4.2483,-4.3031,-4.3512,-4.3699,-4.3871,-4.4065,-4.4189,-4.4205,-4.4327,-4.4365,-4.4479,-4.461,-4.461,-4.461,-4.4286,-4.3793,-4.3356,-4.2925,-4.194,-4.1093,-4.0705,-4.0489,-4.0489,-4.0582,-4.0843,-4.1524,-4.2371,-3.1381,-3.136,-3.1205,-3.1143,-3.1164,-3.1309,-3.1561,-3.1601,-3.1233,-3.1074,-3.0895,-3.0266,-3.0057,-3.0057,-2.9994,-2.9994,-3.0047,-3.0547,-3.0888,-3.1403,-3.1874,-3.2432,-3.2846,-3.3008,-3.3208,-3.3369,-3.3793,-3.4409,-3.5174,-3.5655,-3.6427,-3.7214,-3.7762,-3.79,-3.7887,-3.7795,-3.7704,-3.7286,-3.7024,-3.6619,-3.6005,-3.5547,-3.5116,-3.4789,-3.4567,-3.4397,-3.4397,-3.4397,-3.4397,-3.4397,-3.4397,-3.4397,-3.4397,-3.4397,-3.4397,-3.4397,-3.4397,-3.4397,-3.4397,-3.4397,-3.4397,-3.4397,-3.4397,-3.4397,-3.4397,-3.4397,-3.4397,-3.4397,-3.4397,-3.4397,-3.4397,-3.4397,-3.4397,-3.4397,-3.4397,-3.4397,-3.4397,-3.4397,-3.4397,-3.4397,-3.4439,-3.495,-3.544,-3.5926,-3.6718,-3.8414,-4.0037,-4.1074,-4.2019,-4.2506,-4.2965,-4.3127,-4.3193,-4.322,-4.3457,-4.3747,-4.3899,-4.412,-4.4311,-4.4518,-4.461,-4.4594,-4.4286,-4.4009,-4.3571,-4.2987,-4.1909,-4.112,-4.0689,-4.0489,-4.0489,-4.0612,-4.0832,-4.1617,-4.254,-3.1329,-3.1322,-3.0853,-3.0667,-3.0739,-3.1071,-3.1073,-3.0689,-3.0254,-3.0088,-3.0015,-3.0078,-2.9994,-2.9994,-2.9994,-2.9994,-3.0047,-3.0495,-3.0744,-3.094,-3.1414,-3.1913,-3.2218,-3.2432,-3.2695,-3.3069,-3.3507,-3.3967,-3.4434,-3.521,-3.5941,-3.6675,-3.7551,-3.7795,-3.79,-3.7887,-3.7835,-3.7639,-3.739,-3.7037,-3.658,-3.5874,-3.5443,-3.5064,-3.4724,-3.4463,-3.4397,-3.4397,-3.4397,-3.4397,-3.4397,-3.4397,-3.4397,-3.4397,-3.4397,-3.4397,-3.4397,-3.4397,-3.4397,-3.4397,-3.4397,-3.4397,-3.4397,-3.4397,-3.4397,-3.4397,-3.4397,-3.4397,-3.4397,-3.4397,-3.4397,-3.4397,-3.4397,-3.4397,-3.4397,-3.4397,-3.4397,-3.4397,-3.4397,-3.4397,-3.4397,-3.4716,-3.5196,-3.5683,-3.6062,-3.7611,-3.9131,-4.0156,-4.105,-4.1692,-4.2081,-4.2306,-4.234,-4.2228,-4.2539,-4.3054,-4.3434,-4.3639,-4.4182,-4.4419,-4.4496,-4.4496,-4.4266,-4.4021,-4.3712,-4.3057,-4.2032,-4.1254,-4.0562,-4.0489,-4.0489,-4.0828,-4.1093,-4.1863,-4.2725,-3.0398,-3.0377,-3.0243,-3.0191,-3.0212,-3.0346,-3.0315,-3.017,-3.0036,-2.9994,-2.9994,-2.9994,-2.9994,-2.9994,-2.9994,-2.9994,-3.0047,-3.0193,-3.0484,-3.0744,-3.095,-3.1351,-3.1669,-3.1874,-3.2167,-3.2672,-3.3174,-3.3671,-3.4483,-3.515,-3.5881,-3.6756,-3.74,-3.7703,-3.79,-3.79,-3.79,-3.7848,-3.7652,-3.7416,-3.6998,-3.6292,-3.5809,-3.5325,-3.4803,-3.4528,-3.441,-3.4397,-3.4397,-3.4397,-3.4397,-3.4397,-3.4397,-3.4397,-3.4397,-3.4397,-3.4397,-3.4397,-3.4397,-3.4397,-3.4397,-3.4397,-3.4397,-3.4397,-3.4397,-3.4397,-3.4397,-3.4397,-3.4397,-3.4397,-3.4397,-3.4397,-3.4397,-3.4397,-3.4397,-3.4397,-3.4397,-3.4397,-3.4397,-3.4397,-3.4397,-3.4481,-3.495,-3.4964,-3.5493,-3.6993,-3.8211,-3.9151,-4.0058,-4.068,-4.1302,-4.1557,-4.1505,-4.1393,-4.1889,-4.247,-4.2811,-4.3168,-4.3754,-4.4212,-4.4243,-4.4205,-4.4205,-4.393,-4.3502,-4.2943,-4.2276,-4.1485,-4.0631,-4.0486,-4.0536,-4.0951,-4.1447,-4.2048,-4.2833,-2.9994,-2.9994,-2.9994,-2.9994,-2.9994,-2.9994,-2.9994,-2.9994,-2.9994,-2.9994,-2.9994,-2.9994,-2.9994,-2.9994,-2.9994,-2.9994,-2.9994,-3.0047,-3.0193,-3.0339,-3.0536,-3.0847,-3.1116,-3.1311,-3.1618,-3.2117,-3.2561,-3.2912,-3.3932,-3.4969,-3.5798,-3.6285,-3.7015,-3.7551,-3.7795,-3.79,-3.79,-3.79,-3.7821,-3.7665,-3.726,-3.675,-3.6201,-3.56,-3.5038,-3.4698,-3.4424,-3.4397,-3.4397,-3.4397,-3.4397,-3.4397,-3.4397,-3.4397,-3.4397,-3.4397,-3.4397,-3.4397,-3.4397,-3.4397,-3.4397,-3.4397,-3.4397,-3.4397,-3.4397,-3.4397,-3.4397,-3.4397,-3.4397,-3.4397,-3.4397,-3.4397,-3.4397,-3.4397,-3.4397,-3.4397,-3.4397,-3.4397,-3.4397,-3.4397,-3.4397,-3.4397,-3.4439,-3.4397,-3.4673,-3.5778,-3.6811,-3.777,-3.8734,-3.9631,-4.0368,-4.0928,-4.0763,-4.0606,-4.119,-4.1769,-4.2153,-4.2713,-4.354,-4.3898,-4.3927,-4.3988,-4.405,-4.3685,-4.3176,-4.2643,-4.2114,-4.1438,-4.076,-4.0616,-4.0566,-4.0905,-4.1309,-4.1724,-4.2602,-2.9994,-2.9994,-2.9994,-2.9994,-2.9994,-2.9994,-2.9994,-2.9994,-2.9994,-2.9994,-2.9994,-2.9994,-2.9994,-2.9994,-2.9994,-2.9994,-2.9994,-2.9994,-2.9994,-3.0047,-3.0088,-3.0401,-3.0651,-3.0795,-3.1054,-3.1373,-3.1721,-3.2156,-3.2762,-3.3932,-3.5114,-3.5511,-3.6238,-3.6828,-3.7261,-3.7551,-3.7564,-3.7611,-3.7749,-3.7808,-3.7691,-3.7273,-3.6724,-3.6096,-3.5521,-3.5025,-3.4567,-3.4397,-3.4397,-3.4397,-3.4397,-3.4397,-3.4397,-3.4397,-3.4397,-3.4397,-3.4397,-3.4397,-3.4397,-3.4397,-3.4397,-3.4397,-3.4397,-3.4397,-3.4397,-3.4397,-3.4397,-3.4397,-3.4397,-3.4397,-3.4397,-3.4397,-3.4397,-3.4397,-3.4397,-3.4397,-3.4397,-3.4397,-3.4397,-3.4397,-3.4397,-3.4397,-3.4397,-3.4397,-3.4675,-3.5127,-3.5683,-3.6677,-3.7701,-3.8728,-3.9417,-4.0144,-4.0157,-4.0068,-4.0374,-4.095,-4.146,-4.2168,-4.3075,-4.3605,-4.3693,-4.3801,-4.3879,-4.3341,-4.2705,-4.2424,-4.1928,-4.1142,-4.0608,-4.0554,-4.0578,-4.0858,-4.1217,-4.1509,-4.2371,-2.9994,-2.9994,-2.9994,-2.9994,-2.9994,-2.9994,-2.9994,-2.9994,-2.9994,-2.9994,-2.9994,-2.9994,-2.9994,-2.9994,-2.9994,-2.9994,-2.9994,-2.9994,-2.9994,-2.9994,-2.9994,-3.0047,-3.0193,-3.0297,-3.0547,-3.0847,-3.1146,-3.1505,-3.2308,-3.3487,-3.4422,-3.4775,-3.5378,-3.5914,-3.638,-3.6709,-3.6938,-3.7015,-3.7413,-3.7572,-3.7501,-3.7195,-3.6724,-3.6079,-3.5504,-3.5012,-3.4607,-3.4397,-3.4397,-3.4397,-3.4397,-3.4397,-3.4397,-3.4397,-3.4397,-3.4397,-3.4397,-3.4397,-3.4397,-3.4397,-3.4397,-3.4397,-3.4397,-3.4397,-3.4397,-3.4397,-3.4397,-3.4397,-3.4397,-3.4397,-3.4397,-3.4397,-3.4397,-3.4397,-3.4397,-3.4397,-3.4397,-3.4397,-3.4397,-3.4397,-3.4397,-3.4397,-3.4397,-3.4564,-3.4799,-3.5155,-3.5521,-3.6269,-3.7337,-3.8275,-3.8626,-3.9239,-3.9621,-3.9694,-3.9888,-4.0449,-4.1175,-4.1716,-4.2505,-4.3001,-4.3427,-4.3551,-4.353,-4.2775,-4.2204,-4.1972,-4.1531,-4.0709,-4.0284,-4.0307,-4.0427,-4.0662,-4.087,-4.1115,-4.2135,-2.9994,-2.9994,-2.9994,-2.9994,-2.9994,-2.9994,-2.9994,-2.9994,-2.9994,-2.9994,-2.9994,-2.9994,-2.9994,-2.9994,-2.9994,-2.9994,-2.9994,-2.9994,-2.9994,-2.9994,-2.9994,-2.9994,-2.9994,-2.9994,-3.0141,-3.0443,-3.0744,-3.1249,-3.1902,-3.251,-3.3201,-3.3885,-3.4437,-3.4763,-3.5257,-3.5827,-3.6003,-3.6238,-3.6722,-3.676,-3.6806,-3.6677,-3.6178,-3.5626,-3.5176,-3.4806,-3.462,-3.4397,-3.4397,-3.4397,-3.4397,-3.4397,-3.4397,-3.4397,-3.4397,-3.4397,-3.4397,-3.4397,-3.4397,-3.4397,-3.4397,-3.4397,-3.4397,-3.4397,-3.4397,-3.4397,-3.4397,-3.4397,-3.4397,-3.4397,-3.4397,-3.4397,-3.4397,-3.4397,-3.4397,-3.4397,-3.4397,-3.4397,-3.4397,-3.4397,-3.4397,-3.4397,-3.4397,-3.4397,-3.4634,-3.4799,-3.5237,-3.5669,-3.6741,-3.7606,-3.7947,-3.8449,-3.8885,-3.9316,-3.9619,-4.0292,-4.1123,-4.1647,-4.2087,-4.2755,-4.3334,-4.3284,-4.3135,-4.2425,-4.188,-4.1663,-4.1098,-4.0377,-4.0107,-4.0162,-4.0268,-4.0349,-4.0591,-4.0846,-4.174,-2.9787,-2.9829,-2.987,-2.9901,-2.9922,-2.9973,-2.9994,-2.9994,-2.9994,-2.9994,-2.9994,-2.9994,-2.9994,-2.9994,-2.9994,-2.9994,-2.9994,-2.9994,-2.9994,-2.9994,-2.9994,-2.9994,-2.9994,-2.9994,-3.0099,-3.0245,-3.0588,-3.0733,-3.1032,-3.1699,-3.2415,-3.3051,-3.3247,-3.3426,-3.4438,-3.4882,-3.4738,-3.5173,-3.5437,-3.5204,-3.5475,-3.5892,-3.5334,-3.4893,-3.465,-3.479,-3.4468,-3.4356,-3.4356,-3.4397,-3.4397,-3.4397,-3.4397,-3.4397,-3.4397,-3.4397,-3.4397,-3.4397,-3.4397,-3.4397,-3.4397,-3.4397,-3.4397,-3.4397,-3.4397,-3.4397,-3.4397,-3.4397,-3.4397,-3.4397,-3.4397,-3.4397,-3.4397,-3.4397,-3.4397,-3.4397,-3.4397,-3.4397,-3.4397,-3.4397,-3.4397,-3.4397,-3.4397,-3.4397,-3.4481,-3.4592,-3.4881,-3.5305,-3.587,-3.6531,-3.7025,-3.7691,-3.836,-3.8775,-3.9164,-3.9913,-4.0725,-4.1549,-4.2043,-4.2716,-4.3065,-4.2791,-4.2462,-4.2058,-4.1625,-4.1198,-4.0852,-4.0269,-4.0105,-3.9985,-4.0127,-4.0197,-4.0339,-4.0654,-4.1275,-2.8876,-2.8907,-2.927,-2.9446,-2.9487,-2.9818,-2.9994,-2.9994,-2.9994,-2.9994,-2.9994,-2.9994,-2.9994,-2.9994,-2.9994,-2.9994,-2.9994,-2.9994,-2.9994,-2.9994,-2.9994,-2.9994,-2.9994,-2.9994,-2.9994,-3.0193,-3.0443,-3.0733,-3.0692,-3.1197,-3.1462,-3.1512,-3.1911,-3.1906,-3.1827,-3.245,-3.3476,-3.4007,-3.446,-3.4426,-3.4245,-3.4424,-3.4371,-3.412,-3.401,-3.3941,-3.3849,-3.416,-3.4314,-3.4397,-3.4397,-3.4397,-3.4397,-3.4397,-3.4397,-3.4397,-3.4397,-3.4397,-3.4397,-3.4397,-3.4397,-3.4397,-3.4397,-3.4397,-3.4397,-3.4397,-3.4397,-3.4397,-3.4397,-3.4397,-3.4397,-3.4397,-3.4397,-3.4397,-3.4397,-3.4397,-3.4397,-3.4397,-3.4397,-3.4397,-3.4397,-3.4397,-3.4397,-3.4397,-3.4397,-3.4481,-3.4481,-3.495,-3.5426,-3.5803,-3.6148,-3.683,-3.7577,-3.8113,-3.8456,-3.9282,-4.0132,-4.1111,-4.1916,-4.2297,-4.2357,-4.1953,-4.1609,-4.1392,-4.095,-4.0509,-4.0162,-3.998,-3.9902,-3.9798,-3.994,-4.0076,-4.0152,-4.0436,-4.098]}]]